<?xml version="1.0" encoding="UTF-8" standalone="no" ?>
<gpx xmlns="http://www.topografix.com/GPX/1/1" xmlns:xsi="http://www.w3.org/2001/XMLSchema-instance" xsi:schemaLocation="http://www.topografix.com/GPX/1/1 http://www.topografix.com/GPX/1/1/gpx.xsd" version="1.1" creator="VisuGPX - https://www.visugpx.com">
  <metadata>
    <name>Tour du Brec de Chambeyron</name>
    <desc><![CDATA[Tour du Brec de Chambeyron par le pas de la Couletta, le col de la Gypière, le col de Stroppia, avec les randonneurs de l'ASVF Villefontaine, CAF Lyon, CAF La Mure, ASVEL Ski Montagne]]></desc>
  </metadata>
  <trk>
    <name><![CDATA[Tour Chambeyron]]></name>
    <trkseg>
      <trkpt lat="44.52538" lon="6.79947">
        <ele>1899.361</ele>
        <time>2017-03-13T06:18:18Z</time>
      </trkpt>
      <trkpt lat="44.52542" lon="6.79965">
        <ele>1899.292</ele>
        <time>2017-03-13T06:18:31Z</time>
      </trkpt>
      <trkpt lat="44.52542" lon="6.7997">
        <ele>1899.399</ele>
        <time>2017-03-13T06:18:41Z</time>
      </trkpt>
      <trkpt lat="44.52545" lon="6.79987">
        <ele>1898.656</ele>
        <time>2017-03-13T06:18:51Z</time>
      </trkpt>
      <trkpt lat="44.52549" lon="6.80001">
        <ele>1898.627</ele>
        <time>2017-03-13T06:18:59Z</time>
      </trkpt>
      <trkpt lat="44.52553" lon="6.8002">
        <ele>1898.83</ele>
        <time>2017-03-13T06:19:09Z</time>
      </trkpt>
      <trkpt lat="44.52551" lon="6.80042">
        <ele>1899.133</ele>
        <time>2017-03-13T06:19:21Z</time>
      </trkpt>
      <trkpt lat="44.52553" lon="6.80059">
        <ele>1898.9</ele>
        <time>2017-03-13T06:19:34Z</time>
      </trkpt>
      <trkpt lat="44.5255" lon="6.80079">
        <ele>1898.901</ele>
        <time>2017-03-13T06:19:45Z</time>
      </trkpt>
      <trkpt lat="44.5255" lon="6.80098">
        <ele>1898.753</ele>
        <time>2017-03-13T06:19:56Z</time>
      </trkpt>
      <trkpt lat="44.52552" lon="6.80111">
        <ele>1899.98</ele>
        <time>2017-03-13T06:20:05Z</time>
      </trkpt>
      <trkpt lat="44.52553" lon="6.80127">
        <ele>1900.629</ele>
        <time>2017-03-13T06:20:18Z</time>
      </trkpt>
      <trkpt lat="44.52557" lon="6.8014">
        <ele>1901.475</ele>
        <time>2017-03-13T06:20:30Z</time>
      </trkpt>
      <trkpt lat="44.52558" lon="6.80143">
        <ele>1901.784</ele>
        <time>2017-03-13T06:20:33Z</time>
      </trkpt>
      <trkpt lat="44.52559" lon="6.80148">
        <ele>1901.971</ele>
        <time>2017-03-13T06:20:37Z</time>
      </trkpt>
      <trkpt lat="44.5256" lon="6.8016">
        <ele>1902.349</ele>
        <time>2017-03-13T06:20:45Z</time>
      </trkpt>
      <trkpt lat="44.52566" lon="6.80172">
        <ele>1903.713</ele>
        <time>2017-03-13T06:20:57Z</time>
      </trkpt>
      <trkpt lat="44.5257" lon="6.80186">
        <ele>1904.428</ele>
        <time>2017-03-13T06:21:08Z</time>
      </trkpt>
      <trkpt lat="44.5257" lon="6.80192">
        <ele>1903.836</ele>
        <time>2017-03-13T06:21:13Z</time>
      </trkpt>
      <trkpt lat="44.52572" lon="6.80208">
        <ele>1903.978</ele>
        <time>2017-03-13T06:21:24Z</time>
      </trkpt>
      <trkpt lat="44.52574" lon="6.80215">
        <ele>1903.349</ele>
        <time>2017-03-13T06:22:32Z</time>
      </trkpt>
      <trkpt lat="44.52575" lon="6.8022">
        <ele>1903.607</ele>
        <time>2017-03-13T06:22:36Z</time>
      </trkpt>
      <trkpt lat="44.52583" lon="6.80233">
        <ele>1903.381</ele>
        <time>2017-03-13T06:22:50Z</time>
      </trkpt>
      <trkpt lat="44.52584" lon="6.80242">
        <ele>1903.716</ele>
        <time>2017-03-13T06:22:55Z</time>
      </trkpt>
      <trkpt lat="44.52587" lon="6.80249">
        <ele>1903.983</ele>
        <time>2017-03-13T06:22:59Z</time>
      </trkpt>
      <trkpt lat="44.52591" lon="6.8027">
        <ele>1904.174</ele>
        <time>2017-03-13T06:23:11Z</time>
      </trkpt>
      <trkpt lat="44.52596" lon="6.8029">
        <ele>1903.567</ele>
        <time>2017-03-13T06:23:23Z</time>
      </trkpt>
      <trkpt lat="44.52598" lon="6.80309">
        <ele>1904.253</ele>
        <time>2017-03-13T06:23:33Z</time>
      </trkpt>
      <trkpt lat="44.52598" lon="6.8033">
        <ele>1905.642</ele>
        <time>2017-03-13T06:23:45Z</time>
      </trkpt>
      <trkpt lat="44.52597" lon="6.80347">
        <ele>1906.566</ele>
        <time>2017-03-13T06:23:56Z</time>
      </trkpt>
      <trkpt lat="44.52599" lon="6.80365">
        <ele>1908.055</ele>
        <time>2017-03-13T06:24:07Z</time>
      </trkpt>
      <trkpt lat="44.52598" lon="6.80382">
        <ele>1907.326</ele>
        <time>2017-03-13T06:24:17Z</time>
      </trkpt>
      <trkpt lat="44.526" lon="6.804">
        <ele>1906.67</ele>
        <time>2017-03-13T06:24:27Z</time>
      </trkpt>
      <trkpt lat="44.526" lon="6.80405">
        <ele>1906.956</ele>
        <time>2017-03-13T06:24:30Z</time>
      </trkpt>
      <trkpt lat="44.52604" lon="6.80427">
        <ele>1907.327</ele>
        <time>2017-03-13T06:24:43Z</time>
      </trkpt>
      <trkpt lat="44.52603" lon="6.80439">
        <ele>1907.665</ele>
        <time>2017-03-13T06:24:51Z</time>
      </trkpt>
      <trkpt lat="44.52598" lon="6.8045">
        <ele>1909.053</ele>
        <time>2017-03-13T06:25:00Z</time>
      </trkpt>
      <trkpt lat="44.52592" lon="6.80468">
        <ele>1909.905</ele>
        <time>2017-03-13T06:25:13Z</time>
      </trkpt>
      <trkpt lat="44.52589" lon="6.80481">
        <ele>1911.274</ele>
        <time>2017-03-13T06:25:22Z</time>
      </trkpt>
      <trkpt lat="44.52586" lon="6.80493">
        <ele>1913.066</ele>
        <time>2017-03-13T06:25:33Z</time>
      </trkpt>
      <trkpt lat="44.52584" lon="6.80498">
        <ele>1914.13</ele>
        <time>2017-03-13T06:25:40Z</time>
      </trkpt>
      <trkpt lat="44.52581" lon="6.80512">
        <ele>1915.107</ele>
        <time>2017-03-13T06:26:39Z</time>
      </trkpt>
      <trkpt lat="44.52574" lon="6.80526">
        <ele>1915.872</ele>
        <time>2017-03-13T06:26:50Z</time>
      </trkpt>
      <trkpt lat="44.52568" lon="6.80544">
        <ele>1916.945</ele>
        <time>2017-03-13T06:27:02Z</time>
      </trkpt>
      <trkpt lat="44.52565" lon="6.8056">
        <ele>1918.087</ele>
        <time>2017-03-13T06:27:12Z</time>
      </trkpt>
      <trkpt lat="44.52563" lon="6.80572">
        <ele>1917.451</ele>
        <time>2017-03-13T06:27:19Z</time>
      </trkpt>
      <trkpt lat="44.52563" lon="6.80602">
        <ele>1918.242</ele>
        <time>2017-03-13T06:27:36Z</time>
      </trkpt>
      <trkpt lat="44.5256" lon="6.80619">
        <ele>1918.916</ele>
        <time>2017-03-13T06:27:47Z</time>
      </trkpt>
      <trkpt lat="44.52559" lon="6.80622">
        <ele>1919.445</ele>
        <time>2017-03-13T06:27:50Z</time>
      </trkpt>
      <trkpt lat="44.52556" lon="6.80645">
        <ele>1918.482</ele>
        <time>2017-03-13T06:28:02Z</time>
      </trkpt>
      <trkpt lat="44.52552" lon="6.80667">
        <ele>1918.227</ele>
        <time>2017-03-13T06:28:16Z</time>
      </trkpt>
      <trkpt lat="44.52546" lon="6.80689">
        <ele>1917.719</ele>
        <time>2017-03-13T06:28:29Z</time>
      </trkpt>
      <trkpt lat="44.52541" lon="6.80708">
        <ele>1917.801</ele>
        <time>2017-03-13T06:28:41Z</time>
      </trkpt>
      <trkpt lat="44.52537" lon="6.80725">
        <ele>1917.612</ele>
        <time>2017-03-13T06:28:51Z</time>
      </trkpt>
      <trkpt lat="44.52532" lon="6.80729">
        <ele>1917.681</ele>
        <time>2017-03-13T06:29:49Z</time>
      </trkpt>
      <trkpt lat="44.5253" lon="6.80735">
        <ele>1917.24</ele>
        <time>2017-03-13T06:30:30Z</time>
      </trkpt>
      <trkpt lat="44.52527" lon="6.80738">
        <ele>1916.898</ele>
        <time>2017-03-13T06:30:55Z</time>
      </trkpt>
      <trkpt lat="44.5252" lon="6.80747">
        <ele>1917.116</ele>
        <time>2017-03-13T06:31:06Z</time>
      </trkpt>
      <trkpt lat="44.52516" lon="6.80755">
        <ele>1917.737</ele>
        <time>2017-03-13T06:31:16Z</time>
      </trkpt>
      <trkpt lat="44.52512" lon="6.80761">
        <ele>1918.123</ele>
        <time>2017-03-13T06:31:50Z</time>
      </trkpt>
      <trkpt lat="44.52505" lon="6.80772">
        <ele>1918.821</ele>
        <time>2017-03-13T06:32:02Z</time>
      </trkpt>
      <trkpt lat="44.52501" lon="6.80777">
        <ele>1919.279</ele>
        <time>2017-03-13T06:32:13Z</time>
      </trkpt>
      <trkpt lat="44.52493" lon="6.80787">
        <ele>1919.952</ele>
        <time>2017-03-13T06:32:27Z</time>
      </trkpt>
      <trkpt lat="44.52484" lon="6.80799">
        <ele>1922.986</ele>
        <time>2017-03-13T06:32:46Z</time>
      </trkpt>
      <trkpt lat="44.5248" lon="6.8081">
        <ele>1924.049</ele>
        <time>2017-03-13T06:33:00Z</time>
      </trkpt>
      <trkpt lat="44.52473" lon="6.80824">
        <ele>1925.946</ele>
        <time>2017-03-13T06:33:17Z</time>
      </trkpt>
      <trkpt lat="44.52467" lon="6.80838">
        <ele>1928.515</ele>
        <time>2017-03-13T06:33:36Z</time>
      </trkpt>
      <trkpt lat="44.52463" lon="6.80847">
        <ele>1931.022</ele>
        <time>2017-03-13T06:33:52Z</time>
      </trkpt>
      <trkpt lat="44.52458" lon="6.80858">
        <ele>1933.51</ele>
        <time>2017-03-13T06:34:07Z</time>
      </trkpt>
      <trkpt lat="44.52452" lon="6.80871">
        <ele>1935.856</ele>
        <time>2017-03-13T06:34:26Z</time>
      </trkpt>
      <trkpt lat="44.52446" lon="6.80888">
        <ele>1937.626</ele>
        <time>2017-03-13T06:34:52Z</time>
      </trkpt>
      <trkpt lat="44.5244" lon="6.80899">
        <ele>1938.182</ele>
        <time>2017-03-13T06:36:16Z</time>
      </trkpt>
      <trkpt lat="44.52434" lon="6.8091">
        <ele>1939.894</ele>
        <time>2017-03-13T06:36:31Z</time>
      </trkpt>
      <trkpt lat="44.52427" lon="6.80918">
        <ele>1941.155</ele>
        <time>2017-03-13T06:36:45Z</time>
      </trkpt>
      <trkpt lat="44.5242" lon="6.80926">
        <ele>1942.275</ele>
        <time>2017-03-13T06:36:57Z</time>
      </trkpt>
      <trkpt lat="44.52413" lon="6.80933">
        <ele>1943.22</ele>
        <time>2017-03-13T06:37:09Z</time>
      </trkpt>
      <trkpt lat="44.52407" lon="6.8094">
        <ele>1943.74</ele>
        <time>2017-03-13T06:37:18Z</time>
      </trkpt>
      <trkpt lat="44.524" lon="6.80947">
        <ele>1943.95</ele>
        <time>2017-03-13T06:37:28Z</time>
      </trkpt>
      <trkpt lat="44.52392" lon="6.80956">
        <ele>1944.543</ele>
        <time>2017-03-13T06:37:42Z</time>
      </trkpt>
      <trkpt lat="44.52381" lon="6.80969">
        <ele>1945.665</ele>
        <time>2017-03-13T06:37:59Z</time>
      </trkpt>
      <trkpt lat="44.52377" lon="6.80975">
        <ele>1946.257</ele>
        <time>2017-03-13T06:38:08Z</time>
      </trkpt>
      <trkpt lat="44.52374" lon="6.80983">
        <ele>1947.431</ele>
        <time>2017-03-13T06:38:19Z</time>
      </trkpt>
      <trkpt lat="44.52372" lon="6.80991">
        <ele>1948.859</ele>
        <time>2017-03-13T06:38:27Z</time>
      </trkpt>
      <trkpt lat="44.52371" lon="6.81">
        <ele>1950.004</ele>
        <time>2017-03-13T06:38:36Z</time>
      </trkpt>
      <trkpt lat="44.52369" lon="6.81007">
        <ele>1950.356</ele>
        <time>2017-03-13T06:38:44Z</time>
      </trkpt>
      <trkpt lat="44.52367" lon="6.81015">
        <ele>1952.08</ele>
        <time>2017-03-13T06:38:56Z</time>
      </trkpt>
      <trkpt lat="44.52365" lon="6.8102">
        <ele>1953.24</ele>
        <time>2017-03-13T06:39:03Z</time>
      </trkpt>
      <trkpt lat="44.52362" lon="6.81026">
        <ele>1954.478</ele>
        <time>2017-03-13T06:39:11Z</time>
      </trkpt>
      <trkpt lat="44.5236" lon="6.81029">
        <ele>1955.528</ele>
        <time>2017-03-13T06:39:19Z</time>
      </trkpt>
      <trkpt lat="44.52359" lon="6.81035">
        <ele>1955.091</ele>
        <time>2017-03-13T06:39:33Z</time>
      </trkpt>
      <trkpt lat="44.52358" lon="6.81043">
        <ele>1956.156</ele>
        <time>2017-03-13T06:39:43Z</time>
      </trkpt>
      <trkpt lat="44.52359" lon="6.81049">
        <ele>1956.607</ele>
        <time>2017-03-13T06:39:52Z</time>
      </trkpt>
      <trkpt lat="44.52358" lon="6.81054">
        <ele>1957.158</ele>
        <time>2017-03-13T06:40:24Z</time>
      </trkpt>
      <trkpt lat="44.52356" lon="6.81064">
        <ele>1957.65</ele>
        <time>2017-03-13T06:40:35Z</time>
      </trkpt>
      <trkpt lat="44.52352" lon="6.81068">
        <ele>1958.701</ele>
        <time>2017-03-13T06:40:42Z</time>
      </trkpt>
      <trkpt lat="44.52347" lon="6.81071">
        <ele>1960.02</ele>
        <time>2017-03-13T06:40:50Z</time>
      </trkpt>
      <trkpt lat="44.52344" lon="6.81073">
        <ele>1961.21</ele>
        <time>2017-03-13T06:40:58Z</time>
      </trkpt>
      <trkpt lat="44.52341" lon="6.81078">
        <ele>1962.084</ele>
        <time>2017-03-13T06:41:05Z</time>
      </trkpt>
      <trkpt lat="44.52338" lon="6.81081">
        <ele>1963.252</ele>
        <time>2017-03-13T06:41:14Z</time>
      </trkpt>
      <trkpt lat="44.52336" lon="6.81082">
        <ele>1964.451</ele>
        <time>2017-03-13T06:41:22Z</time>
      </trkpt>
      <trkpt lat="44.52335" lon="6.81085">
        <ele>1965.513</ele>
        <time>2017-03-13T06:41:29Z</time>
      </trkpt>
      <trkpt lat="44.52332" lon="6.81088">
        <ele>1967.212</ele>
        <time>2017-03-13T06:41:37Z</time>
      </trkpt>
      <trkpt lat="44.52324" lon="6.81096">
        <ele>1969.431</ele>
        <time>2017-03-13T06:41:52Z</time>
      </trkpt>
      <trkpt lat="44.52317" lon="6.811">
        <ele>1970.874</ele>
        <time>2017-03-13T06:42:02Z</time>
      </trkpt>
      <trkpt lat="44.52312" lon="6.81106">
        <ele>1971.358</ele>
        <time>2017-03-13T06:42:10Z</time>
      </trkpt>
      <trkpt lat="44.52306" lon="6.81118">
        <ele>1972.998</ele>
        <time>2017-03-13T06:42:26Z</time>
      </trkpt>
      <trkpt lat="44.52305" lon="6.81124">
        <ele>1973.163</ele>
        <time>2017-03-13T06:42:31Z</time>
      </trkpt>
      <trkpt lat="44.52302" lon="6.8113">
        <ele>1974.404</ele>
        <time>2017-03-13T06:42:39Z</time>
      </trkpt>
      <trkpt lat="44.523" lon="6.81132">
        <ele>1975.063</ele>
        <time>2017-03-13T06:42:46Z</time>
      </trkpt>
      <trkpt lat="44.52294" lon="6.81135">
        <ele>1975.512</ele>
        <time>2017-03-13T06:42:54Z</time>
      </trkpt>
      <trkpt lat="44.52291" lon="6.81136">
        <ele>1977.021</ele>
        <time>2017-03-13T06:43:00Z</time>
      </trkpt>
      <trkpt lat="44.52288" lon="6.81139">
        <ele>1978.232</ele>
        <time>2017-03-13T06:43:07Z</time>
      </trkpt>
      <trkpt lat="44.52287" lon="6.81142">
        <ele>1979.001</ele>
        <time>2017-03-13T06:43:17Z</time>
      </trkpt>
      <trkpt lat="44.52282" lon="6.81147">
        <ele>1980.152</ele>
        <time>2017-03-13T06:43:27Z</time>
      </trkpt>
      <trkpt lat="44.52278" lon="6.81155">
        <ele>1981.554</ele>
        <time>2017-03-13T06:43:38Z</time>
      </trkpt>
      <trkpt lat="44.52273" lon="6.81159">
        <ele>1982.969</ele>
        <time>2017-03-13T06:43:46Z</time>
      </trkpt>
      <trkpt lat="44.52269" lon="6.81166">
        <ele>1983.372</ele>
        <time>2017-03-13T06:43:56Z</time>
      </trkpt>
      <trkpt lat="44.52263" lon="6.81174">
        <ele>1983.75</ele>
        <time>2017-03-13T06:44:08Z</time>
      </trkpt>
      <trkpt lat="44.52257" lon="6.81181">
        <ele>1984.388</ele>
        <time>2017-03-13T06:44:17Z</time>
      </trkpt>
      <trkpt lat="44.52253" lon="6.81188">
        <ele>1985.314</ele>
        <time>2017-03-13T06:44:25Z</time>
      </trkpt>
      <trkpt lat="44.52249" lon="6.81193">
        <ele>1985.183</ele>
        <time>2017-03-13T06:44:34Z</time>
      </trkpt>
      <trkpt lat="44.52243" lon="6.81202">
        <ele>1986.935</ele>
        <time>2017-03-13T06:44:46Z</time>
      </trkpt>
      <trkpt lat="44.52238" lon="6.81207">
        <ele>1988.388</ele>
        <time>2017-03-13T06:44:57Z</time>
      </trkpt>
      <trkpt lat="44.52233" lon="6.81211">
        <ele>1989.922</ele>
        <time>2017-03-13T06:45:56Z</time>
      </trkpt>
      <trkpt lat="44.52227" lon="6.81218">
        <ele>1990.644</ele>
        <time>2017-03-13T06:46:23Z</time>
      </trkpt>
      <trkpt lat="44.52221" lon="6.81226">
        <ele>1993.163</ele>
        <time>2017-03-13T06:46:38Z</time>
      </trkpt>
      <trkpt lat="44.5221" lon="6.81242">
        <ele>1995.679</ele>
        <time>2017-03-13T06:47:00Z</time>
      </trkpt>
      <trkpt lat="44.52201" lon="6.81258">
        <ele>1997.141</ele>
        <time>2017-03-13T06:47:21Z</time>
      </trkpt>
      <trkpt lat="44.52188" lon="6.81277">
        <ele>1998.025</ele>
        <time>2017-03-13T06:47:45Z</time>
      </trkpt>
      <trkpt lat="44.5218" lon="6.81288">
        <ele>1998.544</ele>
        <time>2017-03-13T06:47:59Z</time>
      </trkpt>
      <trkpt lat="44.52171" lon="6.813">
        <ele>2000.026</ele>
        <time>2017-03-13T06:48:16Z</time>
      </trkpt>
      <trkpt lat="44.52162" lon="6.81312">
        <ele>2001.867</ele>
        <time>2017-03-13T06:48:32Z</time>
      </trkpt>
      <trkpt lat="44.52149" lon="6.81329">
        <ele>2004.027</ele>
        <time>2017-03-13T06:48:58Z</time>
      </trkpt>
      <trkpt lat="44.5214" lon="6.81341">
        <ele>2006.367</ele>
        <time>2017-03-13T06:49:16Z</time>
      </trkpt>
      <trkpt lat="44.52134" lon="6.81346">
        <ele>2007.916</ele>
        <time>2017-03-13T06:49:27Z</time>
      </trkpt>
      <trkpt lat="44.5213" lon="6.81352">
        <ele>2008.249</ele>
        <time>2017-03-13T06:49:38Z</time>
      </trkpt>
      <trkpt lat="44.52119" lon="6.81361">
        <ele>2009.491</ele>
        <time>2017-03-13T06:49:54Z</time>
      </trkpt>
      <trkpt lat="44.52107" lon="6.81366">
        <ele>2011.137</ele>
        <time>2017-03-13T06:50:10Z</time>
      </trkpt>
      <trkpt lat="44.52097" lon="6.81374">
        <ele>2012.578</ele>
        <time>2017-03-13T06:50:27Z</time>
      </trkpt>
      <trkpt lat="44.52088" lon="6.81383">
        <ele>2013.655</ele>
        <time>2017-03-13T06:50:42Z</time>
      </trkpt>
      <trkpt lat="44.5208" lon="6.81391">
        <ele>2014.973</ele>
        <time>2017-03-13T06:50:53Z</time>
      </trkpt>
      <trkpt lat="44.52077" lon="6.81399">
        <ele>2015.342</ele>
        <time>2017-03-13T06:51:02Z</time>
      </trkpt>
      <trkpt lat="44.52075" lon="6.814">
        <ele>2015.246</ele>
        <time>2017-03-13T06:51:05Z</time>
      </trkpt>
      <trkpt lat="44.52061" lon="6.81407">
        <ele>2016.265</ele>
        <time>2017-03-13T06:51:17Z</time>
      </trkpt>
      <trkpt lat="44.52059" lon="6.8141">
        <ele>2016.833</ele>
        <time>2017-03-13T06:51:23Z</time>
      </trkpt>
      <trkpt lat="44.52051" lon="6.81416">
        <ele>2016.542</ele>
        <time>2017-03-13T06:51:33Z</time>
      </trkpt>
      <trkpt lat="44.52048" lon="6.81424">
        <ele>2016.786</ele>
        <time>2017-03-13T06:52:13Z</time>
      </trkpt>
      <trkpt lat="44.52042" lon="6.81436">
        <ele>2017.806</ele>
        <time>2017-03-13T06:52:26Z</time>
      </trkpt>
      <trkpt lat="44.52035" lon="6.81456">
        <ele>2018.549</ele>
        <time>2017-03-13T06:52:43Z</time>
      </trkpt>
      <trkpt lat="44.52032" lon="6.81465">
        <ele>2019.313</ele>
        <time>2017-03-13T06:52:51Z</time>
      </trkpt>
      <trkpt lat="44.52031" lon="6.81467">
        <ele>2019.049</ele>
        <time>2017-03-13T06:52:53Z</time>
      </trkpt>
      <trkpt lat="44.52025" lon="6.81482">
        <ele>2018.972</ele>
        <time>2017-03-13T06:53:07Z</time>
      </trkpt>
      <trkpt lat="44.52023" lon="6.8149">
        <ele>2018.648</ele>
        <time>2017-03-13T06:53:14Z</time>
      </trkpt>
      <trkpt lat="44.52015" lon="6.81501">
        <ele>2019.148</ele>
        <time>2017-03-13T06:53:29Z</time>
      </trkpt>
      <trkpt lat="44.52008" lon="6.81517">
        <ele>2020.83</ele>
        <time>2017-03-13T06:53:45Z</time>
      </trkpt>
      <trkpt lat="44.52003" lon="6.81532">
        <ele>2024.129</ele>
        <time>2017-03-13T06:54:05Z</time>
      </trkpt>
      <trkpt lat="44.51996" lon="6.81547">
        <ele>2026.611</ele>
        <time>2017-03-13T06:54:22Z</time>
      </trkpt>
      <trkpt lat="44.51991" lon="6.81556">
        <ele>2029.643</ele>
        <time>2017-03-13T06:54:37Z</time>
      </trkpt>
      <trkpt lat="44.51988" lon="6.81564">
        <ele>2031.031</ele>
        <time>2017-03-13T06:54:45Z</time>
      </trkpt>
      <trkpt lat="44.51982" lon="6.81576">
        <ele>2033.786</ele>
        <time>2017-03-13T06:55:02Z</time>
      </trkpt>
      <trkpt lat="44.51975" lon="6.81593">
        <ele>2037.091</ele>
        <time>2017-03-13T06:55:21Z</time>
      </trkpt>
      <trkpt lat="44.51969" lon="6.81603">
        <ele>2039.853</ele>
        <time>2017-03-13T06:55:38Z</time>
      </trkpt>
      <trkpt lat="44.51962" lon="6.81599">
        <ele>2041.195</ele>
        <time>2017-03-13T06:55:59Z</time>
      </trkpt>
      <trkpt lat="44.51957" lon="6.816">
        <ele>2042.087</ele>
        <time>2017-03-13T06:57:05Z</time>
      </trkpt>
      <trkpt lat="44.51951" lon="6.816">
        <ele>2042.995</ele>
        <time>2017-03-13T06:57:14Z</time>
      </trkpt>
      <trkpt lat="44.51946" lon="6.816">
        <ele>2044.374</ele>
        <time>2017-03-13T06:57:22Z</time>
      </trkpt>
      <trkpt lat="44.51939" lon="6.81603">
        <ele>2045.583</ele>
        <time>2017-03-13T06:57:32Z</time>
      </trkpt>
      <trkpt lat="44.51932" lon="6.81608">
        <ele>2047.093</ele>
        <time>2017-03-13T06:57:42Z</time>
      </trkpt>
      <trkpt lat="44.51925" lon="6.81613">
        <ele>2048.538</ele>
        <time>2017-03-13T06:57:57Z</time>
      </trkpt>
      <trkpt lat="44.5192" lon="6.81619">
        <ele>2049.562</ele>
        <time>2017-03-13T06:58:06Z</time>
      </trkpt>
      <trkpt lat="44.51915" lon="6.81625">
        <ele>2050.655</ele>
        <time>2017-03-13T06:58:17Z</time>
      </trkpt>
      <trkpt lat="44.5191" lon="6.81631">
        <ele>2051.668</ele>
        <time>2017-03-13T06:58:28Z</time>
      </trkpt>
      <trkpt lat="44.51907" lon="6.81636">
        <ele>2052.692</ele>
        <time>2017-03-13T06:58:36Z</time>
      </trkpt>
      <trkpt lat="44.51904" lon="6.81639">
        <ele>2053.472</ele>
        <time>2017-03-13T06:58:43Z</time>
      </trkpt>
      <trkpt lat="44.51903" lon="6.81647">
        <ele>2054.212</ele>
        <time>2017-03-13T06:58:52Z</time>
      </trkpt>
      <trkpt lat="44.51899" lon="6.81655">
        <ele>2056.235</ele>
        <time>2017-03-13T06:59:04Z</time>
      </trkpt>
      <trkpt lat="44.51896" lon="6.81659">
        <ele>2057.036</ele>
        <time>2017-03-13T06:59:12Z</time>
      </trkpt>
      <trkpt lat="44.51892" lon="6.81668">
        <ele>2058.568</ele>
        <time>2017-03-13T06:59:24Z</time>
      </trkpt>
      <trkpt lat="44.51895" lon="6.81674">
        <ele>2059.567</ele>
        <time>2017-03-13T06:59:34Z</time>
      </trkpt>
      <trkpt lat="44.51897" lon="6.81679">
        <ele>2061.129</ele>
        <time>2017-03-13T06:59:45Z</time>
      </trkpt>
      <trkpt lat="44.51897" lon="6.81683">
        <ele>2061.833</ele>
        <time>2017-03-13T06:59:52Z</time>
      </trkpt>
      <trkpt lat="44.519" lon="6.81689">
        <ele>2062.874</ele>
        <time>2017-03-13T07:00:00Z</time>
      </trkpt>
      <trkpt lat="44.51902" lon="6.81697">
        <ele>2063.362</ele>
        <time>2017-03-13T07:00:08Z</time>
      </trkpt>
      <trkpt lat="44.51903" lon="6.81709">
        <ele>2064.093</ele>
        <time>2017-03-13T07:00:18Z</time>
      </trkpt>
      <trkpt lat="44.51903" lon="6.81717">
        <ele>2065.468</ele>
        <time>2017-03-13T07:00:27Z</time>
      </trkpt>
      <trkpt lat="44.519" lon="6.81725">
        <ele>2067.077</ele>
        <time>2017-03-13T07:00:38Z</time>
      </trkpt>
      <trkpt lat="44.51897" lon="6.81732">
        <ele>2068.676</ele>
        <time>2017-03-13T07:00:51Z</time>
      </trkpt>
      <trkpt lat="44.51895" lon="6.81737">
        <ele>2069.775</ele>
        <time>2017-03-13T07:00:57Z</time>
      </trkpt>
      <trkpt lat="44.51892" lon="6.81744">
        <ele>2070.496</ele>
        <time>2017-03-13T07:01:05Z</time>
      </trkpt>
      <trkpt lat="44.5189" lon="6.81748">
        <ele>2071.247</ele>
        <time>2017-03-13T07:01:12Z</time>
      </trkpt>
      <trkpt lat="44.51887" lon="6.81751">
        <ele>2072.654</ele>
        <time>2017-03-13T07:01:20Z</time>
      </trkpt>
      <trkpt lat="44.51885" lon="6.81755">
        <ele>2073.566</ele>
        <time>2017-03-13T07:01:27Z</time>
      </trkpt>
      <trkpt lat="44.51883" lon="6.8176">
        <ele>2074.231</ele>
        <time>2017-03-13T07:01:32Z</time>
      </trkpt>
      <trkpt lat="44.5188" lon="6.81767">
        <ele>2074.581</ele>
        <time>2017-03-13T07:01:41Z</time>
      </trkpt>
      <trkpt lat="44.51875" lon="6.81777">
        <ele>2076.353</ele>
        <time>2017-03-13T07:01:54Z</time>
      </trkpt>
      <trkpt lat="44.51869" lon="6.81778">
        <ele>2077.845</ele>
        <time>2017-03-13T07:02:03Z</time>
      </trkpt>
      <trkpt lat="44.51866" lon="6.81784">
        <ele>2079.294</ele>
        <time>2017-03-13T07:02:12Z</time>
      </trkpt>
      <trkpt lat="44.51863" lon="6.81791">
        <ele>2080.216</ele>
        <time>2017-03-13T07:02:21Z</time>
      </trkpt>
      <trkpt lat="44.51862" lon="6.81798">
        <ele>2081.947</ele>
        <time>2017-03-13T07:02:30Z</time>
      </trkpt>
      <trkpt lat="44.51861" lon="6.81806">
        <ele>2083.687</ele>
        <time>2017-03-13T07:02:39Z</time>
      </trkpt>
      <trkpt lat="44.51859" lon="6.81818">
        <ele>2086.122</ele>
        <time>2017-03-13T07:02:53Z</time>
      </trkpt>
      <trkpt lat="44.51858" lon="6.81824">
        <ele>2086.763</ele>
        <time>2017-03-13T07:03:00Z</time>
      </trkpt>
      <trkpt lat="44.51856" lon="6.81833">
        <ele>2088.533</ele>
        <time>2017-03-13T07:03:13Z</time>
      </trkpt>
      <trkpt lat="44.51854" lon="6.81839">
        <ele>2089.909</ele>
        <time>2017-03-13T07:03:22Z</time>
      </trkpt>
      <trkpt lat="44.51853" lon="6.81846">
        <ele>2091.471</ele>
        <time>2017-03-13T07:03:32Z</time>
      </trkpt>
      <trkpt lat="44.5185" lon="6.81851">
        <ele>2092.28</ele>
        <time>2017-03-13T07:03:40Z</time>
      </trkpt>
      <trkpt lat="44.51847" lon="6.81858">
        <ele>2093.286</ele>
        <time>2017-03-13T07:03:49Z</time>
      </trkpt>
      <trkpt lat="44.51844" lon="6.81864">
        <ele>2094.197</ele>
        <time>2017-03-13T07:03:58Z</time>
      </trkpt>
      <trkpt lat="44.51842" lon="6.81869">
        <ele>2094.672</ele>
        <time>2017-03-13T07:04:05Z</time>
      </trkpt>
      <trkpt lat="44.51839" lon="6.81879">
        <ele>2095.741</ele>
        <time>2017-03-13T07:04:17Z</time>
      </trkpt>
      <trkpt lat="44.51837" lon="6.81888">
        <ele>2097.061</ele>
        <time>2017-03-13T07:04:30Z</time>
      </trkpt>
      <trkpt lat="44.51835" lon="6.81893">
        <ele>2097.863</ele>
        <time>2017-03-13T07:04:37Z</time>
      </trkpt>
      <trkpt lat="44.51832" lon="6.81901">
        <ele>2098.959</ele>
        <time>2017-03-13T07:04:47Z</time>
      </trkpt>
      <trkpt lat="44.51829" lon="6.81907">
        <ele>2099.781</ele>
        <time>2017-03-13T07:04:56Z</time>
      </trkpt>
      <trkpt lat="44.51826" lon="6.81912">
        <ele>2101.297</ele>
        <time>2017-03-13T07:05:04Z</time>
      </trkpt>
      <trkpt lat="44.51821" lon="6.81922">
        <ele>2102.608</ele>
        <time>2017-03-13T07:05:18Z</time>
      </trkpt>
      <trkpt lat="44.51818" lon="6.81929">
        <ele>2103.161</ele>
        <time>2017-03-13T07:05:26Z</time>
      </trkpt>
      <trkpt lat="44.51813" lon="6.81937">
        <ele>2103.888</ele>
        <time>2017-03-13T07:05:37Z</time>
      </trkpt>
      <trkpt lat="44.51809" lon="6.81941">
        <ele>2104.642</ele>
        <time>2017-03-13T07:05:45Z</time>
      </trkpt>
      <trkpt lat="44.51807" lon="6.81947">
        <ele>2106.235</ele>
        <time>2017-03-13T07:05:53Z</time>
      </trkpt>
      <trkpt lat="44.51804" lon="6.81954">
        <ele>2107.235</ele>
        <time>2017-03-13T07:06:03Z</time>
      </trkpt>
      <trkpt lat="44.51802" lon="6.81958">
        <ele>2108.091</ele>
        <time>2017-03-13T07:06:10Z</time>
      </trkpt>
      <trkpt lat="44.51799" lon="6.81964">
        <ele>2108.54</ele>
        <time>2017-03-13T07:06:17Z</time>
      </trkpt>
      <trkpt lat="44.51795" lon="6.81974">
        <ele>2109.704</ele>
        <time>2017-03-13T07:06:29Z</time>
      </trkpt>
      <trkpt lat="44.51794" lon="6.81981">
        <ele>2111.019</ele>
        <time>2017-03-13T07:06:36Z</time>
      </trkpt>
      <trkpt lat="44.51792" lon="6.81987">
        <ele>2112.047</ele>
        <time>2017-03-13T07:06:44Z</time>
      </trkpt>
      <trkpt lat="44.51786" lon="6.81994">
        <ele>2113.559</ele>
        <time>2017-03-13T07:06:57Z</time>
      </trkpt>
      <trkpt lat="44.51782" lon="6.82">
        <ele>2114.414</ele>
        <time>2017-03-13T07:07:07Z</time>
      </trkpt>
      <trkpt lat="44.51777" lon="6.82008">
        <ele>2115.204</ele>
        <time>2017-03-13T07:07:18Z</time>
      </trkpt>
      <trkpt lat="44.51774" lon="6.82016">
        <ele>2115.988</ele>
        <time>2017-03-13T07:07:27Z</time>
      </trkpt>
      <trkpt lat="44.5177" lon="6.82025">
        <ele>2116.757</ele>
        <time>2017-03-13T07:07:37Z</time>
      </trkpt>
      <trkpt lat="44.51771" lon="6.82031">
        <ele>2117.601</ele>
        <time>2017-03-13T07:07:46Z</time>
      </trkpt>
      <trkpt lat="44.51771" lon="6.82037">
        <ele>2118.802</ele>
        <time>2017-03-13T07:07:53Z</time>
      </trkpt>
      <trkpt lat="44.51772" lon="6.82044">
        <ele>2119.792</ele>
        <time>2017-03-13T07:08:01Z</time>
      </trkpt>
      <trkpt lat="44.51772" lon="6.82048">
        <ele>2119.977</ele>
        <time>2017-03-13T07:08:12Z</time>
      </trkpt>
      <trkpt lat="44.5177" lon="6.82055">
        <ele>2120.515</ele>
        <time>2017-03-13T07:08:36Z</time>
      </trkpt>
      <trkpt lat="44.51769" lon="6.82066">
        <ele>2122.994</ele>
        <time>2017-03-13T07:08:48Z</time>
      </trkpt>
      <trkpt lat="44.5177" lon="6.82072">
        <ele>2123.708</ele>
        <time>2017-03-13T07:08:55Z</time>
      </trkpt>
      <trkpt lat="44.51768" lon="6.82082">
        <ele>2125.246</ele>
        <time>2017-03-13T07:09:06Z</time>
      </trkpt>
      <trkpt lat="44.51767" lon="6.82085">
        <ele>2126.232</ele>
        <time>2017-03-13T07:09:14Z</time>
      </trkpt>
      <trkpt lat="44.51763" lon="6.82091">
        <ele>2127.225</ele>
        <time>2017-03-13T07:09:40Z</time>
      </trkpt>
      <trkpt lat="44.51758" lon="6.82103">
        <ele>2129.965</ele>
        <time>2017-03-13T07:09:57Z</time>
      </trkpt>
      <trkpt lat="44.51751" lon="6.8211">
        <ele>2132.348</ele>
        <time>2017-03-13T07:10:12Z</time>
      </trkpt>
      <trkpt lat="44.51745" lon="6.8212">
        <ele>2135.527</ele>
        <time>2017-03-13T07:10:29Z</time>
      </trkpt>
      <trkpt lat="44.51738" lon="6.82133">
        <ele>2138.483</ele>
        <time>2017-03-13T07:10:49Z</time>
      </trkpt>
      <trkpt lat="44.51733" lon="6.82143">
        <ele>2140.791</ele>
        <time>2017-03-13T07:11:04Z</time>
      </trkpt>
      <trkpt lat="44.51729" lon="6.82152">
        <ele>2144.332</ele>
        <time>2017-03-13T07:11:22Z</time>
      </trkpt>
      <trkpt lat="44.51722" lon="6.82164">
        <ele>2147.461</ele>
        <time>2017-03-13T07:11:43Z</time>
      </trkpt>
      <trkpt lat="44.51716" lon="6.82174">
        <ele>2149.9</ele>
        <time>2017-03-13T07:12:00Z</time>
      </trkpt>
      <trkpt lat="44.5171" lon="6.8219">
        <ele>2153.089</ele>
        <time>2017-03-13T07:12:22Z</time>
      </trkpt>
      <trkpt lat="44.51707" lon="6.82201">
        <ele>2155.238</ele>
        <time>2017-03-13T07:12:36Z</time>
      </trkpt>
      <trkpt lat="44.51703" lon="6.82218">
        <ele>2157.77</ele>
        <time>2017-03-13T07:12:58Z</time>
      </trkpt>
      <trkpt lat="44.51698" lon="6.82233">
        <ele>2160.19</ele>
        <time>2017-03-13T07:13:17Z</time>
      </trkpt>
      <trkpt lat="44.51691" lon="6.82246">
        <ele>2162.253</ele>
        <time>2017-03-13T07:13:36Z</time>
      </trkpt>
      <trkpt lat="44.51687" lon="6.82257">
        <ele>2163.479</ele>
        <time>2017-03-13T07:13:50Z</time>
      </trkpt>
      <trkpt lat="44.51679" lon="6.82262">
        <ele>2165.353</ele>
        <time>2017-03-13T07:14:25Z</time>
      </trkpt>
      <trkpt lat="44.51676" lon="6.82269">
        <ele>2165.883</ele>
        <time>2017-03-13T07:14:58Z</time>
      </trkpt>
      <trkpt lat="44.51673" lon="6.82273">
        <ele>2166.877</ele>
        <time>2017-03-13T07:15:07Z</time>
      </trkpt>
      <trkpt lat="44.5167" lon="6.82279">
        <ele>2167.752</ele>
        <time>2017-03-13T07:15:31Z</time>
      </trkpt>
      <trkpt lat="44.51662" lon="6.82292">
        <ele>2169.434</ele>
        <time>2017-03-13T07:15:49Z</time>
      </trkpt>
      <trkpt lat="44.51654" lon="6.82307">
        <ele>2172.797</ele>
        <time>2017-03-13T07:16:09Z</time>
      </trkpt>
      <trkpt lat="44.51647" lon="6.82315">
        <ele>2173.934</ele>
        <time>2017-03-13T07:16:20Z</time>
      </trkpt>
      <trkpt lat="44.51642" lon="6.82323">
        <ele>2175.589</ele>
        <time>2017-03-13T07:16:32Z</time>
      </trkpt>
      <trkpt lat="44.51637" lon="6.82327">
        <ele>2176.554</ele>
        <time>2017-03-13T07:16:40Z</time>
      </trkpt>
      <trkpt lat="44.51628" lon="6.82336">
        <ele>2178.027</ele>
        <time>2017-03-13T07:16:55Z</time>
      </trkpt>
      <trkpt lat="44.51619" lon="6.8235">
        <ele>2179.632</ele>
        <time>2017-03-13T07:17:14Z</time>
      </trkpt>
      <trkpt lat="44.51611" lon="6.8237">
        <ele>2182.445</ele>
        <time>2017-03-13T07:17:41Z</time>
      </trkpt>
      <trkpt lat="44.51605" lon="6.82381">
        <ele>2184.729</ele>
        <time>2017-03-13T07:18:21Z</time>
      </trkpt>
      <trkpt lat="44.51596" lon="6.82395">
        <ele>2187.433</ele>
        <time>2017-03-13T07:18:42Z</time>
      </trkpt>
      <trkpt lat="44.51585" lon="6.82409">
        <ele>2189.497</ele>
        <time>2017-03-13T07:19:02Z</time>
      </trkpt>
      <trkpt lat="44.51575" lon="6.8242">
        <ele>2191.661</ele>
        <time>2017-03-13T07:19:22Z</time>
      </trkpt>
      <trkpt lat="44.51565" lon="6.82432">
        <ele>2194.202</ele>
        <time>2017-03-13T07:19:40Z</time>
      </trkpt>
      <trkpt lat="44.51558" lon="6.8245">
        <ele>2197.114</ele>
        <time>2017-03-13T07:20:03Z</time>
      </trkpt>
      <trkpt lat="44.51554" lon="6.82465">
        <ele>2200.374</ele>
        <time>2017-03-13T07:20:22Z</time>
      </trkpt>
      <trkpt lat="44.51549" lon="6.82484">
        <ele>2203.392</ele>
        <time>2017-03-13T07:20:47Z</time>
      </trkpt>
      <trkpt lat="44.51543" lon="6.825">
        <ele>2204.771</ele>
        <time>2017-03-13T07:21:07Z</time>
      </trkpt>
      <trkpt lat="44.51536" lon="6.82518">
        <ele>2206.712</ele>
        <time>2017-03-13T07:21:30Z</time>
      </trkpt>
      <trkpt lat="44.5153" lon="6.82533">
        <ele>2207.908</ele>
        <time>2017-03-13T07:21:46Z</time>
      </trkpt>
      <trkpt lat="44.51522" lon="6.82553">
        <ele>2208.62</ele>
        <time>2017-03-13T07:22:07Z</time>
      </trkpt>
      <trkpt lat="44.51515" lon="6.82574">
        <ele>2210.502</ele>
        <time>2017-03-13T07:22:29Z</time>
      </trkpt>
      <trkpt lat="44.51507" lon="6.82597">
        <ele>2212.181</ele>
        <time>2017-03-13T07:22:54Z</time>
      </trkpt>
      <trkpt lat="44.515" lon="6.82614">
        <ele>2213.906</ele>
        <time>2017-03-13T07:23:11Z</time>
      </trkpt>
      <trkpt lat="44.51491" lon="6.82628">
        <ele>2215.758</ele>
        <time>2017-03-13T07:23:30Z</time>
      </trkpt>
      <trkpt lat="44.51484" lon="6.82648">
        <ele>2217.062</ele>
        <time>2017-03-13T07:23:50Z</time>
      </trkpt>
      <trkpt lat="44.51476" lon="6.82668">
        <ele>2218.64</ele>
        <time>2017-03-13T07:24:11Z</time>
      </trkpt>
      <trkpt lat="44.51468" lon="6.82688">
        <ele>2220.912</ele>
        <time>2017-03-13T07:24:34Z</time>
      </trkpt>
      <trkpt lat="44.5146" lon="6.82705">
        <ele>2222.569</ele>
        <time>2017-03-13T07:24:55Z</time>
      </trkpt>
      <trkpt lat="44.51452" lon="6.82719">
        <ele>2223.969</ele>
        <time>2017-03-13T07:25:15Z</time>
      </trkpt>
      <trkpt lat="44.51444" lon="6.82736">
        <ele>2226.072</ele>
        <time>2017-03-13T07:25:34Z</time>
      </trkpt>
      <trkpt lat="44.51434" lon="6.82757">
        <ele>2227.091</ele>
        <time>2017-03-13T07:25:58Z</time>
      </trkpt>
      <trkpt lat="44.51428" lon="6.82776">
        <ele>2228.436</ele>
        <time>2017-03-13T07:26:18Z</time>
      </trkpt>
      <trkpt lat="44.51424" lon="6.8279">
        <ele>2229.688</ele>
        <time>2017-03-13T07:26:37Z</time>
      </trkpt>
      <trkpt lat="44.5142" lon="6.82806">
        <ele>2230.403</ele>
        <time>2017-03-13T07:26:52Z</time>
      </trkpt>
      <trkpt lat="44.51417" lon="6.82823">
        <ele>2231.386</ele>
        <time>2017-03-13T07:27:10Z</time>
      </trkpt>
      <trkpt lat="44.5141" lon="6.8285">
        <ele>2233.958</ele>
        <time>2017-03-13T07:27:39Z</time>
      </trkpt>
      <trkpt lat="44.51405" lon="6.82858">
        <ele>2235.379</ele>
        <time>2017-03-13T07:27:53Z</time>
      </trkpt>
      <trkpt lat="44.51396" lon="6.82867">
        <ele>2237.163</ele>
        <time>2017-03-13T07:28:07Z</time>
      </trkpt>
      <trkpt lat="44.51389" lon="6.82875">
        <ele>2238.633</ele>
        <time>2017-03-13T07:28:20Z</time>
      </trkpt>
      <trkpt lat="44.51377" lon="6.82892">
        <ele>2239.711</ele>
        <time>2017-03-13T07:28:43Z</time>
      </trkpt>
      <trkpt lat="44.51367" lon="6.82906">
        <ele>2239.055</ele>
        <time>2017-03-13T07:29:01Z</time>
      </trkpt>
      <trkpt lat="44.51362" lon="6.82912">
        <ele>2239.358</ele>
        <time>2017-03-13T07:29:10Z</time>
      </trkpt>
      <trkpt lat="44.51354" lon="6.82928">
        <ele>2239.676</ele>
        <time>2017-03-13T07:29:26Z</time>
      </trkpt>
      <trkpt lat="44.51345" lon="6.82945">
        <ele>2240.835</ele>
        <time>2017-03-13T07:29:44Z</time>
      </trkpt>
      <trkpt lat="44.51339" lon="6.82961">
        <ele>2241.76</ele>
        <time>2017-03-13T07:30:01Z</time>
      </trkpt>
      <trkpt lat="44.51331" lon="6.8298">
        <ele>2243.421</ele>
        <time>2017-03-13T07:30:22Z</time>
      </trkpt>
      <trkpt lat="44.51325" lon="6.82993">
        <ele>2244.103</ele>
        <time>2017-03-13T07:30:35Z</time>
      </trkpt>
      <trkpt lat="44.51322" lon="6.83007">
        <ele>2244.497</ele>
        <time>2017-03-13T07:30:49Z</time>
      </trkpt>
      <trkpt lat="44.51314" lon="6.83026">
        <ele>2246.292</ele>
        <time>2017-03-13T07:31:10Z</time>
      </trkpt>
      <trkpt lat="44.51306" lon="6.83039">
        <ele>2247.46</ele>
        <time>2017-03-13T07:31:27Z</time>
      </trkpt>
      <trkpt lat="44.513" lon="6.83058">
        <ele>2249.525</ele>
        <time>2017-03-13T07:31:48Z</time>
      </trkpt>
      <trkpt lat="44.51296" lon="6.83071">
        <ele>2250.679</ele>
        <time>2017-03-13T07:32:03Z</time>
      </trkpt>
      <trkpt lat="44.51289" lon="6.83091">
        <ele>2252.338</ele>
        <time>2017-03-13T07:32:24Z</time>
      </trkpt>
      <trkpt lat="44.51276" lon="6.8312">
        <ele>2254.66</ele>
        <time>2017-03-13T07:32:58Z</time>
      </trkpt>
      <trkpt lat="44.51268" lon="6.83135">
        <ele>2256.8</ele>
        <time>2017-03-13T07:33:19Z</time>
      </trkpt>
      <trkpt lat="44.51265" lon="6.83144">
        <ele>2257.468</ele>
        <time>2017-03-13T07:33:29Z</time>
      </trkpt>
      <trkpt lat="44.51256" lon="6.83168">
        <ele>2259.506</ele>
        <time>2017-03-13T07:33:56Z</time>
      </trkpt>
      <trkpt lat="44.51245" lon="6.83195">
        <ele>2259.656</ele>
        <time>2017-03-13T07:34:20Z</time>
      </trkpt>
      <trkpt lat="44.51237" lon="6.8321">
        <ele>2260.752</ele>
        <time>2017-03-13T07:34:38Z</time>
      </trkpt>
      <trkpt lat="44.51235" lon="6.83222">
        <ele>2262.493</ele>
        <time>2017-03-13T07:34:52Z</time>
      </trkpt>
      <trkpt lat="44.5123" lon="6.83239">
        <ele>2264.464</ele>
        <time>2017-03-13T07:35:12Z</time>
      </trkpt>
      <trkpt lat="44.51225" lon="6.83261">
        <ele>2267.589</ele>
        <time>2017-03-13T07:35:38Z</time>
      </trkpt>
      <trkpt lat="44.51221" lon="6.83276">
        <ele>2270.624</ele>
        <time>2017-03-13T07:35:57Z</time>
      </trkpt>
      <trkpt lat="44.51216" lon="6.83289">
        <ele>2272.777</ele>
        <time>2017-03-13T07:36:19Z</time>
      </trkpt>
      <trkpt lat="44.51214" lon="6.83297">
        <ele>2273.551</ele>
        <time>2017-03-13T07:36:36Z</time>
      </trkpt>
      <trkpt lat="44.51206" lon="6.8332">
        <ele>2275.251</ele>
        <time>2017-03-13T07:36:59Z</time>
      </trkpt>
      <trkpt lat="44.512" lon="6.83337">
        <ele>2275.94</ele>
        <time>2017-03-13T07:37:17Z</time>
      </trkpt>
      <trkpt lat="44.51196" lon="6.83351">
        <ele>2275.399</ele>
        <time>2017-03-13T07:37:29Z</time>
      </trkpt>
      <trkpt lat="44.51192" lon="6.83366">
        <ele>2276.98</ele>
        <time>2017-03-13T07:37:45Z</time>
      </trkpt>
      <trkpt lat="44.51184" lon="6.83383">
        <ele>2278.986</ele>
        <time>2017-03-13T07:38:04Z</time>
      </trkpt>
      <trkpt lat="44.51173" lon="6.83403">
        <ele>2281.329</ele>
        <time>2017-03-13T07:38:29Z</time>
      </trkpt>
      <trkpt lat="44.51163" lon="6.83419">
        <ele>2283.981</ele>
        <time>2017-03-13T07:38:51Z</time>
      </trkpt>
      <trkpt lat="44.51162" lon="6.83421">
        <ele>2283.823</ele>
        <time>2017-03-13T07:39:02Z</time>
      </trkpt>
      <trkpt lat="44.51158" lon="6.83427">
        <ele>2284.404</ele>
        <time>2017-03-13T07:39:32Z</time>
      </trkpt>
      <trkpt lat="44.51148" lon="6.83442">
        <ele>2286.021</ele>
        <time>2017-03-13T07:39:50Z</time>
      </trkpt>
      <trkpt lat="44.51142" lon="6.83457">
        <ele>2287.501</ele>
        <time>2017-03-13T07:40:05Z</time>
      </trkpt>
      <trkpt lat="44.51133" lon="6.83481">
        <ele>2290.059</ele>
        <time>2017-03-13T07:40:32Z</time>
      </trkpt>
      <trkpt lat="44.51128" lon="6.83492">
        <ele>2292.318</ele>
        <time>2017-03-13T07:40:49Z</time>
      </trkpt>
      <trkpt lat="44.51124" lon="6.83505">
        <ele>2294.72</ele>
        <time>2017-03-13T07:41:11Z</time>
      </trkpt>
      <trkpt lat="44.51122" lon="6.83519">
        <ele>2297.869</ele>
        <time>2017-03-13T07:41:30Z</time>
      </trkpt>
      <trkpt lat="44.51116" lon="6.8353">
        <ele>2300.417</ele>
        <time>2017-03-13T07:41:46Z</time>
      </trkpt>
      <trkpt lat="44.51109" lon="6.83542">
        <ele>2302.246</ele>
        <time>2017-03-13T07:42:02Z</time>
      </trkpt>
      <trkpt lat="44.51099" lon="6.83562">
        <ele>2305.25</ele>
        <time>2017-03-13T07:42:28Z</time>
      </trkpt>
      <trkpt lat="44.51095" lon="6.83576">
        <ele>2308.17</ele>
        <time>2017-03-13T07:42:45Z</time>
      </trkpt>
      <trkpt lat="44.51085" lon="6.83582">
        <ele>2309.954</ele>
        <time>2017-03-13T07:56:14Z</time>
      </trkpt>
      <trkpt lat="44.51085" lon="6.83595">
        <ele>2312.771</ele>
        <time>2017-03-13T07:56:39Z</time>
      </trkpt>
      <trkpt lat="44.51084" lon="6.83607">
        <ele>2314.408</ele>
        <time>2017-03-13T07:56:52Z</time>
      </trkpt>
      <trkpt lat="44.51085" lon="6.83611">
        <ele>2317.189</ele>
        <time>2017-03-13T07:59:38Z</time>
      </trkpt>
      <trkpt lat="44.51088" lon="6.83618">
        <ele>2318.472</ele>
        <time>2017-03-13T08:00:22Z</time>
      </trkpt>
      <trkpt lat="44.51092" lon="6.83628">
        <ele>2320.959</ele>
        <time>2017-03-13T08:00:36Z</time>
      </trkpt>
      <trkpt lat="44.51097" lon="6.83631">
        <ele>2323.474</ele>
        <time>2017-03-13T08:00:48Z</time>
      </trkpt>
      <trkpt lat="44.51103" lon="6.83629">
        <ele>2326.795</ele>
        <time>2017-03-13T08:01:02Z</time>
      </trkpt>
      <trkpt lat="44.51108" lon="6.83629">
        <ele>2328.718</ele>
        <time>2017-03-13T08:01:11Z</time>
      </trkpt>
      <trkpt lat="44.51111" lon="6.83638">
        <ele>2330.43</ele>
        <time>2017-03-13T08:01:22Z</time>
      </trkpt>
      <trkpt lat="44.51113" lon="6.83653">
        <ele>2333.612</ele>
        <time>2017-03-13T08:01:41Z</time>
      </trkpt>
      <trkpt lat="44.51116" lon="6.8366">
        <ele>2335.259</ele>
        <time>2017-03-13T08:01:56Z</time>
      </trkpt>
      <trkpt lat="44.51116" lon="6.83666">
        <ele>2335.62</ele>
        <time>2017-03-13T08:02:16Z</time>
      </trkpt>
      <trkpt lat="44.51125" lon="6.8367">
        <ele>2338.388</ele>
        <time>2017-03-13T08:03:39Z</time>
      </trkpt>
      <trkpt lat="44.51134" lon="6.83676">
        <ele>2341.624</ele>
        <time>2017-03-13T08:03:55Z</time>
      </trkpt>
      <trkpt lat="44.51142" lon="6.8369">
        <ele>2344.618</ele>
        <time>2017-03-13T08:04:15Z</time>
      </trkpt>
      <trkpt lat="44.51144" lon="6.83699">
        <ele>2346.91</ele>
        <time>2017-03-13T08:04:28Z</time>
      </trkpt>
      <trkpt lat="44.51145" lon="6.83706">
        <ele>2348.85</ele>
        <time>2017-03-13T08:04:41Z</time>
      </trkpt>
      <trkpt lat="44.51147" lon="6.83715">
        <ele>2351.094</ele>
        <time>2017-03-13T08:04:54Z</time>
      </trkpt>
      <trkpt lat="44.51149" lon="6.83724">
        <ele>2353.414</ele>
        <time>2017-03-13T08:05:10Z</time>
      </trkpt>
      <trkpt lat="44.51151" lon="6.83731">
        <ele>2355.858</ele>
        <time>2017-03-13T08:05:23Z</time>
      </trkpt>
      <trkpt lat="44.51153" lon="6.83738">
        <ele>2357.528</ele>
        <time>2017-03-13T08:05:35Z</time>
      </trkpt>
      <trkpt lat="44.51158" lon="6.83744">
        <ele>2360.269</ele>
        <time>2017-03-13T08:05:49Z</time>
      </trkpt>
      <trkpt lat="44.51163" lon="6.83747">
        <ele>2361.925</ele>
        <time>2017-03-13T08:06:01Z</time>
      </trkpt>
      <trkpt lat="44.51168" lon="6.83758">
        <ele>2362.861</ele>
        <time>2017-03-13T08:06:15Z</time>
      </trkpt>
      <trkpt lat="44.51171" lon="6.83768">
        <ele>2365.933</ele>
        <time>2017-03-13T08:06:31Z</time>
      </trkpt>
      <trkpt lat="44.51176" lon="6.83771">
        <ele>2368.345</ele>
        <time>2017-03-13T08:06:44Z</time>
      </trkpt>
      <trkpt lat="44.51184" lon="6.83773">
        <ele>2371.738</ele>
        <time>2017-03-13T08:07:01Z</time>
      </trkpt>
      <trkpt lat="44.51191" lon="6.83774">
        <ele>2373.91</ele>
        <time>2017-03-13T08:07:18Z</time>
      </trkpt>
      <trkpt lat="44.51198" lon="6.83772">
        <ele>2376.36</ele>
        <time>2017-03-13T08:08:13Z</time>
      </trkpt>
      <trkpt lat="44.51207" lon="6.83772">
        <ele>2379.523</ele>
        <time>2017-03-13T08:08:31Z</time>
      </trkpt>
      <trkpt lat="44.51218" lon="6.83773">
        <ele>2382.635</ele>
        <time>2017-03-13T08:08:50Z</time>
      </trkpt>
      <trkpt lat="44.51221" lon="6.83773">
        <ele>2384.037</ele>
        <time>2017-03-13T08:08:56Z</time>
      </trkpt>
      <trkpt lat="44.5123" lon="6.83771">
        <ele>2387.222</ele>
        <time>2017-03-13T08:09:15Z</time>
      </trkpt>
      <trkpt lat="44.51234" lon="6.83768">
        <ele>2389.156</ele>
        <time>2017-03-13T08:09:26Z</time>
      </trkpt>
      <trkpt lat="44.51238" lon="6.83767">
        <ele>2390.095</ele>
        <time>2017-03-13T08:09:41Z</time>
      </trkpt>
      <trkpt lat="44.51243" lon="6.83777">
        <ele>2392.236</ele>
        <time>2017-03-13T08:09:56Z</time>
      </trkpt>
      <trkpt lat="44.51249" lon="6.83787">
        <ele>2395.075</ele>
        <time>2017-03-13T08:10:12Z</time>
      </trkpt>
      <trkpt lat="44.51253" lon="6.83796">
        <ele>2398.206</ele>
        <time>2017-03-13T08:10:29Z</time>
      </trkpt>
      <trkpt lat="44.51256" lon="6.83793">
        <ele>2399.78</ele>
        <time>2017-03-13T08:10:38Z</time>
      </trkpt>
      <trkpt lat="44.51261" lon="6.83786">
        <ele>2402.757</ele>
        <time>2017-03-13T08:11:03Z</time>
      </trkpt>
      <trkpt lat="44.51263" lon="6.8378">
        <ele>2404.403</ele>
        <time>2017-03-13T08:11:13Z</time>
      </trkpt>
      <trkpt lat="44.51266" lon="6.83783">
        <ele>2405.687</ele>
        <time>2017-03-13T08:11:55Z</time>
      </trkpt>
      <trkpt lat="44.51268" lon="6.83787">
        <ele>2406.387</ele>
        <time>2017-03-13T08:12:20Z</time>
      </trkpt>
      <trkpt lat="44.5127" lon="6.83794">
        <ele>2407.201</ele>
        <time>2017-03-13T08:12:29Z</time>
      </trkpt>
      <trkpt lat="44.51272" lon="6.838">
        <ele>2408.487</ele>
        <time>2017-03-13T08:12:38Z</time>
      </trkpt>
      <trkpt lat="44.51273" lon="6.83807">
        <ele>2410.014</ele>
        <time>2017-03-13T08:12:48Z</time>
      </trkpt>
      <trkpt lat="44.51274" lon="6.8381">
        <ele>2411.573</ele>
        <time>2017-03-13T08:12:52Z</time>
      </trkpt>
      <trkpt lat="44.51274" lon="6.83819">
        <ele>2413.544</ele>
        <time>2017-03-13T08:13:05Z</time>
      </trkpt>
      <trkpt lat="44.51273" lon="6.83829">
        <ele>2415.429</ele>
        <time>2017-03-13T08:13:17Z</time>
      </trkpt>
      <trkpt lat="44.51274" lon="6.83839">
        <ele>2417.524</ele>
        <time>2017-03-13T08:13:30Z</time>
      </trkpt>
      <trkpt lat="44.51274" lon="6.83843">
        <ele>2418.806</ele>
        <time>2017-03-13T08:13:41Z</time>
      </trkpt>
      <trkpt lat="44.51273" lon="6.83848">
        <ele>2420.2</ele>
        <time>2017-03-13T08:13:55Z</time>
      </trkpt>
      <trkpt lat="44.51277" lon="6.83852">
        <ele>2422.282</ele>
        <time>2017-03-13T08:14:08Z</time>
      </trkpt>
      <trkpt lat="44.51284" lon="6.8385">
        <ele>2425.086</ele>
        <time>2017-03-13T08:14:24Z</time>
      </trkpt>
      <trkpt lat="44.51288" lon="6.83854">
        <ele>2427.651</ele>
        <time>2017-03-13T08:14:40Z</time>
      </trkpt>
      <trkpt lat="44.5129" lon="6.83862">
        <ele>2429.502</ele>
        <time>2017-03-13T08:14:52Z</time>
      </trkpt>
      <trkpt lat="44.51294" lon="6.83862">
        <ele>2431.982</ele>
        <time>2017-03-13T08:15:04Z</time>
      </trkpt>
      <trkpt lat="44.513" lon="6.83858">
        <ele>2434.142</ele>
        <time>2017-03-13T08:15:17Z</time>
      </trkpt>
      <trkpt lat="44.51308" lon="6.83854">
        <ele>2436.754</ele>
        <time>2017-03-13T08:15:35Z</time>
      </trkpt>
      <trkpt lat="44.51317" lon="6.83854">
        <ele>2438.731</ele>
        <time>2017-03-13T08:15:53Z</time>
      </trkpt>
      <trkpt lat="44.51323" lon="6.83854">
        <ele>2440.89</ele>
        <time>2017-03-13T08:16:06Z</time>
      </trkpt>
      <trkpt lat="44.5133" lon="6.83852">
        <ele>2442.146</ele>
        <time>2017-03-13T08:16:20Z</time>
      </trkpt>
      <trkpt lat="44.51337" lon="6.8385">
        <ele>2444.817</ele>
        <time>2017-03-13T08:16:33Z</time>
      </trkpt>
      <trkpt lat="44.51339" lon="6.83853">
        <ele>2445.121</ele>
        <time>2017-03-13T08:16:41Z</time>
      </trkpt>
      <trkpt lat="44.51339" lon="6.8386">
        <ele>2447.493</ele>
        <time>2017-03-13T08:16:56Z</time>
      </trkpt>
      <trkpt lat="44.51339" lon="6.83864">
        <ele>2448.488</ele>
        <time>2017-03-13T08:17:44Z</time>
      </trkpt>
      <trkpt lat="44.51342" lon="6.83868">
        <ele>2451.18</ele>
        <time>2017-03-13T08:17:54Z</time>
      </trkpt>
      <trkpt lat="44.51349" lon="6.83872">
        <ele>2452.93</ele>
        <time>2017-03-13T08:18:09Z</time>
      </trkpt>
      <trkpt lat="44.51351" lon="6.83879">
        <ele>2454.841</ele>
        <time>2017-03-13T08:18:19Z</time>
      </trkpt>
      <trkpt lat="44.51356" lon="6.83885">
        <ele>2457.285</ele>
        <time>2017-03-13T08:18:33Z</time>
      </trkpt>
      <trkpt lat="44.51363" lon="6.83888">
        <ele>2459.539</ele>
        <time>2017-03-13T08:18:48Z</time>
      </trkpt>
      <trkpt lat="44.51366" lon="6.83895">
        <ele>2461.819</ele>
        <time>2017-03-13T08:19:02Z</time>
      </trkpt>
      <trkpt lat="44.5137" lon="6.83904">
        <ele>2465.074</ele>
        <time>2017-03-13T08:19:17Z</time>
      </trkpt>
      <trkpt lat="44.51372" lon="6.83907">
        <ele>2466.433</ele>
        <time>2017-03-13T08:19:31Z</time>
      </trkpt>
      <trkpt lat="44.51377" lon="6.83911">
        <ele>2467.603</ele>
        <time>2017-03-13T08:20:29Z</time>
      </trkpt>
      <trkpt lat="44.51386" lon="6.83914">
        <ele>2470.668</ele>
        <time>2017-03-13T08:20:45Z</time>
      </trkpt>
      <trkpt lat="44.51396" lon="6.83918">
        <ele>2473.971</ele>
        <time>2017-03-13T08:21:04Z</time>
      </trkpt>
      <trkpt lat="44.51407" lon="6.83922">
        <ele>2476.796</ele>
        <time>2017-03-13T08:21:24Z</time>
      </trkpt>
      <trkpt lat="44.51413" lon="6.83924">
        <ele>2478.469</ele>
        <time>2017-03-13T08:21:35Z</time>
      </trkpt>
      <trkpt lat="44.51423" lon="6.83926">
        <ele>2480.515</ele>
        <time>2017-03-13T08:21:54Z</time>
      </trkpt>
      <trkpt lat="44.51431" lon="6.83929">
        <ele>2482.575</ele>
        <time>2017-03-13T08:22:09Z</time>
      </trkpt>
      <trkpt lat="44.51443" lon="6.83929">
        <ele>2485.013</ele>
        <time>2017-03-13T08:22:33Z</time>
      </trkpt>
      <trkpt lat="44.51454" lon="6.83933">
        <ele>2487.707</ele>
        <time>2017-03-13T08:22:54Z</time>
      </trkpt>
      <trkpt lat="44.51465" lon="6.83938">
        <ele>2490.608</ele>
        <time>2017-03-13T08:23:16Z</time>
      </trkpt>
      <trkpt lat="44.51475" lon="6.8394">
        <ele>2492.664</ele>
        <time>2017-03-13T08:23:36Z</time>
      </trkpt>
      <trkpt lat="44.51486" lon="6.83943">
        <ele>2495.658</ele>
        <time>2017-03-13T08:23:58Z</time>
      </trkpt>
      <trkpt lat="44.51493" lon="6.83941">
        <ele>2496.634</ele>
        <time>2017-03-13T08:24:11Z</time>
      </trkpt>
      <trkpt lat="44.51506" lon="6.8394">
        <ele>2499.765</ele>
        <time>2017-03-13T08:24:34Z</time>
      </trkpt>
      <trkpt lat="44.51516" lon="6.83944">
        <ele>2501.984</ele>
        <time>2017-03-13T08:24:53Z</time>
      </trkpt>
      <trkpt lat="44.51521" lon="6.83945">
        <ele>2503.264</ele>
        <time>2017-03-13T08:25:02Z</time>
      </trkpt>
      <trkpt lat="44.51527" lon="6.83945">
        <ele>2504.214</ele>
        <time>2017-03-13T08:25:18Z</time>
      </trkpt>
      <trkpt lat="44.51531" lon="6.83948">
        <ele>2504.773</ele>
        <time>2017-03-13T08:25:37Z</time>
      </trkpt>
      <trkpt lat="44.5154" lon="6.83954">
        <ele>2506.344</ele>
        <time>2017-03-13T08:25:53Z</time>
      </trkpt>
      <trkpt lat="44.51551" lon="6.83962">
        <ele>2508.663</ele>
        <time>2017-03-13T08:26:13Z</time>
      </trkpt>
      <trkpt lat="44.5156" lon="6.83967">
        <ele>2511.186</ele>
        <time>2017-03-13T08:26:31Z</time>
      </trkpt>
      <trkpt lat="44.51569" lon="6.83974">
        <ele>2513.256</ele>
        <time>2017-03-13T08:26:47Z</time>
      </trkpt>
      <trkpt lat="44.51583" lon="6.83981">
        <ele>2514.995</ele>
        <time>2017-03-13T08:27:09Z</time>
      </trkpt>
      <trkpt lat="44.51595" lon="6.83981">
        <ele>2516.318</ele>
        <time>2017-03-13T08:27:26Z</time>
      </trkpt>
      <trkpt lat="44.51605" lon="6.8398">
        <ele>2518.951</ele>
        <time>2017-03-13T08:27:45Z</time>
      </trkpt>
      <trkpt lat="44.51615" lon="6.83988">
        <ele>2520.867</ele>
        <time>2017-03-13T08:28:03Z</time>
      </trkpt>
      <trkpt lat="44.51618" lon="6.83995">
        <ele>2522.326</ele>
        <time>2017-03-13T08:28:16Z</time>
      </trkpt>
      <trkpt lat="44.51623" lon="6.83998">
        <ele>2523.3</ele>
        <time>2017-03-13T08:28:29Z</time>
      </trkpt>
      <trkpt lat="44.51627" lon="6.84001">
        <ele>2523.449</ele>
        <time>2017-03-13T08:28:55Z</time>
      </trkpt>
      <trkpt lat="44.51641" lon="6.8402">
        <ele>2520.842</ele>
        <time>2017-03-13T08:29:10Z</time>
      </trkpt>
      <trkpt lat="44.51648" lon="6.84031">
        <ele>2521.168</ele>
        <time>2017-03-13T08:29:21Z</time>
      </trkpt>
      <trkpt lat="44.51655" lon="6.84045">
        <ele>2521.225</ele>
        <time>2017-03-13T08:29:36Z</time>
      </trkpt>
      <trkpt lat="44.51664" lon="6.84059">
        <ele>2521.398</ele>
        <time>2017-03-13T08:29:51Z</time>
      </trkpt>
      <trkpt lat="44.51672" lon="6.84074">
        <ele>2521.602</ele>
        <time>2017-03-13T08:30:04Z</time>
      </trkpt>
      <trkpt lat="44.51677" lon="6.84082">
        <ele>2520.565</ele>
        <time>2017-03-13T08:30:15Z</time>
      </trkpt>
      <trkpt lat="44.51681" lon="6.84086">
        <ele>2520.982</ele>
        <time>2017-03-13T08:30:37Z</time>
      </trkpt>
      <trkpt lat="44.51689" lon="6.84098">
        <ele>2521.84</ele>
        <time>2017-03-13T08:30:50Z</time>
      </trkpt>
      <trkpt lat="44.51698" lon="6.84115">
        <ele>2522.628</ele>
        <time>2017-03-13T08:31:11Z</time>
      </trkpt>
      <trkpt lat="44.51704" lon="6.84119">
        <ele>2522.245</ele>
        <time>2017-03-13T08:32:31Z</time>
      </trkpt>
      <trkpt lat="44.51711" lon="6.8413">
        <ele>2523.09</ele>
        <time>2017-03-13T08:32:45Z</time>
      </trkpt>
      <trkpt lat="44.51715" lon="6.84134">
        <ele>2524.103</ele>
        <time>2017-03-13T08:32:53Z</time>
      </trkpt>
      <trkpt lat="44.51721" lon="6.84144">
        <ele>2526.056</ele>
        <time>2017-03-13T08:33:07Z</time>
      </trkpt>
      <trkpt lat="44.51728" lon="6.84147">
        <ele>2527.896</ele>
        <time>2017-03-13T08:33:20Z</time>
      </trkpt>
      <trkpt lat="44.51738" lon="6.84148">
        <ele>2530.624</ele>
        <time>2017-03-13T08:33:38Z</time>
      </trkpt>
      <trkpt lat="44.51744" lon="6.84148">
        <ele>2532.242</ele>
        <time>2017-03-13T08:33:50Z</time>
      </trkpt>
      <trkpt lat="44.51751" lon="6.84149">
        <ele>2534.421</ele>
        <time>2017-03-13T08:34:01Z</time>
      </trkpt>
      <trkpt lat="44.51761" lon="6.84153">
        <ele>2536.9</ele>
        <time>2017-03-13T08:34:21Z</time>
      </trkpt>
      <trkpt lat="44.51768" lon="6.84157">
        <ele>2539.007</ele>
        <time>2017-03-13T08:34:38Z</time>
      </trkpt>
      <trkpt lat="44.51775" lon="6.84162">
        <ele>2541.145</ele>
        <time>2017-03-13T08:34:54Z</time>
      </trkpt>
      <trkpt lat="44.51782" lon="6.84167">
        <ele>2543.545</ele>
        <time>2017-03-13T08:35:12Z</time>
      </trkpt>
      <trkpt lat="44.51791" lon="6.84173">
        <ele>2545.772</ele>
        <time>2017-03-13T08:35:31Z</time>
      </trkpt>
      <trkpt lat="44.51803" lon="6.84181">
        <ele>2548.392</ele>
        <time>2017-03-13T08:35:56Z</time>
      </trkpt>
      <trkpt lat="44.51814" lon="6.84188">
        <ele>2549.619</ele>
        <time>2017-03-13T08:36:15Z</time>
      </trkpt>
      <trkpt lat="44.51828" lon="6.84195">
        <ele>2552.303</ele>
        <time>2017-03-13T08:36:41Z</time>
      </trkpt>
      <trkpt lat="44.51838" lon="6.84198">
        <ele>2553.407</ele>
        <time>2017-03-13T08:36:57Z</time>
      </trkpt>
      <trkpt lat="44.5185" lon="6.84201">
        <ele>2556.458</ele>
        <time>2017-03-13T08:37:18Z</time>
      </trkpt>
      <trkpt lat="44.51857" lon="6.84203">
        <ele>2558.559</ele>
        <time>2017-03-13T08:37:34Z</time>
      </trkpt>
      <trkpt lat="44.51868" lon="6.84203">
        <ele>2561.536</ele>
        <time>2017-03-13T08:37:55Z</time>
      </trkpt>
      <trkpt lat="44.51879" lon="6.84201">
        <ele>2563.989</ele>
        <time>2017-03-13T08:38:16Z</time>
      </trkpt>
      <trkpt lat="44.51884" lon="6.84199">
        <ele>2565.259</ele>
        <time>2017-03-13T08:38:26Z</time>
      </trkpt>
      <trkpt lat="44.51892" lon="6.842">
        <ele>2567.206</ele>
        <time>2017-03-13T08:38:40Z</time>
      </trkpt>
      <trkpt lat="44.51897" lon="6.84201">
        <ele>2568.366</ele>
        <time>2017-03-13T08:38:51Z</time>
      </trkpt>
      <trkpt lat="44.51903" lon="6.84204">
        <ele>2569.937</ele>
        <time>2017-03-13T08:39:04Z</time>
      </trkpt>
      <trkpt lat="44.51909" lon="6.84205">
        <ele>2571.861</ele>
        <time>2017-03-13T08:39:17Z</time>
      </trkpt>
      <trkpt lat="44.51915" lon="6.84207">
        <ele>2573.367</ele>
        <time>2017-03-13T08:39:30Z</time>
      </trkpt>
      <trkpt lat="44.51921" lon="6.84208">
        <ele>2575.183</ele>
        <time>2017-03-13T08:39:42Z</time>
      </trkpt>
      <trkpt lat="44.5193" lon="6.84212">
        <ele>2577.456</ele>
        <time>2017-03-13T08:40:02Z</time>
      </trkpt>
      <trkpt lat="44.5194" lon="6.84214">
        <ele>2580.66</ele>
        <time>2017-03-13T08:40:24Z</time>
      </trkpt>
      <trkpt lat="44.51945" lon="6.84217">
        <ele>2582.013</ele>
        <time>2017-03-13T08:40:34Z</time>
      </trkpt>
      <trkpt lat="44.51952" lon="6.84222">
        <ele>2583.96</ele>
        <time>2017-03-13T08:40:50Z</time>
      </trkpt>
      <trkpt lat="44.51957" lon="6.84227">
        <ele>2585.572</ele>
        <time>2017-03-13T08:41:02Z</time>
      </trkpt>
      <trkpt lat="44.5196" lon="6.84231">
        <ele>2587.081</ele>
        <time>2017-03-13T08:41:12Z</time>
      </trkpt>
      <trkpt lat="44.51966" lon="6.84236">
        <ele>2589.789</ele>
        <time>2017-03-13T08:41:28Z</time>
      </trkpt>
      <trkpt lat="44.5197" lon="6.84233">
        <ele>2591.457</ele>
        <time>2017-03-13T08:41:39Z</time>
      </trkpt>
      <trkpt lat="44.51975" lon="6.8423">
        <ele>2593.286</ele>
        <time>2017-03-13T08:41:52Z</time>
      </trkpt>
      <trkpt lat="44.51979" lon="6.84229">
        <ele>2593.887</ele>
        <time>2017-03-13T08:42:25Z</time>
      </trkpt>
      <trkpt lat="44.5199" lon="6.84233">
        <ele>2596.652</ele>
        <time>2017-03-13T08:42:42Z</time>
      </trkpt>
      <trkpt lat="44.52004" lon="6.84235">
        <ele>2598.758</ele>
        <time>2017-03-13T08:43:03Z</time>
      </trkpt>
      <trkpt lat="44.52013" lon="6.84235">
        <ele>2599.777</ele>
        <time>2017-03-13T08:43:18Z</time>
      </trkpt>
      <trkpt lat="44.5202" lon="6.84227">
        <ele>2601.739</ele>
        <time>2017-03-13T08:43:31Z</time>
      </trkpt>
      <trkpt lat="44.52027" lon="6.8422">
        <ele>2603.844</ele>
        <time>2017-03-13T08:43:45Z</time>
      </trkpt>
      <trkpt lat="44.52035" lon="6.84221">
        <ele>2606.537</ele>
        <time>2017-03-13T08:44:00Z</time>
      </trkpt>
      <trkpt lat="44.5204" lon="6.84226">
        <ele>2609.115</ele>
        <time>2017-03-13T08:44:15Z</time>
      </trkpt>
      <trkpt lat="44.52045" lon="6.84226">
        <ele>2610.999</ele>
        <time>2017-03-13T08:44:26Z</time>
      </trkpt>
      <trkpt lat="44.52048" lon="6.84222">
        <ele>2612.109</ele>
        <time>2017-03-13T08:44:32Z</time>
      </trkpt>
      <trkpt lat="44.52046" lon="6.84215">
        <ele>2614.421</ele>
        <time>2017-03-13T08:44:46Z</time>
      </trkpt>
      <trkpt lat="44.52046" lon="6.84207">
        <ele>2616.084</ele>
        <time>2017-03-13T08:45:02Z</time>
      </trkpt>
      <trkpt lat="44.52045" lon="6.84201">
        <ele>2617.222</ele>
        <time>2017-03-13T08:45:15Z</time>
      </trkpt>
      <trkpt lat="44.52048" lon="6.84185">
        <ele>2620.305</ele>
        <time>2017-03-13T08:45:32Z</time>
      </trkpt>
      <trkpt lat="44.52049" lon="6.84181">
        <ele>2621.219</ele>
        <time>2017-03-13T08:45:42Z</time>
      </trkpt>
      <trkpt lat="44.52049" lon="6.84175">
        <ele>2622.299</ele>
        <time>2017-03-13T08:45:55Z</time>
      </trkpt>
      <trkpt lat="44.52048" lon="6.84169">
        <ele>2624.293</ele>
        <time>2017-03-13T08:46:06Z</time>
      </trkpt>
      <trkpt lat="44.52049" lon="6.84162">
        <ele>2626.274</ele>
        <time>2017-03-13T08:46:16Z</time>
      </trkpt>
      <trkpt lat="44.52051" lon="6.84161">
        <ele>2627.394</ele>
        <time>2017-03-13T08:46:23Z</time>
      </trkpt>
      <trkpt lat="44.52055" lon="6.84161">
        <ele>2628.711</ele>
        <time>2017-03-13T08:46:51Z</time>
      </trkpt>
      <trkpt lat="44.52064" lon="6.84167">
        <ele>2631.481</ele>
        <time>2017-03-13T08:47:09Z</time>
      </trkpt>
      <trkpt lat="44.52071" lon="6.84173">
        <ele>2633.641</ele>
        <time>2017-03-13T08:47:24Z</time>
      </trkpt>
      <trkpt lat="44.52079" lon="6.8418">
        <ele>2636.141</ele>
        <time>2017-03-13T08:47:42Z</time>
      </trkpt>
      <trkpt lat="44.52084" lon="6.84184">
        <ele>2637.471</ele>
        <time>2017-03-13T08:48:03Z</time>
      </trkpt>
      <trkpt lat="44.52093" lon="6.84191">
        <ele>2639.063</ele>
        <time>2017-03-13T08:48:20Z</time>
      </trkpt>
      <trkpt lat="44.52104" lon="6.84202">
        <ele>2642.348</ele>
        <time>2017-03-13T08:48:44Z</time>
      </trkpt>
      <trkpt lat="44.52108" lon="6.8421">
        <ele>2644.443</ele>
        <time>2017-03-13T08:48:59Z</time>
      </trkpt>
      <trkpt lat="44.52114" lon="6.84219">
        <ele>2646.733</ele>
        <time>2017-03-13T08:49:15Z</time>
      </trkpt>
      <trkpt lat="44.52115" lon="6.84221">
        <ele>2647.464</ele>
        <time>2017-03-13T08:49:28Z</time>
      </trkpt>
      <trkpt lat="44.52119" lon="6.84223">
        <ele>2648.915</ele>
        <time>2017-03-13T08:49:37Z</time>
      </trkpt>
      <trkpt lat="44.52122" lon="6.84224">
        <ele>2649.518</ele>
        <time>2017-03-13T08:49:44Z</time>
      </trkpt>
      <trkpt lat="44.52127" lon="6.84226">
        <ele>2650.752</ele>
        <time>2017-03-13T08:49:53Z</time>
      </trkpt>
      <trkpt lat="44.52136" lon="6.84229">
        <ele>2653.046</ele>
        <time>2017-03-13T08:50:11Z</time>
      </trkpt>
      <trkpt lat="44.52144" lon="6.84234">
        <ele>2655.424</ele>
        <time>2017-03-13T08:50:26Z</time>
      </trkpt>
      <trkpt lat="44.52151" lon="6.84237">
        <ele>2656.783</ele>
        <time>2017-03-13T08:50:43Z</time>
      </trkpt>
      <trkpt lat="44.52154" lon="6.84236">
        <ele>2657.288</ele>
        <time>2017-03-13T08:51:16Z</time>
      </trkpt>
      <trkpt lat="44.5216" lon="6.84236">
        <ele>2657.722</ele>
        <time>2017-03-13T08:51:25Z</time>
      </trkpt>
      <trkpt lat="44.52167" lon="6.84238">
        <ele>2658.806</ele>
        <time>2017-03-13T08:51:35Z</time>
      </trkpt>
      <trkpt lat="44.52172" lon="6.8424">
        <ele>2659.638</ele>
        <time>2017-03-13T08:51:43Z</time>
      </trkpt>
      <trkpt lat="44.5218" lon="6.84244">
        <ele>2660.536</ele>
        <time>2017-03-13T08:51:54Z</time>
      </trkpt>
      <trkpt lat="44.52188" lon="6.84248">
        <ele>2661.797</ele>
        <time>2017-03-13T08:52:07Z</time>
      </trkpt>
      <trkpt lat="44.52196" lon="6.84255">
        <ele>2662.98</ele>
        <time>2017-03-13T08:52:23Z</time>
      </trkpt>
      <trkpt lat="44.52206" lon="6.84263">
        <ele>2665.435</ele>
        <time>2017-03-13T08:52:41Z</time>
      </trkpt>
      <trkpt lat="44.52214" lon="6.84269">
        <ele>2666.648</ele>
        <time>2017-03-13T08:52:55Z</time>
      </trkpt>
      <trkpt lat="44.5222" lon="6.84278">
        <ele>2667.786</ele>
        <time>2017-03-13T08:53:08Z</time>
      </trkpt>
      <trkpt lat="44.52224" lon="6.84281">
        <ele>2668.558</ele>
        <time>2017-03-13T08:53:39Z</time>
      </trkpt>
      <trkpt lat="44.5223" lon="6.84287">
        <ele>2670.002</ele>
        <time>2017-03-13T08:53:48Z</time>
      </trkpt>
      <trkpt lat="44.52237" lon="6.84294">
        <ele>2670.411</ele>
        <time>2017-03-13T08:53:59Z</time>
      </trkpt>
      <trkpt lat="44.52244" lon="6.84301">
        <ele>2671.479</ele>
        <time>2017-03-13T08:54:09Z</time>
      </trkpt>
      <trkpt lat="44.52251" lon="6.84304">
        <ele>2671.579</ele>
        <time>2017-03-13T08:54:19Z</time>
      </trkpt>
      <trkpt lat="44.52258" lon="6.8431">
        <ele>2671.993</ele>
        <time>2017-03-13T08:54:29Z</time>
      </trkpt>
      <trkpt lat="44.52269" lon="6.84314">
        <ele>2672.655</ele>
        <time>2017-03-13T08:54:42Z</time>
      </trkpt>
      <trkpt lat="44.52275" lon="6.84318">
        <ele>2672.906</ele>
        <time>2017-03-13T08:54:49Z</time>
      </trkpt>
      <trkpt lat="44.52283" lon="6.8432">
        <ele>2672.803</ele>
        <time>2017-03-13T08:54:57Z</time>
      </trkpt>
      <trkpt lat="44.52292" lon="6.84321">
        <ele>2672.337</ele>
        <time>2017-03-13T08:55:07Z</time>
      </trkpt>
      <trkpt lat="44.523" lon="6.84322">
        <ele>2672.875</ele>
        <time>2017-03-13T08:55:18Z</time>
      </trkpt>
      <trkpt lat="44.5231" lon="6.84323">
        <ele>2673.233</ele>
        <time>2017-03-13T08:55:29Z</time>
      </trkpt>
      <trkpt lat="44.52316" lon="6.84322">
        <ele>2673.231</ele>
        <time>2017-03-13T08:55:38Z</time>
      </trkpt>
      <trkpt lat="44.52323" lon="6.84324">
        <ele>2672.92</ele>
        <time>2017-03-13T08:55:49Z</time>
      </trkpt>
      <trkpt lat="44.5233" lon="6.84327">
        <ele>2673.92</ele>
        <time>2017-03-13T08:56:00Z</time>
      </trkpt>
      <trkpt lat="44.52333" lon="6.84333">
        <ele>2675.042</ele>
        <time>2017-03-13T08:56:09Z</time>
      </trkpt>
      <trkpt lat="44.52339" lon="6.84342">
        <ele>2676.919</ele>
        <time>2017-03-13T08:56:28Z</time>
      </trkpt>
      <trkpt lat="44.52347" lon="6.8435">
        <ele>2678.492</ele>
        <time>2017-03-13T08:56:58Z</time>
      </trkpt>
      <trkpt lat="44.52357" lon="6.84353">
        <ele>2679.469</ele>
        <time>2017-03-13T08:57:12Z</time>
      </trkpt>
      <trkpt lat="44.52366" lon="6.84354">
        <ele>2680.284</ele>
        <time>2017-03-13T08:57:22Z</time>
      </trkpt>
      <trkpt lat="44.52375" lon="6.84352">
        <ele>2680.667</ele>
        <time>2017-03-13T08:57:33Z</time>
      </trkpt>
      <trkpt lat="44.52377" lon="6.84352">
        <ele>2681.005</ele>
        <time>2017-03-13T08:57:37Z</time>
      </trkpt>
      <trkpt lat="44.52383" lon="6.84351">
        <ele>2682.176</ele>
        <time>2017-03-13T08:57:45Z</time>
      </trkpt>
      <trkpt lat="44.52389" lon="6.84352">
        <ele>2683.2</ele>
        <time>2017-03-13T08:57:58Z</time>
      </trkpt>
      <trkpt lat="44.52395" lon="6.84356">
        <ele>2685.09</ele>
        <time>2017-03-13T08:58:10Z</time>
      </trkpt>
      <trkpt lat="44.52402" lon="6.84364">
        <ele>2688.419</ele>
        <time>2017-03-13T08:58:28Z</time>
      </trkpt>
      <trkpt lat="44.52411" lon="6.84367">
        <ele>2690.301</ele>
        <time>2017-03-13T08:58:43Z</time>
      </trkpt>
      <trkpt lat="44.52417" lon="6.84365">
        <ele>2692.369</ele>
        <time>2017-03-13T08:58:53Z</time>
      </trkpt>
      <trkpt lat="44.52422" lon="6.84367">
        <ele>2693.817</ele>
        <time>2017-03-13T08:59:05Z</time>
      </trkpt>
      <trkpt lat="44.52428" lon="6.84373">
        <ele>2695.632</ele>
        <time>2017-03-13T08:59:17Z</time>
      </trkpt>
      <trkpt lat="44.52433" lon="6.8438">
        <ele>2698.008</ele>
        <time>2017-03-13T08:59:32Z</time>
      </trkpt>
      <trkpt lat="44.52437" lon="6.84388">
        <ele>2699.737</ele>
        <time>2017-03-13T08:59:44Z</time>
      </trkpt>
      <trkpt lat="44.52439" lon="6.84393">
        <ele>2701.269</ele>
        <time>2017-03-13T08:59:56Z</time>
      </trkpt>
      <trkpt lat="44.5244" lon="6.84404">
        <ele>2703.236</ele>
        <time>2017-03-13T09:00:11Z</time>
      </trkpt>
      <trkpt lat="44.52441" lon="6.84407">
        <ele>2704.668</ele>
        <time>2017-03-13T09:00:15Z</time>
      </trkpt>
      <trkpt lat="44.52443" lon="6.84411">
        <ele>2704.723</ele>
        <time>2017-03-13T09:00:22Z</time>
      </trkpt>
      <trkpt lat="44.52448" lon="6.84422">
        <ele>2706.457</ele>
        <time>2017-03-13T09:00:36Z</time>
      </trkpt>
      <trkpt lat="44.52454" lon="6.84426">
        <ele>2708.419</ele>
        <time>2017-03-13T09:00:48Z</time>
      </trkpt>
      <trkpt lat="44.52457" lon="6.84427">
        <ele>2709.51</ele>
        <time>2017-03-13T09:00:54Z</time>
      </trkpt>
      <trkpt lat="44.52459" lon="6.84428">
        <ele>2710.597</ele>
        <time>2017-03-13T09:01:02Z</time>
      </trkpt>
      <trkpt lat="44.52461" lon="6.84431">
        <ele>2711.793</ele>
        <time>2017-03-13T09:01:09Z</time>
      </trkpt>
      <trkpt lat="44.52464" lon="6.84431">
        <ele>2713.294</ele>
        <time>2017-03-13T09:01:16Z</time>
      </trkpt>
      <trkpt lat="44.52469" lon="6.84432">
        <ele>2714.131</ele>
        <time>2017-03-13T09:01:24Z</time>
      </trkpt>
      <trkpt lat="44.52472" lon="6.84433">
        <ele>2715.337</ele>
        <time>2017-03-13T09:01:32Z</time>
      </trkpt>
      <trkpt lat="44.52476" lon="6.84433">
        <ele>2716.554</ele>
        <time>2017-03-13T09:01:40Z</time>
      </trkpt>
      <trkpt lat="44.5248" lon="6.84431">
        <ele>2717.197</ele>
        <time>2017-03-13T09:01:47Z</time>
      </trkpt>
      <trkpt lat="44.52484" lon="6.84431">
        <ele>2718.46</ele>
        <time>2017-03-13T09:01:53Z</time>
      </trkpt>
      <trkpt lat="44.52491" lon="6.84431">
        <ele>2719.978</ele>
        <time>2017-03-13T09:02:04Z</time>
      </trkpt>
      <trkpt lat="44.52493" lon="6.84431">
        <ele>2720.688</ele>
        <time>2017-03-13T09:02:11Z</time>
      </trkpt>
      <trkpt lat="44.52498" lon="6.84429">
        <ele>2722.535</ele>
        <time>2017-03-13T09:02:22Z</time>
      </trkpt>
      <trkpt lat="44.52501" lon="6.84429">
        <ele>2723.306</ele>
        <time>2017-03-13T09:02:28Z</time>
      </trkpt>
      <trkpt lat="44.52505" lon="6.84429">
        <ele>2724.154</ele>
        <time>2017-03-13T09:02:37Z</time>
      </trkpt>
      <trkpt lat="44.52509" lon="6.84428">
        <ele>2725.151</ele>
        <time>2017-03-13T09:02:45Z</time>
      </trkpt>
      <trkpt lat="44.52513" lon="6.8443">
        <ele>2726.954</ele>
        <time>2017-03-13T09:02:53Z</time>
      </trkpt>
      <trkpt lat="44.52518" lon="6.84431">
        <ele>2727.461</ele>
        <time>2017-03-13T09:03:00Z</time>
      </trkpt>
      <trkpt lat="44.52525" lon="6.84435">
        <ele>2729.281</ele>
        <time>2017-03-13T09:03:11Z</time>
      </trkpt>
      <trkpt lat="44.52529" lon="6.84437">
        <ele>2730.708</ele>
        <time>2017-03-13T09:03:21Z</time>
      </trkpt>
      <trkpt lat="44.52533" lon="6.84441">
        <ele>2731.605</ele>
        <time>2017-03-13T09:03:28Z</time>
      </trkpt>
      <trkpt lat="44.52538" lon="6.84443">
        <ele>2732.651</ele>
        <time>2017-03-13T09:03:38Z</time>
      </trkpt>
      <trkpt lat="44.52542" lon="6.84444">
        <ele>2734.4</ele>
        <time>2017-03-13T09:03:47Z</time>
      </trkpt>
      <trkpt lat="44.52546" lon="6.84447">
        <ele>2735.561</ele>
        <time>2017-03-13T09:03:59Z</time>
      </trkpt>
      <trkpt lat="44.52553" lon="6.84453">
        <ele>2737.572</ele>
        <time>2017-03-13T09:04:14Z</time>
      </trkpt>
      <trkpt lat="44.5256" lon="6.84457">
        <ele>2740.707</ele>
        <time>2017-03-13T09:04:31Z</time>
      </trkpt>
      <trkpt lat="44.52567" lon="6.84463">
        <ele>2742.739</ele>
        <time>2017-03-13T09:04:48Z</time>
      </trkpt>
      <trkpt lat="44.52571" lon="6.84467">
        <ele>2745.122</ele>
        <time>2017-03-13T09:05:03Z</time>
      </trkpt>
      <trkpt lat="44.52573" lon="6.84465">
        <ele>2746.186</ele>
        <time>2017-03-13T09:05:11Z</time>
      </trkpt>
      <trkpt lat="44.52578" lon="6.84461">
        <ele>2747.455</ele>
        <time>2017-03-13T09:05:19Z</time>
      </trkpt>
      <trkpt lat="44.52582" lon="6.84454">
        <ele>2749.404</ele>
        <time>2017-03-13T09:05:29Z</time>
      </trkpt>
      <trkpt lat="44.52585" lon="6.84449">
        <ele>2750.235</ele>
        <time>2017-03-13T09:05:36Z</time>
      </trkpt>
      <trkpt lat="44.52586" lon="6.84443">
        <ele>2751.595</ele>
        <time>2017-03-13T09:05:43Z</time>
      </trkpt>
      <trkpt lat="44.52588" lon="6.84438">
        <ele>2752.292</ele>
        <time>2017-03-13T09:05:51Z</time>
      </trkpt>
      <trkpt lat="44.52589" lon="6.84431">
        <ele>2753.171</ele>
        <time>2017-03-13T09:06:00Z</time>
      </trkpt>
      <trkpt lat="44.52592" lon="6.84426">
        <ele>2754.553</ele>
        <time>2017-03-13T09:06:10Z</time>
      </trkpt>
      <trkpt lat="44.52594" lon="6.84427">
        <ele>2755.208</ele>
        <time>2017-03-13T09:08:45Z</time>
      </trkpt>
      <trkpt lat="44.52598" lon="6.84429">
        <ele>2754.082</ele>
        <time>2017-03-13T09:26:07Z</time>
      </trkpt>
      <trkpt lat="44.52607" lon="6.8444">
        <ele>2752.633</ele>
        <time>2017-03-13T09:26:18Z</time>
      </trkpt>
      <trkpt lat="44.52614" lon="6.84446">
        <ele>2752.376</ele>
        <time>2017-03-13T09:26:27Z</time>
      </trkpt>
      <trkpt lat="44.52622" lon="6.84455">
        <ele>2752.473</ele>
        <time>2017-03-13T09:26:40Z</time>
      </trkpt>
      <trkpt lat="44.52634" lon="6.84462">
        <ele>2752.674</ele>
        <time>2017-03-13T09:26:54Z</time>
      </trkpt>
      <trkpt lat="44.52639" lon="6.84466">
        <ele>2753.05</ele>
        <time>2017-03-13T09:27:00Z</time>
      </trkpt>
      <trkpt lat="44.52647" lon="6.84471">
        <ele>2752.824</ele>
        <time>2017-03-13T09:27:10Z</time>
      </trkpt>
      <trkpt lat="44.52659" lon="6.84475">
        <ele>2753.293</ele>
        <time>2017-03-13T09:27:24Z</time>
      </trkpt>
      <trkpt lat="44.52669" lon="6.84477">
        <ele>2752.528</ele>
        <time>2017-03-13T09:27:34Z</time>
      </trkpt>
      <trkpt lat="44.52674" lon="6.84478">
        <ele>2753.033</ele>
        <time>2017-03-13T09:27:40Z</time>
      </trkpt>
      <trkpt lat="44.5268" lon="6.84478">
        <ele>2753.296</ele>
        <time>2017-03-13T09:27:48Z</time>
      </trkpt>
      <trkpt lat="44.52691" lon="6.84473">
        <ele>2754.038</ele>
        <time>2017-03-13T09:28:01Z</time>
      </trkpt>
      <trkpt lat="44.527" lon="6.84468">
        <ele>2754.594</ele>
        <time>2017-03-13T09:28:13Z</time>
      </trkpt>
      <trkpt lat="44.52709" lon="6.84462">
        <ele>2754.864</ele>
        <time>2017-03-13T09:28:22Z</time>
      </trkpt>
      <trkpt lat="44.52715" lon="6.84459">
        <ele>2755.356</ele>
        <time>2017-03-13T09:28:30Z</time>
      </trkpt>
      <trkpt lat="44.52717" lon="6.84458">
        <ele>2754.152</ele>
        <time>2017-03-13T09:28:47Z</time>
      </trkpt>
      <trkpt lat="44.5272" lon="6.84457">
        <ele>2754.999</ele>
        <time>2017-03-13T09:30:01Z</time>
      </trkpt>
      <trkpt lat="44.52734" lon="6.84453">
        <ele>2754.605</ele>
        <time>2017-03-13T09:30:14Z</time>
      </trkpt>
      <trkpt lat="44.5275" lon="6.84447">
        <ele>2753.975</ele>
        <time>2017-03-13T09:30:29Z</time>
      </trkpt>
      <trkpt lat="44.52762" lon="6.84442">
        <ele>2753.255</ele>
        <time>2017-03-13T09:30:41Z</time>
      </trkpt>
      <trkpt lat="44.52777" lon="6.8444">
        <ele>2752.55</ele>
        <time>2017-03-13T09:30:55Z</time>
      </trkpt>
      <trkpt lat="44.52788" lon="6.84437">
        <ele>2752.693</ele>
        <time>2017-03-13T09:31:06Z</time>
      </trkpt>
      <trkpt lat="44.528" lon="6.84432">
        <ele>2752.543</ele>
        <time>2017-03-13T09:31:18Z</time>
      </trkpt>
      <trkpt lat="44.5281" lon="6.84429">
        <ele>2752.646</ele>
        <time>2017-03-13T09:31:29Z</time>
      </trkpt>
      <trkpt lat="44.52821" lon="6.84426">
        <ele>2752.796</ele>
        <time>2017-03-13T09:31:42Z</time>
      </trkpt>
      <trkpt lat="44.52829" lon="6.84424">
        <ele>2753.169</ele>
        <time>2017-03-13T09:31:51Z</time>
      </trkpt>
      <trkpt lat="44.52833" lon="6.84423">
        <ele>2753.689</ele>
        <time>2017-03-13T09:31:58Z</time>
      </trkpt>
      <trkpt lat="44.52838" lon="6.84422">
        <ele>2754.407</ele>
        <time>2017-03-13T09:32:05Z</time>
      </trkpt>
      <trkpt lat="44.52842" lon="6.84419">
        <ele>2755.199</ele>
        <time>2017-03-13T09:32:12Z</time>
      </trkpt>
      <trkpt lat="44.52847" lon="6.84417">
        <ele>2756.509</ele>
        <time>2017-03-13T09:32:21Z</time>
      </trkpt>
      <trkpt lat="44.52849" lon="6.84416">
        <ele>2757.241</ele>
        <time>2017-03-13T09:32:28Z</time>
      </trkpt>
      <trkpt lat="44.52853" lon="6.84414">
        <ele>2758.38</ele>
        <time>2017-03-13T09:32:35Z</time>
      </trkpt>
      <trkpt lat="44.52856" lon="6.84411">
        <ele>2759.333</ele>
        <time>2017-03-13T09:32:42Z</time>
      </trkpt>
      <trkpt lat="44.52859" lon="6.84408">
        <ele>2759.985</ele>
        <time>2017-03-13T09:32:49Z</time>
      </trkpt>
      <trkpt lat="44.52864" lon="6.84406">
        <ele>2761.61</ele>
        <time>2017-03-13T09:32:58Z</time>
      </trkpt>
      <trkpt lat="44.52866" lon="6.84407">
        <ele>2761.956</ele>
        <time>2017-03-13T09:33:04Z</time>
      </trkpt>
      <trkpt lat="44.52869" lon="6.84407">
        <ele>2763.171</ele>
        <time>2017-03-13T09:33:16Z</time>
      </trkpt>
      <trkpt lat="44.52873" lon="6.84406">
        <ele>2764.632</ele>
        <time>2017-03-13T09:33:27Z</time>
      </trkpt>
      <trkpt lat="44.52875" lon="6.84407">
        <ele>2764.285</ele>
        <time>2017-03-13T09:33:56Z</time>
      </trkpt>
      <trkpt lat="44.52884" lon="6.84409">
        <ele>2766.162</ele>
        <time>2017-03-13T09:34:09Z</time>
      </trkpt>
      <trkpt lat="44.52893" lon="6.84415">
        <ele>2767.703</ele>
        <time>2017-03-13T09:34:24Z</time>
      </trkpt>
      <trkpt lat="44.52904" lon="6.84423">
        <ele>2770.702</ele>
        <time>2017-03-13T09:34:46Z</time>
      </trkpt>
      <trkpt lat="44.52911" lon="6.84429">
        <ele>2773.103</ele>
        <time>2017-03-13T09:35:04Z</time>
      </trkpt>
      <trkpt lat="44.52918" lon="6.84437">
        <ele>2774.862</ele>
        <time>2017-03-13T09:35:17Z</time>
      </trkpt>
      <trkpt lat="44.52919" lon="6.84441">
        <ele>2776.42</ele>
        <time>2017-03-13T09:35:27Z</time>
      </trkpt>
      <trkpt lat="44.52921" lon="6.84446">
        <ele>2777.768</ele>
        <time>2017-03-13T09:35:35Z</time>
      </trkpt>
      <trkpt lat="44.52923" lon="6.84456">
        <ele>2778.86</ele>
        <time>2017-03-13T09:35:48Z</time>
      </trkpt>
      <trkpt lat="44.52924" lon="6.84463">
        <ele>2778.525</ele>
        <time>2017-03-13T09:35:54Z</time>
      </trkpt>
      <trkpt lat="44.52929" lon="6.84474">
        <ele>2777.964</ele>
        <time>2017-03-13T09:36:02Z</time>
      </trkpt>
      <trkpt lat="44.52933" lon="6.84481">
        <ele>2776.794</ele>
        <time>2017-03-13T09:36:09Z</time>
      </trkpt>
      <trkpt lat="44.52939" lon="6.84491">
        <ele>2775.591</ele>
        <time>2017-03-13T09:36:17Z</time>
      </trkpt>
      <trkpt lat="44.5294" lon="6.84494">
        <ele>2775.301</ele>
        <time>2017-03-13T09:36:25Z</time>
      </trkpt>
      <trkpt lat="44.52944" lon="6.84501">
        <ele>2776.003</ele>
        <time>2017-03-13T09:36:41Z</time>
      </trkpt>
      <trkpt lat="44.52948" lon="6.84518">
        <ele>2775.987</ele>
        <time>2017-03-13T09:36:53Z</time>
      </trkpt>
      <trkpt lat="44.52953" lon="6.84527">
        <ele>2775.896</ele>
        <time>2017-03-13T09:37:03Z</time>
      </trkpt>
      <trkpt lat="44.52958" lon="6.84534">
        <ele>2776.312</ele>
        <time>2017-03-13T09:37:12Z</time>
      </trkpt>
      <trkpt lat="44.52967" lon="6.84552">
        <ele>2776.41</ele>
        <time>2017-03-13T09:37:30Z</time>
      </trkpt>
      <trkpt lat="44.52973" lon="6.84564">
        <ele>2777.612</ele>
        <time>2017-03-13T09:37:42Z</time>
      </trkpt>
      <trkpt lat="44.52981" lon="6.8458">
        <ele>2779.261</ele>
        <time>2017-03-13T09:38:01Z</time>
      </trkpt>
      <trkpt lat="44.52987" lon="6.84589">
        <ele>2780.99</ele>
        <time>2017-03-13T09:38:15Z</time>
      </trkpt>
      <trkpt lat="44.52991" lon="6.84596">
        <ele>2781.364</ele>
        <time>2017-03-13T09:38:25Z</time>
      </trkpt>
      <trkpt lat="44.52995" lon="6.84605">
        <ele>2781.797</ele>
        <time>2017-03-13T09:38:36Z</time>
      </trkpt>
      <trkpt lat="44.53001" lon="6.84616">
        <ele>2783.892</ele>
        <time>2017-03-13T09:38:51Z</time>
      </trkpt>
      <trkpt lat="44.53005" lon="6.84621">
        <ele>2785.102</ele>
        <time>2017-03-13T09:39:03Z</time>
      </trkpt>
      <trkpt lat="44.53008" lon="6.84625">
        <ele>2786.184</ele>
        <time>2017-03-13T09:39:14Z</time>
      </trkpt>
      <trkpt lat="44.53012" lon="6.84631">
        <ele>2787.65</ele>
        <time>2017-03-13T09:39:22Z</time>
      </trkpt>
      <trkpt lat="44.53014" lon="6.84634">
        <ele>2788.726</ele>
        <time>2017-03-13T09:39:30Z</time>
      </trkpt>
      <trkpt lat="44.53018" lon="6.84639">
        <ele>2789.773</ele>
        <time>2017-03-13T09:39:39Z</time>
      </trkpt>
      <trkpt lat="44.53021" lon="6.8464">
        <ele>2790.926</ele>
        <time>2017-03-13T09:39:45Z</time>
      </trkpt>
      <trkpt lat="44.53026" lon="6.84646">
        <ele>2791.951</ele>
        <time>2017-03-13T09:40:04Z</time>
      </trkpt>
      <trkpt lat="44.5303" lon="6.84651">
        <ele>2793.881</ele>
        <time>2017-03-13T09:40:13Z</time>
      </trkpt>
      <trkpt lat="44.53032" lon="6.84654">
        <ele>2794.678</ele>
        <time>2017-03-13T09:40:19Z</time>
      </trkpt>
      <trkpt lat="44.53034" lon="6.84659">
        <ele>2796.251</ele>
        <time>2017-03-13T09:40:28Z</time>
      </trkpt>
      <trkpt lat="44.53038" lon="6.84661">
        <ele>2796.94</ele>
        <time>2017-03-13T09:40:35Z</time>
      </trkpt>
      <trkpt lat="44.53043" lon="6.84667">
        <ele>2797.985</ele>
        <time>2017-03-13T09:40:44Z</time>
      </trkpt>
      <trkpt lat="44.53049" lon="6.84671">
        <ele>2798.386</ele>
        <time>2017-03-13T09:40:54Z</time>
      </trkpt>
      <trkpt lat="44.53057" lon="6.84677">
        <ele>2798.948</ele>
        <time>2017-03-13T09:41:06Z</time>
      </trkpt>
      <trkpt lat="44.5306" lon="6.84681">
        <ele>2799.058</ele>
        <time>2017-03-13T09:41:15Z</time>
      </trkpt>
      <trkpt lat="44.53065" lon="6.84686">
        <ele>2799.828</ele>
        <time>2017-03-13T09:41:22Z</time>
      </trkpt>
      <trkpt lat="44.53069" lon="6.8469">
        <ele>2800.323</ele>
        <time>2017-03-13T09:41:31Z</time>
      </trkpt>
      <trkpt lat="44.53073" lon="6.84695">
        <ele>2800.096</ele>
        <time>2017-03-13T09:41:37Z</time>
      </trkpt>
      <trkpt lat="44.53075" lon="6.84698">
        <ele>2800.601</ele>
        <time>2017-03-13T09:41:40Z</time>
      </trkpt>
      <trkpt lat="44.53077" lon="6.84703">
        <ele>2800.682</ele>
        <time>2017-03-13T09:41:51Z</time>
      </trkpt>
      <trkpt lat="44.5308" lon="6.84709">
        <ele>2801.239</ele>
        <time>2017-03-13T09:41:58Z</time>
      </trkpt>
      <trkpt lat="44.53083" lon="6.84716">
        <ele>2801.279</ele>
        <time>2017-03-13T09:42:07Z</time>
      </trkpt>
      <trkpt lat="44.53086" lon="6.84721">
        <ele>2801.783</ele>
        <time>2017-03-13T09:42:14Z</time>
      </trkpt>
      <trkpt lat="44.53091" lon="6.84727">
        <ele>2802.706</ele>
        <time>2017-03-13T09:42:23Z</time>
      </trkpt>
      <trkpt lat="44.53097" lon="6.84735">
        <ele>2803.688</ele>
        <time>2017-03-13T09:42:35Z</time>
      </trkpt>
      <trkpt lat="44.53102" lon="6.8474">
        <ele>2804.836</ele>
        <time>2017-03-13T09:42:43Z</time>
      </trkpt>
      <trkpt lat="44.53104" lon="6.84743">
        <ele>2805.372</ele>
        <time>2017-03-13T09:42:50Z</time>
      </trkpt>
      <trkpt lat="44.53109" lon="6.84749">
        <ele>2806.592</ele>
        <time>2017-03-13T09:43:02Z</time>
      </trkpt>
      <trkpt lat="44.53113" lon="6.84754">
        <ele>2807.608</ele>
        <time>2017-03-13T09:43:13Z</time>
      </trkpt>
      <trkpt lat="44.53116" lon="6.8476">
        <ele>2807.942</ele>
        <time>2017-03-13T09:43:20Z</time>
      </trkpt>
      <trkpt lat="44.53117" lon="6.84765">
        <ele>2808.632</ele>
        <time>2017-03-13T09:43:27Z</time>
      </trkpt>
      <trkpt lat="44.5312" lon="6.84768">
        <ele>2810.034</ele>
        <time>2017-03-13T09:43:38Z</time>
      </trkpt>
      <trkpt lat="44.53124" lon="6.84776">
        <ele>2810.458</ele>
        <time>2017-03-13T09:43:50Z</time>
      </trkpt>
      <trkpt lat="44.53129" lon="6.84786">
        <ele>2811.895</ele>
        <time>2017-03-13T09:44:05Z</time>
      </trkpt>
      <trkpt lat="44.53131" lon="6.84796">
        <ele>2813.104</ele>
        <time>2017-03-13T09:44:21Z</time>
      </trkpt>
      <trkpt lat="44.53132" lon="6.84805">
        <ele>2814.159</ele>
        <time>2017-03-13T09:44:31Z</time>
      </trkpt>
      <trkpt lat="44.53134" lon="6.8481">
        <ele>2815.672</ele>
        <time>2017-03-13T09:44:43Z</time>
      </trkpt>
      <trkpt lat="44.53135" lon="6.84817">
        <ele>2816.386</ele>
        <time>2017-03-13T09:44:54Z</time>
      </trkpt>
      <trkpt lat="44.53138" lon="6.84827">
        <ele>2818.358</ele>
        <time>2017-03-13T09:45:09Z</time>
      </trkpt>
      <trkpt lat="44.5314" lon="6.84836">
        <ele>2818.654</ele>
        <time>2017-03-13T09:45:20Z</time>
      </trkpt>
      <trkpt lat="44.53145" lon="6.84845">
        <ele>2819.764</ele>
        <time>2017-03-13T09:45:33Z</time>
      </trkpt>
      <trkpt lat="44.53149" lon="6.84855">
        <ele>2820.906</ele>
        <time>2017-03-13T09:45:44Z</time>
      </trkpt>
      <trkpt lat="44.53155" lon="6.84865">
        <ele>2822.284</ele>
        <time>2017-03-13T09:46:01Z</time>
      </trkpt>
      <trkpt lat="44.53158" lon="6.84874">
        <ele>2823.484</ele>
        <time>2017-03-13T09:46:13Z</time>
      </trkpt>
      <trkpt lat="44.53162" lon="6.84884">
        <ele>2825.628</ele>
        <time>2017-03-13T09:46:28Z</time>
      </trkpt>
      <trkpt lat="44.53163" lon="6.84889">
        <ele>2827.151</ele>
        <time>2017-03-13T09:46:38Z</time>
      </trkpt>
      <trkpt lat="44.53165" lon="6.84894">
        <ele>2827.79</ele>
        <time>2017-03-13T09:46:48Z</time>
      </trkpt>
      <trkpt lat="44.53175" lon="6.84899">
        <ele>2829.217</ele>
        <time>2017-03-13T09:47:15Z</time>
      </trkpt>
      <trkpt lat="44.53188" lon="6.849">
        <ele>2829.555</ele>
        <time>2017-03-13T09:47:31Z</time>
      </trkpt>
      <trkpt lat="44.53199" lon="6.84904">
        <ele>2830.728</ele>
        <time>2017-03-13T09:47:48Z</time>
      </trkpt>
      <trkpt lat="44.53207" lon="6.84905">
        <ele>2830.643</ele>
        <time>2017-03-13T09:47:59Z</time>
      </trkpt>
      <trkpt lat="44.53211" lon="6.8491">
        <ele>2830.577</ele>
        <time>2017-03-13T09:48:07Z</time>
      </trkpt>
      <trkpt lat="44.53215" lon="6.84919">
        <ele>2830.51</ele>
        <time>2017-03-13T09:48:19Z</time>
      </trkpt>
      <trkpt lat="44.53223" lon="6.8493">
        <ele>2830.447</ele>
        <time>2017-03-13T09:48:29Z</time>
      </trkpt>
      <trkpt lat="44.53228" lon="6.84933">
        <ele>2830.494</ele>
        <time>2017-03-13T09:48:36Z</time>
      </trkpt>
      <trkpt lat="44.53237" lon="6.84937">
        <ele>2830.24</ele>
        <time>2017-03-13T09:48:47Z</time>
      </trkpt>
      <trkpt lat="44.53239" lon="6.84937">
        <ele>2830.358</ele>
        <time>2017-03-13T09:48:56Z</time>
      </trkpt>
      <trkpt lat="44.53243" lon="6.84939">
        <ele>2830.962</ele>
        <time>2017-03-13T09:49:13Z</time>
      </trkpt>
      <trkpt lat="44.53251" lon="6.84942">
        <ele>2832.149</ele>
        <time>2017-03-13T09:49:26Z</time>
      </trkpt>
      <trkpt lat="44.5326" lon="6.84947">
        <ele>2832.16</ele>
        <time>2017-03-13T09:49:39Z</time>
      </trkpt>
      <trkpt lat="44.53267" lon="6.84952">
        <ele>2833.045</ele>
        <time>2017-03-13T09:49:50Z</time>
      </trkpt>
      <trkpt lat="44.53274" lon="6.84956">
        <ele>2834.169</ele>
        <time>2017-03-13T09:50:03Z</time>
      </trkpt>
      <trkpt lat="44.53282" lon="6.84963">
        <ele>2835.718</ele>
        <time>2017-03-13T09:50:16Z</time>
      </trkpt>
      <trkpt lat="44.53287" lon="6.84966">
        <ele>2836.48</ele>
        <time>2017-03-13T09:50:22Z</time>
      </trkpt>
      <trkpt lat="44.53292" lon="6.84966">
        <ele>2837.79</ele>
        <time>2017-03-13T09:50:31Z</time>
      </trkpt>
      <trkpt lat="44.53293" lon="6.84966">
        <ele>2838.425</ele>
        <time>2017-03-13T09:50:36Z</time>
      </trkpt>
      <trkpt lat="44.53302" lon="6.84967">
        <ele>2838.548</ele>
        <time>2017-03-13T09:50:44Z</time>
      </trkpt>
      <trkpt lat="44.53305" lon="6.8497">
        <ele>2839.09</ele>
        <time>2017-03-13T09:50:51Z</time>
      </trkpt>
      <trkpt lat="44.53307" lon="6.8497">
        <ele>2839.863</ele>
        <time>2017-03-13T09:50:57Z</time>
      </trkpt>
      <trkpt lat="44.5331" lon="6.8497">
        <ele>2840.976</ele>
        <time>2017-03-13T09:51:04Z</time>
      </trkpt>
      <trkpt lat="44.53318" lon="6.84971">
        <ele>2841.401</ele>
        <time>2017-03-13T09:51:14Z</time>
      </trkpt>
      <trkpt lat="44.5332" lon="6.84974">
        <ele>2841.346</ele>
        <time>2017-03-13T09:51:22Z</time>
      </trkpt>
      <trkpt lat="44.53325" lon="6.84976">
        <ele>2841.316</ele>
        <time>2017-03-13T09:51:31Z</time>
      </trkpt>
      <trkpt lat="44.5333" lon="6.84976">
        <ele>2842.307</ele>
        <time>2017-03-13T09:51:39Z</time>
      </trkpt>
      <trkpt lat="44.53334" lon="6.84976">
        <ele>2842.572</ele>
        <time>2017-03-13T09:51:47Z</time>
      </trkpt>
      <trkpt lat="44.5334" lon="6.84978">
        <ele>2842.797</ele>
        <time>2017-03-13T09:51:57Z</time>
      </trkpt>
      <trkpt lat="44.53346" lon="6.84979">
        <ele>2843.359</ele>
        <time>2017-03-13T09:52:06Z</time>
      </trkpt>
      <trkpt lat="44.53349" lon="6.84979">
        <ele>2843.753</ele>
        <time>2017-03-13T09:52:14Z</time>
      </trkpt>
      <trkpt lat="44.53351" lon="6.84978">
        <ele>2843.613</ele>
        <time>2017-03-13T09:52:22Z</time>
      </trkpt>
      <trkpt lat="44.53354" lon="6.84979">
        <ele>2843.641</ele>
        <time>2017-03-13T09:52:31Z</time>
      </trkpt>
      <trkpt lat="44.53357" lon="6.84981">
        <ele>2843.909</ele>
        <time>2017-03-13T09:52:39Z</time>
      </trkpt>
      <trkpt lat="44.53362" lon="6.84985">
        <ele>2844.638</ele>
        <time>2017-03-13T09:52:47Z</time>
      </trkpt>
      <trkpt lat="44.53365" lon="6.84989">
        <ele>2845.364</ele>
        <time>2017-03-13T09:52:56Z</time>
      </trkpt>
      <trkpt lat="44.53369" lon="6.84993">
        <ele>2846.339</ele>
        <time>2017-03-13T09:53:05Z</time>
      </trkpt>
      <trkpt lat="44.53371" lon="6.84997">
        <ele>2847.123</ele>
        <time>2017-03-13T09:53:16Z</time>
      </trkpt>
      <trkpt lat="44.53377" lon="6.85003">
        <ele>2847.189</ele>
        <time>2017-03-13T09:53:42Z</time>
      </trkpt>
      <trkpt lat="44.53387" lon="6.85008">
        <ele>2846.698</ele>
        <time>2017-03-13T09:53:54Z</time>
      </trkpt>
      <trkpt lat="44.53393" lon="6.85011">
        <ele>2847.325</ele>
        <time>2017-03-13T09:54:02Z</time>
      </trkpt>
      <trkpt lat="44.53399" lon="6.85015">
        <ele>2847.599</ele>
        <time>2017-03-13T09:54:10Z</time>
      </trkpt>
      <trkpt lat="44.53402" lon="6.85016">
        <ele>2847.437</ele>
        <time>2017-03-13T09:54:16Z</time>
      </trkpt>
      <trkpt lat="44.53404" lon="6.8502">
        <ele>2847.48</ele>
        <time>2017-03-13T09:54:29Z</time>
      </trkpt>
      <trkpt lat="44.53409" lon="6.85025">
        <ele>2847.524</ele>
        <time>2017-03-13T09:54:38Z</time>
      </trkpt>
      <trkpt lat="44.53413" lon="6.85032">
        <ele>2847.597</ele>
        <time>2017-03-13T09:54:48Z</time>
      </trkpt>
      <trkpt lat="44.53417" lon="6.85039">
        <ele>2847.861</ele>
        <time>2017-03-13T09:54:58Z</time>
      </trkpt>
      <trkpt lat="44.53422" lon="6.85044">
        <ele>2848.584</ele>
        <time>2017-03-13T09:55:07Z</time>
      </trkpt>
      <trkpt lat="44.53427" lon="6.8505">
        <ele>2848.487</ele>
        <time>2017-03-13T09:55:15Z</time>
      </trkpt>
      <trkpt lat="44.53433" lon="6.85057">
        <ele>2849.031</ele>
        <time>2017-03-13T09:55:25Z</time>
      </trkpt>
      <trkpt lat="44.53438" lon="6.85063">
        <ele>2849.48</ele>
        <time>2017-03-13T09:55:35Z</time>
      </trkpt>
      <trkpt lat="44.53442" lon="6.85069">
        <ele>2850.216</ele>
        <time>2017-03-13T09:55:44Z</time>
      </trkpt>
      <trkpt lat="44.53446" lon="6.85074">
        <ele>2850.447</ele>
        <time>2017-03-13T09:55:52Z</time>
      </trkpt>
      <trkpt lat="44.5345" lon="6.85077">
        <ele>2850.826</ele>
        <time>2017-03-13T09:56:00Z</time>
      </trkpt>
      <trkpt lat="44.53455" lon="6.85089">
        <ele>2850.994</ele>
        <time>2017-03-13T09:56:10Z</time>
      </trkpt>
      <trkpt lat="44.53457" lon="6.85097">
        <ele>2851.86</ele>
        <time>2017-03-13T09:56:19Z</time>
      </trkpt>
      <trkpt lat="44.53458" lon="6.85104">
        <ele>2851.846</ele>
        <time>2017-03-13T09:56:29Z</time>
      </trkpt>
      <trkpt lat="44.53459" lon="6.85115">
        <ele>2852.315</ele>
        <time>2017-03-13T09:56:51Z</time>
      </trkpt>
      <trkpt lat="44.53459" lon="6.85134">
        <ele>2853.301</ele>
        <time>2017-03-13T09:57:05Z</time>
      </trkpt>
      <trkpt lat="44.53459" lon="6.85137">
        <ele>2853.358</ele>
        <time>2017-03-13T09:57:07Z</time>
      </trkpt>
      <trkpt lat="44.5346" lon="6.85153">
        <ele>2853.103</ele>
        <time>2017-03-13T09:57:17Z</time>
      </trkpt>
      <trkpt lat="44.53463" lon="6.85169">
        <ele>2851.849</ele>
        <time>2017-03-13T09:57:25Z</time>
      </trkpt>
      <trkpt lat="44.53465" lon="6.85186">
        <ele>2853.095</ele>
        <time>2017-03-13T09:57:41Z</time>
      </trkpt>
      <trkpt lat="44.53465" lon="6.85202">
        <ele>2854.155</ele>
        <time>2017-03-13T09:57:55Z</time>
      </trkpt>
      <trkpt lat="44.53464" lon="6.85221">
        <ele>2853.747</ele>
        <time>2017-03-13T09:58:07Z</time>
      </trkpt>
      <trkpt lat="44.53465" lon="6.8523">
        <ele>2852.906</ele>
        <time>2017-03-13T09:58:14Z</time>
      </trkpt>
      <trkpt lat="44.53468" lon="6.85241">
        <ele>2853.991</ele>
        <time>2017-03-13T09:58:28Z</time>
      </trkpt>
      <trkpt lat="44.5347" lon="6.85252">
        <ele>2854.578</ele>
        <time>2017-03-13T09:58:42Z</time>
      </trkpt>
      <trkpt lat="44.53472" lon="6.8526">
        <ele>2854.984</ele>
        <time>2017-03-13T09:58:53Z</time>
      </trkpt>
      <trkpt lat="44.53475" lon="6.8527">
        <ele>2855.618</ele>
        <time>2017-03-13T09:59:05Z</time>
      </trkpt>
      <trkpt lat="44.53477" lon="6.8528">
        <ele>2856.267</ele>
        <time>2017-03-13T09:59:17Z</time>
      </trkpt>
      <trkpt lat="44.53473" lon="6.8529">
        <ele>2857.741</ele>
        <time>2017-03-13T09:59:30Z</time>
      </trkpt>
      <trkpt lat="44.53468" lon="6.85298">
        <ele>2859.049</ele>
        <time>2017-03-13T09:59:47Z</time>
      </trkpt>
      <trkpt lat="44.53462" lon="6.85304">
        <ele>2860.323</ele>
        <time>2017-03-13T10:00:01Z</time>
      </trkpt>
      <trkpt lat="44.53458" lon="6.85307">
        <ele>2861.419</ele>
        <time>2017-03-13T10:00:15Z</time>
      </trkpt>
      <trkpt lat="44.53456" lon="6.8531">
        <ele>2862.105</ele>
        <time>2017-03-13T10:00:28Z</time>
      </trkpt>
      <trkpt lat="44.53454" lon="6.85323">
        <ele>2862.305</ele>
        <time>2017-03-13T10:00:43Z</time>
      </trkpt>
      <trkpt lat="44.53447" lon="6.85338">
        <ele>2862.411</ele>
        <time>2017-03-13T10:00:58Z</time>
      </trkpt>
      <trkpt lat="44.53441" lon="6.85348">
        <ele>2863.256</ele>
        <time>2017-03-13T10:01:14Z</time>
      </trkpt>
      <trkpt lat="44.53434" lon="6.85355">
        <ele>2863.745</ele>
        <time>2017-03-13T10:01:29Z</time>
      </trkpt>
      <trkpt lat="44.53429" lon="6.85359">
        <ele>2863.832</ele>
        <time>2017-03-13T10:01:40Z</time>
      </trkpt>
      <trkpt lat="44.53427" lon="6.85364">
        <ele>2863.356</ele>
        <time>2017-03-13T10:01:48Z</time>
      </trkpt>
      <trkpt lat="44.53426" lon="6.85368">
        <ele>2862.26</ele>
        <time>2017-03-13T10:01:59Z</time>
      </trkpt>
      <trkpt lat="44.53424" lon="6.85371">
        <ele>2860.724</ele>
        <time>2017-03-13T10:02:07Z</time>
      </trkpt>
      <trkpt lat="44.53423" lon="6.85376">
        <ele>2859.535</ele>
        <time>2017-03-13T10:02:22Z</time>
      </trkpt>
      <trkpt lat="44.53427" lon="6.85393">
        <ele>2857.347</ele>
        <time>2017-03-13T10:02:29Z</time>
      </trkpt>
      <trkpt lat="44.53438" lon="6.85412">
        <ele>2854.854</ele>
        <time>2017-03-13T10:02:37Z</time>
      </trkpt>
      <trkpt lat="44.53441" lon="6.85418">
        <ele>2853.981</ele>
        <time>2017-03-13T10:02:46Z</time>
      </trkpt>
      <trkpt lat="44.53441" lon="6.85431">
        <ele>2855.405</ele>
        <time>2017-03-13T10:02:59Z</time>
      </trkpt>
      <trkpt lat="44.53443" lon="6.85441">
        <ele>2857.083</ele>
        <time>2017-03-13T10:03:12Z</time>
      </trkpt>
      <trkpt lat="44.53444" lon="6.85449">
        <ele>2858.333</ele>
        <time>2017-03-13T10:03:22Z</time>
      </trkpt>
      <trkpt lat="44.53445" lon="6.85457">
        <ele>2859.64</ele>
        <time>2017-03-13T10:03:35Z</time>
      </trkpt>
      <trkpt lat="44.53447" lon="6.85463">
        <ele>2859.491</ele>
        <time>2017-03-13T10:03:43Z</time>
      </trkpt>
      <trkpt lat="44.53449" lon="6.85473">
        <ele>2860.486</ele>
        <time>2017-03-13T10:03:55Z</time>
      </trkpt>
      <trkpt lat="44.53451" lon="6.85483">
        <ele>2861.347</ele>
        <time>2017-03-13T10:04:07Z</time>
      </trkpt>
      <trkpt lat="44.53453" lon="6.85491">
        <ele>2861.669</ele>
        <time>2017-03-13T10:04:16Z</time>
      </trkpt>
      <trkpt lat="44.53457" lon="6.85497">
        <ele>2862.619</ele>
        <time>2017-03-13T10:04:25Z</time>
      </trkpt>
      <trkpt lat="44.53459" lon="6.85508">
        <ele>2864.232</ele>
        <time>2017-03-13T10:04:38Z</time>
      </trkpt>
      <trkpt lat="44.5346" lon="6.85516">
        <ele>2864.646</ele>
        <time>2017-03-13T10:04:48Z</time>
      </trkpt>
      <trkpt lat="44.53463" lon="6.85524">
        <ele>2865.375</ele>
        <time>2017-03-13T10:04:56Z</time>
      </trkpt>
      <trkpt lat="44.53464" lon="6.85529">
        <ele>2865.662</ele>
        <time>2017-03-13T10:05:03Z</time>
      </trkpt>
      <trkpt lat="44.53467" lon="6.85535">
        <ele>2866.721</ele>
        <time>2017-03-13T10:05:10Z</time>
      </trkpt>
      <trkpt lat="44.53472" lon="6.85544">
        <ele>2867.014</ele>
        <time>2017-03-13T10:05:20Z</time>
      </trkpt>
      <trkpt lat="44.53474" lon="6.85549">
        <ele>2867.781</ele>
        <time>2017-03-13T10:05:26Z</time>
      </trkpt>
      <trkpt lat="44.53477" lon="6.85561">
        <ele>2868.065</ele>
        <time>2017-03-13T10:05:38Z</time>
      </trkpt>
      <trkpt lat="44.53478" lon="6.85567">
        <ele>2868.507</ele>
        <time>2017-03-13T10:05:46Z</time>
      </trkpt>
      <trkpt lat="44.53481" lon="6.85574">
        <ele>2868.243</ele>
        <time>2017-03-13T10:06:00Z</time>
      </trkpt>
      <trkpt lat="44.53485" lon="6.85585">
        <ele>2868.4</ele>
        <time>2017-03-13T10:06:09Z</time>
      </trkpt>
      <trkpt lat="44.53488" lon="6.85595">
        <ele>2869.255</ele>
        <time>2017-03-13T10:06:18Z</time>
      </trkpt>
      <trkpt lat="44.53491" lon="6.85602">
        <ele>2869.38</ele>
        <time>2017-03-13T10:06:27Z</time>
      </trkpt>
      <trkpt lat="44.53493" lon="6.85607">
        <ele>2870.24</ele>
        <time>2017-03-13T10:06:33Z</time>
      </trkpt>
      <trkpt lat="44.53495" lon="6.85615">
        <ele>2870.847</ele>
        <time>2017-03-13T10:06:42Z</time>
      </trkpt>
      <trkpt lat="44.53496" lon="6.8562">
        <ele>2871.582</ele>
        <time>2017-03-13T10:06:52Z</time>
      </trkpt>
      <trkpt lat="44.53498" lon="6.85622">
        <ele>2871.669</ele>
        <time>2017-03-13T10:07:01Z</time>
      </trkpt>
      <trkpt lat="44.535" lon="6.85631">
        <ele>2872.662</ele>
        <time>2017-03-13T10:07:14Z</time>
      </trkpt>
      <trkpt lat="44.53503" lon="6.85634">
        <ele>2873.026</ele>
        <time>2017-03-13T10:07:22Z</time>
      </trkpt>
      <trkpt lat="44.53511" lon="6.85643">
        <ele>2872.688</ele>
        <time>2017-03-13T10:08:00Z</time>
      </trkpt>
      <trkpt lat="44.53514" lon="6.85655">
        <ele>2873.512</ele>
        <time>2017-03-13T10:08:12Z</time>
      </trkpt>
      <trkpt lat="44.53519" lon="6.85664">
        <ele>2873.538</ele>
        <time>2017-03-13T10:08:22Z</time>
      </trkpt>
      <trkpt lat="44.53522" lon="6.85667">
        <ele>2873.913</ele>
        <time>2017-03-13T10:08:28Z</time>
      </trkpt>
      <trkpt lat="44.53525" lon="6.85675">
        <ele>2874.487</ele>
        <time>2017-03-13T10:08:37Z</time>
      </trkpt>
      <trkpt lat="44.53528" lon="6.85685">
        <ele>2874.442</ele>
        <time>2017-03-13T10:08:48Z</time>
      </trkpt>
      <trkpt lat="44.53533" lon="6.85695">
        <ele>2874.503</ele>
        <time>2017-03-13T10:09:01Z</time>
      </trkpt>
      <trkpt lat="44.53535" lon="6.85703">
        <ele>2875.178</ele>
        <time>2017-03-13T10:09:11Z</time>
      </trkpt>
      <trkpt lat="44.53539" lon="6.85716">
        <ele>2875.987</ele>
        <time>2017-03-13T10:09:22Z</time>
      </trkpt>
      <trkpt lat="44.53544" lon="6.85729">
        <ele>2876.584</ele>
        <time>2017-03-13T10:09:35Z</time>
      </trkpt>
      <trkpt lat="44.5355" lon="6.85739">
        <ele>2876.308</ele>
        <time>2017-03-13T10:09:46Z</time>
      </trkpt>
      <trkpt lat="44.53552" lon="6.85747">
        <ele>2876.825</ele>
        <time>2017-03-13T10:09:55Z</time>
      </trkpt>
      <trkpt lat="44.53555" lon="6.85756">
        <ele>2877.139</ele>
        <time>2017-03-13T10:10:06Z</time>
      </trkpt>
      <trkpt lat="44.53558" lon="6.85759">
        <ele>2877.28</ele>
        <time>2017-03-13T10:10:20Z</time>
      </trkpt>
      <trkpt lat="44.53564" lon="6.85769">
        <ele>2877.035</ele>
        <time>2017-03-13T10:10:31Z</time>
      </trkpt>
      <trkpt lat="44.53568" lon="6.85776">
        <ele>2876.829</ele>
        <time>2017-03-13T10:10:37Z</time>
      </trkpt>
      <trkpt lat="44.53569" lon="6.85787">
        <ele>2876.906</ele>
        <time>2017-03-13T10:10:46Z</time>
      </trkpt>
      <trkpt lat="44.53573" lon="6.85798">
        <ele>2877.761</ele>
        <time>2017-03-13T10:10:58Z</time>
      </trkpt>
      <trkpt lat="44.53576" lon="6.85807">
        <ele>2878.311</ele>
        <time>2017-03-13T10:11:07Z</time>
      </trkpt>
      <trkpt lat="44.53578" lon="6.85809">
        <ele>2878.516</ele>
        <time>2017-03-13T10:11:10Z</time>
      </trkpt>
      <trkpt lat="44.53579" lon="6.85811">
        <ele>2878.203</ele>
        <time>2017-03-13T10:11:12Z</time>
      </trkpt>
      <trkpt lat="44.53583" lon="6.85813">
        <ele>2878.208</ele>
        <time>2017-03-13T10:11:16Z</time>
      </trkpt>
      <trkpt lat="44.53588" lon="6.85823">
        <ele>2878.083</ele>
        <time>2017-03-13T10:11:27Z</time>
      </trkpt>
      <trkpt lat="44.53587" lon="6.85834">
        <ele>2878.037</ele>
        <time>2017-03-13T10:11:36Z</time>
      </trkpt>
      <trkpt lat="44.53592" lon="6.85849">
        <ele>2877.423</ele>
        <time>2017-03-13T10:11:49Z</time>
      </trkpt>
      <trkpt lat="44.53598" lon="6.85861">
        <ele>2877.697</ele>
        <time>2017-03-13T10:11:59Z</time>
      </trkpt>
      <trkpt lat="44.53601" lon="6.8587">
        <ele>2877.59</ele>
        <time>2017-03-13T10:12:09Z</time>
      </trkpt>
      <trkpt lat="44.53605" lon="6.85884">
        <ele>2876.438</ele>
        <time>2017-03-13T10:12:23Z</time>
      </trkpt>
      <trkpt lat="44.53608" lon="6.85893">
        <ele>2876.389</ele>
        <time>2017-03-13T10:12:32Z</time>
      </trkpt>
      <trkpt lat="44.53614" lon="6.85912">
        <ele>2876.096</ele>
        <time>2017-03-13T10:12:49Z</time>
      </trkpt>
      <trkpt lat="44.53617" lon="6.85924">
        <ele>2875.499</ele>
        <time>2017-03-13T10:13:01Z</time>
      </trkpt>
      <trkpt lat="44.53621" lon="6.85942">
        <ele>2876.369</ele>
        <time>2017-03-13T10:13:17Z</time>
      </trkpt>
      <trkpt lat="44.53623" lon="6.85952">
        <ele>2876.448</ele>
        <time>2017-03-13T10:13:32Z</time>
      </trkpt>
      <trkpt lat="44.53624" lon="6.85964">
        <ele>2877.406</ele>
        <time>2017-03-13T10:13:42Z</time>
      </trkpt>
      <trkpt lat="44.53626" lon="6.85971">
        <ele>2877.93</ele>
        <time>2017-03-13T10:14:05Z</time>
      </trkpt>
      <trkpt lat="44.53627" lon="6.85983">
        <ele>2877.713</ele>
        <time>2017-03-13T10:14:17Z</time>
      </trkpt>
      <trkpt lat="44.53628" lon="6.85995">
        <ele>2876.312</ele>
        <time>2017-03-13T10:14:47Z</time>
      </trkpt>
      <trkpt lat="44.53626" lon="6.85998">
        <ele>2877.593</ele>
        <time>2017-03-13T10:17:49Z</time>
      </trkpt>
      <trkpt lat="44.53626" lon="6.86004">
        <ele>2878.35</ele>
        <time>2017-03-13T10:18:20Z</time>
      </trkpt>
      <trkpt lat="44.53627" lon="6.86018">
        <ele>2878.681</ele>
        <time>2017-03-13T10:18:32Z</time>
      </trkpt>
      <trkpt lat="44.53627" lon="6.86026">
        <ele>2879.183</ele>
        <time>2017-03-13T10:18:42Z</time>
      </trkpt>
      <trkpt lat="44.53632" lon="6.86034">
        <ele>2878.293</ele>
        <time>2017-03-13T10:18:51Z</time>
      </trkpt>
      <trkpt lat="44.53632" lon="6.86039">
        <ele>2878.631</ele>
        <time>2017-03-13T10:18:58Z</time>
      </trkpt>
      <trkpt lat="44.53632" lon="6.86043">
        <ele>2878.981</ele>
        <time>2017-03-13T10:19:05Z</time>
      </trkpt>
      <trkpt lat="44.53634" lon="6.86053">
        <ele>2879.177</ele>
        <time>2017-03-13T10:19:16Z</time>
      </trkpt>
      <trkpt lat="44.53635" lon="6.86062">
        <ele>2879.679</ele>
        <time>2017-03-13T10:19:27Z</time>
      </trkpt>
      <trkpt lat="44.53636" lon="6.86067">
        <ele>2879.41</ele>
        <time>2017-03-13T10:19:33Z</time>
      </trkpt>
      <trkpt lat="44.53635" lon="6.86076">
        <ele>2880.292</ele>
        <time>2017-03-13T10:19:43Z</time>
      </trkpt>
      <trkpt lat="44.53637" lon="6.86085">
        <ele>2881.545</ele>
        <time>2017-03-13T10:19:54Z</time>
      </trkpt>
      <trkpt lat="44.53638" lon="6.86091">
        <ele>2882.348</ele>
        <time>2017-03-13T10:20:03Z</time>
      </trkpt>
      <trkpt lat="44.53641" lon="6.86097">
        <ele>2883.015</ele>
        <time>2017-03-13T10:20:24Z</time>
      </trkpt>
      <trkpt lat="44.53642" lon="6.86105">
        <ele>2883.656</ele>
        <time>2017-03-13T10:20:33Z</time>
      </trkpt>
      <trkpt lat="44.53643" lon="6.86109">
        <ele>2885.939</ele>
        <time>2017-03-13T10:21:38Z</time>
      </trkpt>
      <trkpt lat="44.53641" lon="6.86116">
        <ele>2886.218</ele>
        <time>2017-03-13T10:21:45Z</time>
      </trkpt>
      <trkpt lat="44.53641" lon="6.86125">
        <ele>2887.153</ele>
        <time>2017-03-13T10:21:55Z</time>
      </trkpt>
      <trkpt lat="44.5364" lon="6.86128">
        <ele>2887.848</ele>
        <time>2017-03-13T10:22:02Z</time>
      </trkpt>
      <trkpt lat="44.53638" lon="6.86132">
        <ele>2889.001</ele>
        <time>2017-03-13T10:22:12Z</time>
      </trkpt>
      <trkpt lat="44.53636" lon="6.86138">
        <ele>2890.461</ele>
        <time>2017-03-13T10:22:21Z</time>
      </trkpt>
      <trkpt lat="44.53634" lon="6.86142">
        <ele>2891.428</ele>
        <time>2017-03-13T10:22:30Z</time>
      </trkpt>
      <trkpt lat="44.53633" lon="6.86148">
        <ele>2892.244</ele>
        <time>2017-03-13T10:22:38Z</time>
      </trkpt>
      <trkpt lat="44.53632" lon="6.86153">
        <ele>2893.104</ele>
        <time>2017-03-13T10:22:45Z</time>
      </trkpt>
      <trkpt lat="44.5363" lon="6.86153">
        <ele>2893.921</ele>
        <time>2017-03-13T10:23:00Z</time>
      </trkpt>
      <trkpt lat="44.53628" lon="6.86152">
        <ele>2894.589</ele>
        <time>2017-03-13T10:23:08Z</time>
      </trkpt>
      <trkpt lat="44.53627" lon="6.86149">
        <ele>2895.527</ele>
        <time>2017-03-13T10:23:15Z</time>
      </trkpt>
      <trkpt lat="44.53624" lon="6.86146">
        <ele>2896.327</ele>
        <time>2017-03-13T10:23:25Z</time>
      </trkpt>
      <trkpt lat="44.53623" lon="6.86148">
        <ele>2898.672</ele>
        <time>2017-03-13T10:23:50Z</time>
      </trkpt>
      <trkpt lat="44.53622" lon="6.86153">
        <ele>2899.579</ele>
        <time>2017-03-13T10:23:57Z</time>
      </trkpt>
      <trkpt lat="44.5362" lon="6.86157">
        <ele>2900.794</ele>
        <time>2017-03-13T10:24:05Z</time>
      </trkpt>
      <trkpt lat="44.53618" lon="6.86161">
        <ele>2900.975</ele>
        <time>2017-03-13T10:24:12Z</time>
      </trkpt>
      <trkpt lat="44.53615" lon="6.86168">
        <ele>2902.664</ele>
        <time>2017-03-13T10:24:25Z</time>
      </trkpt>
      <trkpt lat="44.53614" lon="6.86171">
        <ele>2903.521</ele>
        <time>2017-03-13T10:24:34Z</time>
      </trkpt>
      <trkpt lat="44.53612" lon="6.86174">
        <ele>2905.057</ele>
        <time>2017-03-13T10:24:41Z</time>
      </trkpt>
      <trkpt lat="44.53613" lon="6.86185">
        <ele>2906.61</ele>
        <time>2017-03-13T10:25:01Z</time>
      </trkpt>
      <trkpt lat="44.53611" lon="6.86199">
        <ele>2907.252</ele>
        <time>2017-03-13T10:25:14Z</time>
      </trkpt>
      <trkpt lat="44.5361" lon="6.8621">
        <ele>2908.632</ele>
        <time>2017-03-13T10:25:28Z</time>
      </trkpt>
      <trkpt lat="44.53608" lon="6.86219">
        <ele>2909.311</ele>
        <time>2017-03-13T10:25:38Z</time>
      </trkpt>
      <trkpt lat="44.53607" lon="6.86223">
        <ele>2910.255</ele>
        <time>2017-03-13T10:25:45Z</time>
      </trkpt>
      <trkpt lat="44.53606" lon="6.86231">
        <ele>2910.715</ele>
        <time>2017-03-13T10:25:53Z</time>
      </trkpt>
      <trkpt lat="44.53606" lon="6.86239">
        <ele>2911.547</ele>
        <time>2017-03-13T10:26:00Z</time>
      </trkpt>
      <trkpt lat="44.53608" lon="6.86247">
        <ele>2912.282</ele>
        <time>2017-03-13T10:26:16Z</time>
      </trkpt>
      <trkpt lat="44.53607" lon="6.86253">
        <ele>2913.014</ele>
        <time>2017-03-13T10:26:23Z</time>
      </trkpt>
      <trkpt lat="44.53608" lon="6.86259">
        <ele>2913.91</ele>
        <time>2017-03-13T10:26:30Z</time>
      </trkpt>
      <trkpt lat="44.53608" lon="6.86265">
        <ele>2914.958</ele>
        <time>2017-03-13T10:26:38Z</time>
      </trkpt>
      <trkpt lat="44.53607" lon="6.86269">
        <ele>2916.149</ele>
        <time>2017-03-13T10:26:45Z</time>
      </trkpt>
      <trkpt lat="44.53605" lon="6.86273">
        <ele>2917.246</ele>
        <time>2017-03-13T10:26:53Z</time>
      </trkpt>
      <trkpt lat="44.53604" lon="6.86278">
        <ele>2918.057</ele>
        <time>2017-03-13T10:27:01Z</time>
      </trkpt>
      <trkpt lat="44.53601" lon="6.8628">
        <ele>2918.912</ele>
        <time>2017-03-13T10:27:08Z</time>
      </trkpt>
      <trkpt lat="44.53599" lon="6.86284">
        <ele>2920.324</ele>
        <time>2017-03-13T10:27:15Z</time>
      </trkpt>
      <trkpt lat="44.53596" lon="6.86288">
        <ele>2921.175</ele>
        <time>2017-03-13T10:27:22Z</time>
      </trkpt>
      <trkpt lat="44.53594" lon="6.86292">
        <ele>2921.806</ele>
        <time>2017-03-13T10:27:30Z</time>
      </trkpt>
      <trkpt lat="44.53592" lon="6.86297">
        <ele>2923.272</ele>
        <time>2017-03-13T10:27:36Z</time>
      </trkpt>
      <trkpt lat="44.5359" lon="6.86302">
        <ele>2924.23</ele>
        <time>2017-03-13T10:27:46Z</time>
      </trkpt>
      <trkpt lat="44.53587" lon="6.86309">
        <ele>2925.261</ele>
        <time>2017-03-13T10:27:57Z</time>
      </trkpt>
      <trkpt lat="44.53584" lon="6.86316">
        <ele>2926.506</ele>
        <time>2017-03-13T10:28:08Z</time>
      </trkpt>
      <trkpt lat="44.53578" lon="6.86329">
        <ele>2929.488</ele>
        <time>2017-03-13T10:28:28Z</time>
      </trkpt>
      <trkpt lat="44.53576" lon="6.86339">
        <ele>2930.676</ele>
        <time>2017-03-13T10:28:44Z</time>
      </trkpt>
      <trkpt lat="44.53576" lon="6.86341">
        <ele>2930.973</ele>
        <time>2017-03-13T10:49:46Z</time>
      </trkpt>
      <trkpt lat="44.53572" lon="6.86344">
        <ele>2931.137</ele>
        <time>2017-03-13T10:51:31Z</time>
      </trkpt>
      <trkpt lat="44.53557" lon="6.86341">
        <ele>2930.538</ele>
        <time>2017-03-13T10:52:39Z</time>
      </trkpt>
      <trkpt lat="44.53554" lon="6.86341">
        <ele>2930.538</ele>
        <time>2017-03-13T10:52:40Z</time>
      </trkpt>
      <trkpt lat="44.53547" lon="6.8635">
        <ele>2926.79</ele>
        <time>2017-03-13T10:52:44Z</time>
      </trkpt>
      <trkpt lat="44.53546" lon="6.86351">
        <ele>2926.79</ele>
        <time>2017-03-13T10:52:45Z</time>
      </trkpt>
      <trkpt lat="44.53541" lon="6.86357">
        <ele>2925.278</ele>
        <time>2017-03-13T10:52:48Z</time>
      </trkpt>
      <trkpt lat="44.53541" lon="6.86362">
        <ele>2925.278</ele>
        <time>2017-03-13T10:52:49Z</time>
      </trkpt>
      <trkpt lat="44.53542" lon="6.86367">
        <ele>2922.342</ele>
        <time>2017-03-13T10:52:51Z</time>
      </trkpt>
      <trkpt lat="44.53544" lon="6.86379">
        <ele>2921.116</ele>
        <time>2017-03-13T10:52:54Z</time>
      </trkpt>
      <trkpt lat="44.53537" lon="6.86381">
        <ele>2918.988</ele>
        <time>2017-03-13T10:52:58Z</time>
      </trkpt>
      <trkpt lat="44.53534" lon="6.86378">
        <ele>2918.989</ele>
        <time>2017-03-13T10:52:59Z</time>
      </trkpt>
      <trkpt lat="44.53515" lon="6.86364">
        <ele>2917.235</ele>
        <time>2017-03-13T10:53:05Z</time>
      </trkpt>
      <trkpt lat="44.53482" lon="6.86344">
        <ele>2914.476</ele>
        <time>2017-03-13T10:53:14Z</time>
      </trkpt>
      <trkpt lat="44.53447" lon="6.86327">
        <ele>2912.322</ele>
        <time>2017-03-13T10:53:25Z</time>
      </trkpt>
      <trkpt lat="44.53426" lon="6.86314">
        <ele>2910.875</ele>
        <time>2017-03-13T10:53:33Z</time>
      </trkpt>
      <trkpt lat="44.53413" lon="6.86304">
        <ele>2908.948</ele>
        <time>2017-03-13T10:53:41Z</time>
      </trkpt>
      <trkpt lat="44.53398" lon="6.86292">
        <ele>2908.096</ele>
        <time>2017-03-13T10:54:07Z</time>
      </trkpt>
      <trkpt lat="44.53392" lon="6.86288">
        <ele>2906.694</ele>
        <time>2017-03-13T10:54:10Z</time>
      </trkpt>
      <trkpt lat="44.53387" lon="6.8629">
        <ele>2908.602</ele>
        <time>2017-03-13T10:54:12Z</time>
      </trkpt>
      <trkpt lat="44.53383" lon="6.86286">
        <ele>2906.94</ele>
        <time>2017-03-13T10:54:15Z</time>
      </trkpt>
      <trkpt lat="44.53382" lon="6.86283">
        <ele>2905.471</ele>
        <time>2017-03-13T10:54:21Z</time>
      </trkpt>
      <trkpt lat="44.53379" lon="6.86281">
        <ele>2908.771</ele>
        <time>2017-03-13T10:54:23Z</time>
      </trkpt>
      <trkpt lat="44.53377" lon="6.8628">
        <ele>2908.771</ele>
        <time>2017-03-13T10:54:24Z</time>
      </trkpt>
      <trkpt lat="44.53369" lon="6.86273">
        <ele>2906.52</ele>
        <time>2017-03-13T10:54:27Z</time>
      </trkpt>
      <trkpt lat="44.53347" lon="6.86279">
        <ele>2904.427</ele>
        <time>2017-03-13T10:54:31Z</time>
      </trkpt>
      <trkpt lat="44.53336" lon="6.8629">
        <ele>2903.08</ele>
        <time>2017-03-13T10:54:33Z</time>
      </trkpt>
      <trkpt lat="44.53328" lon="6.863">
        <ele>2901.534</ele>
        <time>2017-03-13T10:54:36Z</time>
      </trkpt>
      <trkpt lat="44.53324" lon="6.86303">
        <ele>2899.94</ele>
        <time>2017-03-13T10:54:42Z</time>
      </trkpt>
      <trkpt lat="44.53333" lon="6.86316">
        <ele>2896.97</ele>
        <time>2017-03-13T10:54:58Z</time>
      </trkpt>
      <trkpt lat="44.53337" lon="6.8632">
        <ele>2896.975</ele>
        <time>2017-03-13T10:54:59Z</time>
      </trkpt>
      <trkpt lat="44.53334" lon="6.86338">
        <ele>2891.87</ele>
        <time>2017-03-13T10:55:04Z</time>
      </trkpt>
      <trkpt lat="44.53334" lon="6.86342">
        <ele>2890.005</ele>
        <time>2017-03-13T10:55:05Z</time>
      </trkpt>
      <trkpt lat="44.53331" lon="6.86351">
        <ele>2888.653</ele>
        <time>2017-03-13T10:55:08Z</time>
      </trkpt>
      <trkpt lat="44.53328" lon="6.86349">
        <ele>2886.915</ele>
        <time>2017-03-13T10:55:09Z</time>
      </trkpt>
      <trkpt lat="44.53325" lon="6.8635">
        <ele>2885.421</ele>
        <time>2017-03-13T10:55:11Z</time>
      </trkpt>
      <trkpt lat="44.53323" lon="6.8636">
        <ele>2884.964</ele>
        <time>2017-03-13T10:55:13Z</time>
      </trkpt>
      <trkpt lat="44.53314" lon="6.8636">
        <ele>2883.389</ele>
        <time>2017-03-13T10:55:15Z</time>
      </trkpt>
      <trkpt lat="44.53308" lon="6.86363">
        <ele>2880.586</ele>
        <time>2017-03-13T10:55:17Z</time>
      </trkpt>
      <trkpt lat="44.53307" lon="6.86371">
        <ele>2876.698</ele>
        <time>2017-03-13T10:55:18Z</time>
      </trkpt>
      <trkpt lat="44.533" lon="6.86379">
        <ele>2873.797</ele>
        <time>2017-03-13T10:55:20Z</time>
      </trkpt>
      <trkpt lat="44.53294" lon="6.86374">
        <ele>2870.241</ele>
        <time>2017-03-13T10:55:21Z</time>
      </trkpt>
      <trkpt lat="44.5328" lon="6.86371">
        <ele>2865.567</ele>
        <time>2017-03-13T10:55:24Z</time>
      </trkpt>
      <trkpt lat="44.53278" lon="6.86378">
        <ele>2862.153</ele>
        <time>2017-03-13T10:55:25Z</time>
      </trkpt>
      <trkpt lat="44.53274" lon="6.86385">
        <ele>2858.109</ele>
        <time>2017-03-13T10:55:26Z</time>
      </trkpt>
      <trkpt lat="44.5327" lon="6.86385">
        <ele>2858.12</ele>
        <time>2017-03-13T10:55:27Z</time>
      </trkpt>
      <trkpt lat="44.53266" lon="6.86382">
        <ele>2852.382</ele>
        <time>2017-03-13T10:55:28Z</time>
      </trkpt>
      <trkpt lat="44.53264" lon="6.86378">
        <ele>2852.393</ele>
        <time>2017-03-13T10:55:29Z</time>
      </trkpt>
      <trkpt lat="44.5326" lon="6.8637">
        <ele>2850.219</ele>
        <time>2017-03-13T10:55:31Z</time>
      </trkpt>
      <trkpt lat="44.53253" lon="6.86377">
        <ele>2849.205</ele>
        <time>2017-03-13T10:55:34Z</time>
      </trkpt>
      <trkpt lat="44.53252" lon="6.86387">
        <ele>2845.864</ele>
        <time>2017-03-13T10:55:36Z</time>
      </trkpt>
      <trkpt lat="44.53252" lon="6.86391">
        <ele>2844.307</ele>
        <time>2017-03-13T10:55:37Z</time>
      </trkpt>
      <trkpt lat="44.53243" lon="6.8639">
        <ele>2840.351</ele>
        <time>2017-03-13T10:55:40Z</time>
      </trkpt>
      <trkpt lat="44.53241" lon="6.86385">
        <ele>2840.363</ele>
        <time>2017-03-13T10:55:41Z</time>
      </trkpt>
      <trkpt lat="44.53233" lon="6.86377">
        <ele>2839.041</ele>
        <time>2017-03-13T10:55:43Z</time>
      </trkpt>
      <trkpt lat="44.53207" lon="6.86373">
        <ele>2835.641</ele>
        <time>2017-03-13T10:55:46Z</time>
      </trkpt>
      <trkpt lat="44.53176" lon="6.86374">
        <ele>2833.854</ele>
        <time>2017-03-13T10:55:52Z</time>
      </trkpt>
      <trkpt lat="44.53151" lon="6.86377">
        <ele>2832.512</ele>
        <time>2017-03-13T10:55:59Z</time>
      </trkpt>
      <trkpt lat="44.53126" lon="6.86385">
        <ele>2831.228</ele>
        <time>2017-03-13T10:56:04Z</time>
      </trkpt>
      <trkpt lat="44.53086" lon="6.86397">
        <ele>2828.507</ele>
        <time>2017-03-13T10:56:12Z</time>
      </trkpt>
      <trkpt lat="44.5308" lon="6.86398">
        <ele>2828.728</ele>
        <time>2017-03-13T10:56:17Z</time>
      </trkpt>
      <trkpt lat="44.53075" lon="6.86398">
        <ele>2829.227</ele>
        <time>2017-03-13T10:56:27Z</time>
      </trkpt>
      <trkpt lat="44.53065" lon="6.86394">
        <ele>2828.497</ele>
        <time>2017-03-13T10:57:17Z</time>
      </trkpt>
      <trkpt lat="44.53042" lon="6.8638">
        <ele>2827.228</ele>
        <time>2017-03-13T10:57:25Z</time>
      </trkpt>
      <trkpt lat="44.53025" lon="6.86371">
        <ele>2825.807</ele>
        <time>2017-03-13T10:57:31Z</time>
      </trkpt>
      <trkpt lat="44.5301" lon="6.86357">
        <ele>2825.357</ele>
        <time>2017-03-13T10:57:38Z</time>
      </trkpt>
      <trkpt lat="44.52995" lon="6.8635">
        <ele>2824.364</ele>
        <time>2017-03-13T10:57:44Z</time>
      </trkpt>
      <trkpt lat="44.52976" lon="6.86349">
        <ele>2823.696</ele>
        <time>2017-03-13T10:57:50Z</time>
      </trkpt>
      <trkpt lat="44.52957" lon="6.86344">
        <ele>2822.926</ele>
        <time>2017-03-13T10:57:57Z</time>
      </trkpt>
      <trkpt lat="44.52937" lon="6.86337">
        <ele>2822.983</ele>
        <time>2017-03-13T10:58:06Z</time>
      </trkpt>
      <trkpt lat="44.52929" lon="6.86328">
        <ele>2822.728</ele>
        <time>2017-03-13T10:58:13Z</time>
      </trkpt>
      <trkpt lat="44.52926" lon="6.86324">
        <ele>2822.286</ele>
        <time>2017-03-13T10:58:19Z</time>
      </trkpt>
      <trkpt lat="44.52924" lon="6.86323">
        <ele>2822.082</ele>
        <time>2017-03-13T10:59:20Z</time>
      </trkpt>
      <trkpt lat="44.52914" lon="6.86319">
        <ele>2821.547</ele>
        <time>2017-03-13T10:59:52Z</time>
      </trkpt>
      <trkpt lat="44.52894" lon="6.86334">
        <ele>2818.959</ele>
        <time>2017-03-13T10:59:57Z</time>
      </trkpt>
      <trkpt lat="44.52877" lon="6.86334">
        <ele>2817.292</ele>
        <time>2017-03-13T11:00:00Z</time>
      </trkpt>
      <trkpt lat="44.52865" lon="6.86334">
        <ele>2814.865</ele>
        <time>2017-03-13T11:00:02Z</time>
      </trkpt>
      <trkpt lat="44.52853" lon="6.86345">
        <ele>2812.479</ele>
        <time>2017-03-13T11:00:04Z</time>
      </trkpt>
      <trkpt lat="44.52828" lon="6.86352">
        <ele>2809.577</ele>
        <time>2017-03-13T11:00:08Z</time>
      </trkpt>
      <trkpt lat="44.52823" lon="6.86346">
        <ele>2809.574</ele>
        <time>2017-03-13T11:00:09Z</time>
      </trkpt>
      <trkpt lat="44.52798" lon="6.86341">
        <ele>2804.936</ele>
        <time>2017-03-13T11:00:13Z</time>
      </trkpt>
      <trkpt lat="44.52782" lon="6.86343">
        <ele>2800.798</ele>
        <time>2017-03-13T11:00:16Z</time>
      </trkpt>
      <trkpt lat="44.52779" lon="6.86346">
        <ele>2800.798</ele>
        <time>2017-03-13T11:00:17Z</time>
      </trkpt>
      <trkpt lat="44.52766" lon="6.86346">
        <ele>2798.782</ele>
        <time>2017-03-13T11:00:22Z</time>
      </trkpt>
      <trkpt lat="44.52764" lon="6.86346">
        <ele>2797.997</ele>
        <time>2017-03-13T11:01:21Z</time>
      </trkpt>
      <trkpt lat="44.52757" lon="6.86339">
        <ele>2797.958</ele>
        <time>2017-03-13T11:01:25Z</time>
      </trkpt>
      <trkpt lat="44.52754" lon="6.86337">
        <ele>2797.272</ele>
        <time>2017-03-13T11:01:26Z</time>
      </trkpt>
      <trkpt lat="44.52741" lon="6.86343">
        <ele>2795.901</ele>
        <time>2017-03-13T11:01:29Z</time>
      </trkpt>
      <trkpt lat="44.5273" lon="6.86343">
        <ele>2792.85</ele>
        <time>2017-03-13T11:01:31Z</time>
      </trkpt>
      <trkpt lat="44.52713" lon="6.86348">
        <ele>2790.385</ele>
        <time>2017-03-13T11:01:34Z</time>
      </trkpt>
      <trkpt lat="44.52703" lon="6.86358">
        <ele>2787.929</ele>
        <time>2017-03-13T11:01:36Z</time>
      </trkpt>
      <trkpt lat="44.52689" lon="6.86364">
        <ele>2785.147</ele>
        <time>2017-03-13T11:01:39Z</time>
      </trkpt>
      <trkpt lat="44.52676" lon="6.8637">
        <ele>2783.505</ele>
        <time>2017-03-13T11:01:42Z</time>
      </trkpt>
      <trkpt lat="44.52653" lon="6.8637">
        <ele>2780.599</ele>
        <time>2017-03-13T11:01:47Z</time>
      </trkpt>
      <trkpt lat="44.5265" lon="6.86364">
        <ele>2780.6</ele>
        <time>2017-03-13T11:01:48Z</time>
      </trkpt>
      <trkpt lat="44.52645" lon="6.86354">
        <ele>2780.562</ele>
        <time>2017-03-13T11:01:50Z</time>
      </trkpt>
      <trkpt lat="44.52628" lon="6.86347">
        <ele>2778.062</ele>
        <time>2017-03-13T11:01:54Z</time>
      </trkpt>
      <trkpt lat="44.52603" lon="6.86342">
        <ele>2775.168</ele>
        <time>2017-03-13T11:01:59Z</time>
      </trkpt>
      <trkpt lat="44.52583" lon="6.86343">
        <ele>2772.6</ele>
        <time>2017-03-13T11:02:02Z</time>
      </trkpt>
      <trkpt lat="44.52571" lon="6.86344">
        <ele>2771.021</ele>
        <time>2017-03-13T11:02:04Z</time>
      </trkpt>
      <trkpt lat="44.52563" lon="6.86338">
        <ele>2769.695</ele>
        <time>2017-03-13T11:02:06Z</time>
      </trkpt>
      <trkpt lat="44.52559" lon="6.86325">
        <ele>2767.487</ele>
        <time>2017-03-13T11:02:09Z</time>
      </trkpt>
      <trkpt lat="44.52549" lon="6.86322">
        <ele>2766.564</ele>
        <time>2017-03-13T11:02:12Z</time>
      </trkpt>
      <trkpt lat="44.52534" lon="6.86308">
        <ele>2763.017</ele>
        <time>2017-03-13T11:02:15Z</time>
      </trkpt>
      <trkpt lat="44.52531" lon="6.86302">
        <ele>2763.017</ele>
        <time>2017-03-13T11:02:16Z</time>
      </trkpt>
      <trkpt lat="44.52516" lon="6.86277">
        <ele>2761.878</ele>
        <time>2017-03-13T11:02:22Z</time>
      </trkpt>
      <trkpt lat="44.52496" lon="6.86278">
        <ele>2760.136</ele>
        <time>2017-03-13T11:02:26Z</time>
      </trkpt>
      <trkpt lat="44.52478" lon="6.86278">
        <ele>2757.432</ele>
        <time>2017-03-13T11:02:29Z</time>
      </trkpt>
      <trkpt lat="44.52473" lon="6.86278">
        <ele>2755.988</ele>
        <time>2017-03-13T11:02:30Z</time>
      </trkpt>
      <trkpt lat="44.52462" lon="6.86279">
        <ele>2755.068</ele>
        <time>2017-03-13T11:02:32Z</time>
      </trkpt>
      <trkpt lat="44.52453" lon="6.86285">
        <ele>2754.067</ele>
        <time>2017-03-13T11:02:34Z</time>
      </trkpt>
      <trkpt lat="44.52443" lon="6.8629">
        <ele>2753.422</ele>
        <time>2017-03-13T11:02:36Z</time>
      </trkpt>
      <trkpt lat="44.52431" lon="6.86294">
        <ele>2750.972</ele>
        <time>2017-03-13T11:02:39Z</time>
      </trkpt>
      <trkpt lat="44.52431" lon="6.86298">
        <ele>2749.559</ele>
        <time>2017-03-13T11:02:40Z</time>
      </trkpt>
      <trkpt lat="44.52424" lon="6.86306">
        <ele>2748.227</ele>
        <time>2017-03-13T11:02:43Z</time>
      </trkpt>
      <trkpt lat="44.52421" lon="6.86307">
        <ele>2747.362</ele>
        <time>2017-03-13T11:02:44Z</time>
      </trkpt>
      <trkpt lat="44.52418" lon="6.86314">
        <ele>2746.407</ele>
        <time>2017-03-13T11:02:46Z</time>
      </trkpt>
      <trkpt lat="44.52422" lon="6.86327">
        <ele>2744.913</ele>
        <time>2017-03-13T11:02:48Z</time>
      </trkpt>
      <trkpt lat="44.52424" lon="6.86335">
        <ele>2743.509</ele>
        <time>2017-03-13T11:02:49Z</time>
      </trkpt>
      <trkpt lat="44.52417" lon="6.86347">
        <ele>2738.908</ele>
        <time>2017-03-13T11:03:48Z</time>
      </trkpt>
      <trkpt lat="44.5241" lon="6.86341">
        <ele>2738.861</ele>
        <time>2017-03-13T11:04:05Z</time>
      </trkpt>
      <trkpt lat="44.52397" lon="6.86348">
        <ele>2736.331</ele>
        <time>2017-03-13T11:04:08Z</time>
      </trkpt>
      <trkpt lat="44.52386" lon="6.8635">
        <ele>2733.691</ele>
        <time>2017-03-13T11:04:10Z</time>
      </trkpt>
      <trkpt lat="44.52376" lon="6.86359">
        <ele>2731.388</ele>
        <time>2017-03-13T11:04:12Z</time>
      </trkpt>
      <trkpt lat="44.52366" lon="6.86359">
        <ele>2728.701</ele>
        <time>2017-03-13T11:04:14Z</time>
      </trkpt>
      <trkpt lat="44.52356" lon="6.86363">
        <ele>2725.834</ele>
        <time>2017-03-13T11:04:16Z</time>
      </trkpt>
      <trkpt lat="44.52352" lon="6.86367">
        <ele>2722.808</ele>
        <time>2017-03-13T11:04:17Z</time>
      </trkpt>
      <trkpt lat="44.52346" lon="6.86368">
        <ele>2722.812</ele>
        <time>2017-03-13T11:04:18Z</time>
      </trkpt>
      <trkpt lat="44.52341" lon="6.86365">
        <ele>2719.518</ele>
        <time>2017-03-13T11:04:19Z</time>
      </trkpt>
      <trkpt lat="44.52337" lon="6.86365">
        <ele>2716.043</ele>
        <time>2017-03-13T11:04:20Z</time>
      </trkpt>
      <trkpt lat="44.52333" lon="6.86371">
        <ele>2716.05</ele>
        <time>2017-03-13T11:04:21Z</time>
      </trkpt>
      <trkpt lat="44.5232" lon="6.86373">
        <ele>2713.068</ele>
        <time>2017-03-13T11:04:23Z</time>
      </trkpt>
      <trkpt lat="44.52296" lon="6.86386">
        <ele>2704.635</ele>
        <time>2017-03-13T11:04:27Z</time>
      </trkpt>
      <trkpt lat="44.52277" lon="6.86391">
        <ele>2702.719</ele>
        <time>2017-03-13T11:04:30Z</time>
      </trkpt>
      <trkpt lat="44.52263" lon="6.86394">
        <ele>2700.068</ele>
        <time>2017-03-13T11:04:32Z</time>
      </trkpt>
      <trkpt lat="44.52256" lon="6.86395">
        <ele>2697.882</ele>
        <time>2017-03-13T11:04:33Z</time>
      </trkpt>
      <trkpt lat="44.52234" lon="6.864">
        <ele>2693.784</ele>
        <time>2017-03-13T11:04:36Z</time>
      </trkpt>
      <trkpt lat="44.52218" lon="6.86404">
        <ele>2691.612</ele>
        <time>2017-03-13T11:04:39Z</time>
      </trkpt>
      <trkpt lat="44.52213" lon="6.86406">
        <ele>2690.477</ele>
        <time>2017-03-13T11:04:40Z</time>
      </trkpt>
      <trkpt lat="44.52195" lon="6.86412">
        <ele>2687.454</ele>
        <time>2017-03-13T11:04:44Z</time>
      </trkpt>
      <trkpt lat="44.52186" lon="6.86413">
        <ele>2685.601</ele>
        <time>2017-03-13T11:05:31Z</time>
      </trkpt>
      <trkpt lat="44.52172" lon="6.86415">
        <ele>2683.94</ele>
        <time>2017-03-13T11:05:34Z</time>
      </trkpt>
      <trkpt lat="44.52154" lon="6.86405">
        <ele>2682.128</ele>
        <time>2017-03-13T11:05:37Z</time>
      </trkpt>
      <trkpt lat="44.52149" lon="6.864">
        <ele>2680.687</ele>
        <time>2017-03-13T11:05:38Z</time>
      </trkpt>
      <trkpt lat="44.52131" lon="6.86398">
        <ele>2676.892</ele>
        <time>2017-03-13T11:05:41Z</time>
      </trkpt>
      <trkpt lat="44.52125" lon="6.86399">
        <ele>2676.904</ele>
        <time>2017-03-13T11:05:42Z</time>
      </trkpt>
      <trkpt lat="44.52115" lon="6.86398">
        <ele>2674.54</ele>
        <time>2017-03-13T11:05:44Z</time>
      </trkpt>
      <trkpt lat="44.52102" lon="6.86399">
        <ele>2671.966</ele>
        <time>2017-03-13T11:05:46Z</time>
      </trkpt>
      <trkpt lat="44.52085" lon="6.864">
        <ele>2667.073</ele>
        <time>2017-03-13T11:05:49Z</time>
      </trkpt>
      <trkpt lat="44.52073" lon="6.864">
        <ele>2664.381</ele>
        <time>2017-03-13T11:05:51Z</time>
      </trkpt>
      <trkpt lat="44.52068" lon="6.86398">
        <ele>2661.807</ele>
        <time>2017-03-13T11:05:52Z</time>
      </trkpt>
      <trkpt lat="44.52048" lon="6.86398">
        <ele>2655.796</ele>
        <time>2017-03-13T11:05:55Z</time>
      </trkpt>
      <trkpt lat="44.52033" lon="6.86414">
        <ele>2653.492</ele>
        <time>2017-03-13T11:05:58Z</time>
      </trkpt>
      <trkpt lat="44.52027" lon="6.86429">
        <ele>2651.198</ele>
        <time>2017-03-13T11:06:00Z</time>
      </trkpt>
      <trkpt lat="44.52016" lon="6.86445">
        <ele>2649.819</ele>
        <time>2017-03-13T11:06:04Z</time>
      </trkpt>
      <trkpt lat="44.52012" lon="6.86449">
        <ele>2649.082</ele>
        <time>2017-03-13T11:06:06Z</time>
      </trkpt>
      <trkpt lat="44.52004" lon="6.86443">
        <ele>2648.123</ele>
        <time>2017-03-13T11:06:09Z</time>
      </trkpt>
      <trkpt lat="44.51997" lon="6.86439">
        <ele>2643.647</ele>
        <time>2017-03-13T11:06:11Z</time>
      </trkpt>
      <trkpt lat="44.51992" lon="6.86428">
        <ele>2639.187</ele>
        <time>2017-03-13T11:06:13Z</time>
      </trkpt>
      <trkpt lat="44.51984" lon="6.86424">
        <ele>2636.177</ele>
        <time>2017-03-13T11:06:15Z</time>
      </trkpt>
      <trkpt lat="44.51982" lon="6.8641">
        <ele>2631.587</ele>
        <time>2017-03-13T11:06:17Z</time>
      </trkpt>
      <trkpt lat="44.51981" lon="6.86402">
        <ele>2627.584</ele>
        <time>2017-03-13T11:06:18Z</time>
      </trkpt>
      <trkpt lat="44.51979" lon="6.864">
        <ele>2627.584</ele>
        <time>2017-03-13T11:06:19Z</time>
      </trkpt>
      <trkpt lat="44.51969" lon="6.86396">
        <ele>2623.602</ele>
        <time>2017-03-13T11:06:21Z</time>
      </trkpt>
      <trkpt lat="44.51967" lon="6.86389">
        <ele>2619.985</ele>
        <time>2017-03-13T11:06:22Z</time>
      </trkpt>
      <trkpt lat="44.51965" lon="6.86379">
        <ele>2619.985</ele>
        <time>2017-03-13T11:06:23Z</time>
      </trkpt>
      <trkpt lat="44.51954" lon="6.86361">
        <ele>2616.558</ele>
        <time>2017-03-13T11:06:26Z</time>
      </trkpt>
      <trkpt lat="44.51941" lon="6.8636">
        <ele>2615.289</ele>
        <time>2017-03-13T11:06:28Z</time>
      </trkpt>
      <trkpt lat="44.51923" lon="6.86366">
        <ele>2613.749</ele>
        <time>2017-03-13T11:06:30Z</time>
      </trkpt>
      <trkpt lat="44.51905" lon="6.86377">
        <ele>2609.328</ele>
        <time>2017-03-13T11:06:32Z</time>
      </trkpt>
      <trkpt lat="44.51874" lon="6.86389">
        <ele>2606.826</ele>
        <time>2017-03-13T11:06:35Z</time>
      </trkpt>
      <trkpt lat="44.51864" lon="6.86394">
        <ele>2605.029</ele>
        <time>2017-03-13T11:06:36Z</time>
      </trkpt>
      <trkpt lat="44.51833" lon="6.86412">
        <ele>2599.988</ele>
        <time>2017-03-13T11:06:39Z</time>
      </trkpt>
      <trkpt lat="44.51824" lon="6.86419">
        <ele>2599.988</ele>
        <time>2017-03-13T11:06:40Z</time>
      </trkpt>
      <trkpt lat="44.51816" lon="6.86424">
        <ele>2598.571</ele>
        <time>2017-03-13T11:06:41Z</time>
      </trkpt>
      <trkpt lat="44.51794" lon="6.86436">
        <ele>2596.568</ele>
        <time>2017-03-13T11:06:45Z</time>
      </trkpt>
      <trkpt lat="44.51788" lon="6.86443">
        <ele>2596.518</ele>
        <time>2017-03-13T11:06:48Z</time>
      </trkpt>
      <trkpt lat="44.51788" lon="6.86447">
        <ele>2595.303</ele>
        <time>2017-03-13T11:08:34Z</time>
      </trkpt>
      <trkpt lat="44.51789" lon="6.8645">
        <ele>2595.823</ele>
        <time>2017-03-13T11:11:10Z</time>
      </trkpt>
      <trkpt lat="44.51788" lon="6.86454">
        <ele>2595.258</ele>
        <time>2017-03-13T11:12:51Z</time>
      </trkpt>
      <trkpt lat="44.51785" lon="6.86455">
        <ele>2599.528</ele>
        <time>2017-03-13T11:15:26Z</time>
      </trkpt>
      <trkpt lat="44.51776" lon="6.86459">
        <ele>2599.945</ele>
        <time>2017-03-13T11:15:38Z</time>
      </trkpt>
      <trkpt lat="44.51771" lon="6.86462">
        <ele>2599.654</ele>
        <time>2017-03-13T11:15:49Z</time>
      </trkpt>
      <trkpt lat="44.51759" lon="6.86459">
        <ele>2600.233</ele>
        <time>2017-03-13T11:16:01Z</time>
      </trkpt>
      <trkpt lat="44.51753" lon="6.8646">
        <ele>2600.908</ele>
        <time>2017-03-13T11:16:08Z</time>
      </trkpt>
      <trkpt lat="44.51744" lon="6.86463">
        <ele>2601.635</ele>
        <time>2017-03-13T11:16:18Z</time>
      </trkpt>
      <trkpt lat="44.51738" lon="6.86465">
        <ele>2602.016</ele>
        <time>2017-03-13T11:16:26Z</time>
      </trkpt>
      <trkpt lat="44.51725" lon="6.86463">
        <ele>2602.302</ele>
        <time>2017-03-13T11:16:37Z</time>
      </trkpt>
      <trkpt lat="44.51722" lon="6.86471">
        <ele>2602.826</ele>
        <time>2017-03-13T11:16:45Z</time>
      </trkpt>
      <trkpt lat="44.5171" lon="6.86471">
        <ele>2604.304</ele>
        <time>2017-03-13T11:16:59Z</time>
      </trkpt>
      <trkpt lat="44.51701" lon="6.86472">
        <ele>2605.123</ele>
        <time>2017-03-13T11:17:13Z</time>
      </trkpt>
      <trkpt lat="44.51696" lon="6.86475">
        <ele>2605.866</ele>
        <time>2017-03-13T11:17:22Z</time>
      </trkpt>
      <trkpt lat="44.51692" lon="6.86475">
        <ele>2605.617</ele>
        <time>2017-03-13T11:17:27Z</time>
      </trkpt>
      <trkpt lat="44.51686" lon="6.86473">
        <ele>2605.584</ele>
        <time>2017-03-13T11:17:35Z</time>
      </trkpt>
      <trkpt lat="44.51676" lon="6.86474">
        <ele>2604.968</ele>
        <time>2017-03-13T11:17:42Z</time>
      </trkpt>
      <trkpt lat="44.51668" lon="6.86475">
        <ele>2604.441</ele>
        <time>2017-03-13T11:17:48Z</time>
      </trkpt>
      <trkpt lat="44.51654" lon="6.86478">
        <ele>2603.988</ele>
        <time>2017-03-13T11:17:56Z</time>
      </trkpt>
      <trkpt lat="44.51642" lon="6.86482">
        <ele>2603.949</ele>
        <time>2017-03-13T11:18:06Z</time>
      </trkpt>
      <trkpt lat="44.51633" lon="6.86485">
        <ele>2604.154</ele>
        <time>2017-03-13T11:18:14Z</time>
      </trkpt>
      <trkpt lat="44.51624" lon="6.86488">
        <ele>2604.141</ele>
        <time>2017-03-13T11:18:23Z</time>
      </trkpt>
      <trkpt lat="44.5162" lon="6.86489">
        <ele>2603.897</ele>
        <time>2017-03-13T11:18:29Z</time>
      </trkpt>
      <trkpt lat="44.51612" lon="6.86489">
        <ele>2604.312</ele>
        <time>2017-03-13T11:18:39Z</time>
      </trkpt>
      <trkpt lat="44.51605" lon="6.86488">
        <ele>2605.104</ele>
        <time>2017-03-13T11:18:49Z</time>
      </trkpt>
      <trkpt lat="44.51599" lon="6.86488">
        <ele>2605.739</ele>
        <time>2017-03-13T11:18:57Z</time>
      </trkpt>
      <trkpt lat="44.51592" lon="6.86486">
        <ele>2606.556</ele>
        <time>2017-03-13T11:19:06Z</time>
      </trkpt>
      <trkpt lat="44.51587" lon="6.86486">
        <ele>2607.007</ele>
        <time>2017-03-13T11:19:13Z</time>
      </trkpt>
      <trkpt lat="44.51582" lon="6.86486">
        <ele>2606.968</ele>
        <time>2017-03-13T11:19:21Z</time>
      </trkpt>
      <trkpt lat="44.51574" lon="6.86488">
        <ele>2607.854</ele>
        <time>2017-03-13T11:19:35Z</time>
      </trkpt>
      <trkpt lat="44.5157" lon="6.86487">
        <ele>2607.803</ele>
        <time>2017-03-13T11:19:42Z</time>
      </trkpt>
      <trkpt lat="44.51564" lon="6.86487">
        <ele>2608.96</ele>
        <time>2017-03-13T11:19:52Z</time>
      </trkpt>
      <trkpt lat="44.51555" lon="6.86488">
        <ele>2609.101</ele>
        <time>2017-03-13T11:20:03Z</time>
      </trkpt>
      <trkpt lat="44.51549" lon="6.86488">
        <ele>2609.813</ele>
        <time>2017-03-13T11:20:14Z</time>
      </trkpt>
      <trkpt lat="44.51541" lon="6.8649">
        <ele>2610.698</ele>
        <time>2017-03-13T11:20:26Z</time>
      </trkpt>
      <trkpt lat="44.51534" lon="6.86491">
        <ele>2612.007</ele>
        <time>2017-03-13T11:20:38Z</time>
      </trkpt>
      <trkpt lat="44.51526" lon="6.86489">
        <ele>2614.523</ele>
        <time>2017-03-13T11:21:03Z</time>
      </trkpt>
      <trkpt lat="44.51518" lon="6.8649">
        <ele>2615.843</ele>
        <time>2017-03-13T11:21:14Z</time>
      </trkpt>
      <trkpt lat="44.51512" lon="6.86491">
        <ele>2616.671</ele>
        <time>2017-03-13T11:21:21Z</time>
      </trkpt>
      <trkpt lat="44.51502" lon="6.86492">
        <ele>2617.512</ele>
        <time>2017-03-13T11:21:32Z</time>
      </trkpt>
      <trkpt lat="44.5149" lon="6.86497">
        <ele>2618.327</ele>
        <time>2017-03-13T11:21:47Z</time>
      </trkpt>
      <trkpt lat="44.51481" lon="6.86502">
        <ele>2619.026</ele>
        <time>2017-03-13T11:22:01Z</time>
      </trkpt>
      <trkpt lat="44.5147" lon="6.86507">
        <ele>2620.072</ele>
        <time>2017-03-13T11:22:17Z</time>
      </trkpt>
      <trkpt lat="44.51466" lon="6.86507">
        <ele>2620.901</ele>
        <time>2017-03-13T11:22:23Z</time>
      </trkpt>
      <trkpt lat="44.51464" lon="6.86508">
        <ele>2621.112</ele>
        <time>2017-03-13T11:22:32Z</time>
      </trkpt>
      <trkpt lat="44.5146" lon="6.86505">
        <ele>2622.198</ele>
        <time>2017-03-13T11:22:40Z</time>
      </trkpt>
      <trkpt lat="44.51453" lon="6.86505">
        <ele>2624.097</ele>
        <time>2017-03-13T11:22:55Z</time>
      </trkpt>
      <trkpt lat="44.51446" lon="6.865">
        <ele>2625.557</ele>
        <time>2017-03-13T11:23:09Z</time>
      </trkpt>
      <trkpt lat="44.51441" lon="6.86497">
        <ele>2626.746</ele>
        <time>2017-03-13T11:23:21Z</time>
      </trkpt>
      <trkpt lat="44.51436" lon="6.86493">
        <ele>2628.025</ele>
        <time>2017-03-13T11:23:32Z</time>
      </trkpt>
      <trkpt lat="44.51427" lon="6.86494">
        <ele>2629.081</ele>
        <time>2017-03-13T11:23:47Z</time>
      </trkpt>
      <trkpt lat="44.51422" lon="6.86493">
        <ele>2630.203</ele>
        <time>2017-03-13T11:23:58Z</time>
      </trkpt>
      <trkpt lat="44.51417" lon="6.86494">
        <ele>2630.593</ele>
        <time>2017-03-13T11:24:10Z</time>
      </trkpt>
      <trkpt lat="44.51412" lon="6.86494">
        <ele>2632.145</ele>
        <time>2017-03-13T11:24:19Z</time>
      </trkpt>
      <trkpt lat="44.51406" lon="6.86495">
        <ele>2633.641</ele>
        <time>2017-03-13T11:24:32Z</time>
      </trkpt>
      <trkpt lat="44.51402" lon="6.86494">
        <ele>2634.514</ele>
        <time>2017-03-13T11:24:41Z</time>
      </trkpt>
      <trkpt lat="44.51395" lon="6.86494">
        <ele>2635.758</ele>
        <time>2017-03-13T11:24:55Z</time>
      </trkpt>
      <trkpt lat="44.51388" lon="6.86492">
        <ele>2636.695</ele>
        <time>2017-03-13T11:25:06Z</time>
      </trkpt>
      <trkpt lat="44.51382" lon="6.86494">
        <ele>2638.23</ele>
        <time>2017-03-13T11:25:18Z</time>
      </trkpt>
      <trkpt lat="44.51374" lon="6.86495">
        <ele>2640.521</ele>
        <time>2017-03-13T11:25:36Z</time>
      </trkpt>
      <trkpt lat="44.51368" lon="6.86495">
        <ele>2641.325</ele>
        <time>2017-03-13T11:25:48Z</time>
      </trkpt>
      <trkpt lat="44.51364" lon="6.86495">
        <ele>2642.147</ele>
        <time>2017-03-13T11:25:56Z</time>
      </trkpt>
      <trkpt lat="44.5136" lon="6.86494">
        <ele>2643.194</ele>
        <time>2017-03-13T11:26:06Z</time>
      </trkpt>
      <trkpt lat="44.51357" lon="6.86494">
        <ele>2643.804</ele>
        <time>2017-03-13T11:26:13Z</time>
      </trkpt>
      <trkpt lat="44.51353" lon="6.86493">
        <ele>2644.645</ele>
        <time>2017-03-13T11:26:27Z</time>
      </trkpt>
      <trkpt lat="44.51347" lon="6.86493">
        <ele>2645.713</ele>
        <time>2017-03-13T11:26:37Z</time>
      </trkpt>
      <trkpt lat="44.5134" lon="6.86494">
        <ele>2647.247</ele>
        <time>2017-03-13T11:26:49Z</time>
      </trkpt>
      <trkpt lat="44.51333" lon="6.86494">
        <ele>2648.391</ele>
        <time>2017-03-13T11:27:03Z</time>
      </trkpt>
      <trkpt lat="44.51329" lon="6.86494">
        <ele>2649.163</ele>
        <time>2017-03-13T11:27:12Z</time>
      </trkpt>
      <trkpt lat="44.51325" lon="6.86496">
        <ele>2650.896</ele>
        <time>2017-03-13T11:27:20Z</time>
      </trkpt>
      <trkpt lat="44.51322" lon="6.86496">
        <ele>2650.941</ele>
        <time>2017-03-13T11:27:26Z</time>
      </trkpt>
      <trkpt lat="44.51317" lon="6.86499">
        <ele>2652.156</ele>
        <time>2017-03-13T11:27:37Z</time>
      </trkpt>
      <trkpt lat="44.51313" lon="6.865">
        <ele>2653.104</ele>
        <time>2017-03-13T11:27:44Z</time>
      </trkpt>
      <trkpt lat="44.51308" lon="6.86503">
        <ele>2654.057</ele>
        <time>2017-03-13T11:27:52Z</time>
      </trkpt>
      <trkpt lat="44.513" lon="6.86511">
        <ele>2654.482</ele>
        <time>2017-03-13T11:28:05Z</time>
      </trkpt>
      <trkpt lat="44.51294" lon="6.86518">
        <ele>2655.789</ele>
        <time>2017-03-13T11:28:16Z</time>
      </trkpt>
      <trkpt lat="44.51288" lon="6.86521">
        <ele>2657.593</ele>
        <time>2017-03-13T11:28:29Z</time>
      </trkpt>
      <trkpt lat="44.51284" lon="6.86523">
        <ele>2658.717</ele>
        <time>2017-03-13T11:28:38Z</time>
      </trkpt>
      <trkpt lat="44.51281" lon="6.86526">
        <ele>2659.8</ele>
        <time>2017-03-13T11:28:45Z</time>
      </trkpt>
      <trkpt lat="44.51278" lon="6.86528">
        <ele>2660.593</ele>
        <time>2017-03-13T11:28:52Z</time>
      </trkpt>
      <trkpt lat="44.51272" lon="6.86533">
        <ele>2662.099</ele>
        <time>2017-03-13T11:29:05Z</time>
      </trkpt>
      <trkpt lat="44.51266" lon="6.86537">
        <ele>2663.898</ele>
        <time>2017-03-13T11:29:18Z</time>
      </trkpt>
      <trkpt lat="44.51258" lon="6.86541">
        <ele>2665.859</ele>
        <time>2017-03-13T11:29:35Z</time>
      </trkpt>
      <trkpt lat="44.5125" lon="6.86547">
        <ele>2668.969</ele>
        <time>2017-03-13T11:29:52Z</time>
      </trkpt>
      <trkpt lat="44.5124" lon="6.86554">
        <ele>2671.753</ele>
        <time>2017-03-13T11:30:14Z</time>
      </trkpt>
      <trkpt lat="44.51237" lon="6.86558">
        <ele>2673.174</ele>
        <time>2017-03-13T11:30:25Z</time>
      </trkpt>
      <trkpt lat="44.51229" lon="6.86563">
        <ele>2674.96</ele>
        <time>2017-03-13T11:30:40Z</time>
      </trkpt>
      <trkpt lat="44.51221" lon="6.86563">
        <ele>2676.724</ele>
        <time>2017-03-13T11:30:56Z</time>
      </trkpt>
      <trkpt lat="44.51212" lon="6.86563">
        <ele>2678.387</ele>
        <time>2017-03-13T11:31:12Z</time>
      </trkpt>
      <trkpt lat="44.51206" lon="6.86564">
        <ele>2679.801</ele>
        <time>2017-03-13T11:31:24Z</time>
      </trkpt>
      <trkpt lat="44.51199" lon="6.86565">
        <ele>2682.397</ele>
        <time>2017-03-13T11:31:41Z</time>
      </trkpt>
      <trkpt lat="44.51191" lon="6.86564">
        <ele>2683.84</ele>
        <time>2017-03-13T11:31:55Z</time>
      </trkpt>
      <trkpt lat="44.51181" lon="6.86563">
        <ele>2686.357</ele>
        <time>2017-03-13T11:32:12Z</time>
      </trkpt>
      <trkpt lat="44.51174" lon="6.86562">
        <ele>2687.644</ele>
        <time>2017-03-13T11:32:22Z</time>
      </trkpt>
      <trkpt lat="44.51166" lon="6.8656">
        <ele>2690.302</ele>
        <time>2017-03-13T11:32:37Z</time>
      </trkpt>
      <trkpt lat="44.51159" lon="6.86558">
        <ele>2690.996</ele>
        <time>2017-03-13T11:32:52Z</time>
      </trkpt>
      <trkpt lat="44.51155" lon="6.86552">
        <ele>2691.897</ele>
        <time>2017-03-13T11:33:39Z</time>
      </trkpt>
      <trkpt lat="44.51152" lon="6.86549">
        <ele>2692.206</ele>
        <time>2017-03-13T11:33:47Z</time>
      </trkpt>
      <trkpt lat="44.51142" lon="6.86539">
        <ele>2693.769</ele>
        <time>2017-03-13T11:34:02Z</time>
      </trkpt>
      <trkpt lat="44.51138" lon="6.86529">
        <ele>2695.69</ele>
        <time>2017-03-13T11:34:16Z</time>
      </trkpt>
      <trkpt lat="44.51135" lon="6.86517">
        <ele>2696.828</ele>
        <time>2017-03-13T11:34:28Z</time>
      </trkpt>
      <trkpt lat="44.51134" lon="6.86506">
        <ele>2698.985</ele>
        <time>2017-03-13T11:34:43Z</time>
      </trkpt>
      <trkpt lat="44.51128" lon="6.86493">
        <ele>2700.347</ele>
        <time>2017-03-13T11:35:00Z</time>
      </trkpt>
      <trkpt lat="44.51119" lon="6.86484">
        <ele>2700.968</ele>
        <time>2017-03-13T11:35:14Z</time>
      </trkpt>
      <trkpt lat="44.51117" lon="6.86484">
        <ele>2701.413</ele>
        <time>2017-03-13T11:35:17Z</time>
      </trkpt>
      <trkpt lat="44.51106" lon="6.8648">
        <ele>2700.248</ele>
        <time>2017-03-13T11:35:27Z</time>
      </trkpt>
      <trkpt lat="44.51097" lon="6.86473">
        <ele>2701.914</ele>
        <time>2017-03-13T11:35:44Z</time>
      </trkpt>
      <trkpt lat="44.5109" lon="6.86468">
        <ele>2702.854</ele>
        <time>2017-03-13T11:35:55Z</time>
      </trkpt>
      <trkpt lat="44.51082" lon="6.86463">
        <ele>2703.541</ele>
        <time>2017-03-13T11:36:06Z</time>
      </trkpt>
      <trkpt lat="44.51069" lon="6.86455">
        <ele>2705.259</ele>
        <time>2017-03-13T11:36:22Z</time>
      </trkpt>
      <trkpt lat="44.5106" lon="6.86451">
        <ele>2706.925</ele>
        <time>2017-03-13T11:36:38Z</time>
      </trkpt>
      <trkpt lat="44.51054" lon="6.86447">
        <ele>2707.659</ele>
        <time>2017-03-13T11:36:49Z</time>
      </trkpt>
      <trkpt lat="44.51045" lon="6.86444">
        <ele>2709.014</ele>
        <time>2017-03-13T11:37:02Z</time>
      </trkpt>
      <trkpt lat="44.51038" lon="6.86442">
        <ele>2709.922</ele>
        <time>2017-03-13T11:37:11Z</time>
      </trkpt>
      <trkpt lat="44.51028" lon="6.86438">
        <ele>2711.525</ele>
        <time>2017-03-13T11:37:26Z</time>
      </trkpt>
      <trkpt lat="44.51018" lon="6.86434">
        <ele>2712.655</ele>
        <time>2017-03-13T11:37:40Z</time>
      </trkpt>
      <trkpt lat="44.5101" lon="6.86431">
        <ele>2713.141</ele>
        <time>2017-03-13T11:37:51Z</time>
      </trkpt>
      <trkpt lat="44.51001" lon="6.86428">
        <ele>2715.147</ele>
        <time>2017-03-13T11:38:06Z</time>
      </trkpt>
      <trkpt lat="44.50999" lon="6.86427">
        <ele>2715.971</ele>
        <time>2017-03-13T11:38:17Z</time>
      </trkpt>
      <trkpt lat="44.50992" lon="6.86424">
        <ele>2717.335</ele>
        <time>2017-03-13T11:38:29Z</time>
      </trkpt>
      <trkpt lat="44.50985" lon="6.86422">
        <ele>2719.67</ele>
        <time>2017-03-13T11:38:43Z</time>
      </trkpt>
      <trkpt lat="44.50974" lon="6.86418">
        <ele>2722.577</ele>
        <time>2017-03-13T11:39:03Z</time>
      </trkpt>
      <trkpt lat="44.50966" lon="6.86415">
        <ele>2723.815</ele>
        <time>2017-03-13T11:39:18Z</time>
      </trkpt>
      <trkpt lat="44.5096" lon="6.86414">
        <ele>2725.274</ele>
        <time>2017-03-13T11:39:28Z</time>
      </trkpt>
      <trkpt lat="44.50948" lon="6.86411">
        <ele>2726.835</ele>
        <time>2017-03-13T11:39:48Z</time>
      </trkpt>
      <trkpt lat="44.50938" lon="6.86407">
        <ele>2727.898</ele>
        <time>2017-03-13T11:40:03Z</time>
      </trkpt>
      <trkpt lat="44.50932" lon="6.86406">
        <ele>2728.63</ele>
        <time>2017-03-13T11:40:12Z</time>
      </trkpt>
      <trkpt lat="44.50925" lon="6.86403">
        <ele>2729.978</ele>
        <time>2017-03-13T11:40:24Z</time>
      </trkpt>
      <trkpt lat="44.50925" lon="6.86399">
        <ele>2733.204</ele>
        <time>2017-03-13T11:41:18Z</time>
      </trkpt>
      <trkpt lat="44.50927" lon="6.86396">
        <ele>2734.212</ele>
        <time>2017-03-13T11:41:24Z</time>
      </trkpt>
      <trkpt lat="44.50923" lon="6.86395">
        <ele>2734.57</ele>
        <time>2017-03-13T11:41:39Z</time>
      </trkpt>
      <trkpt lat="44.50918" lon="6.86394">
        <ele>2737.392</ele>
        <time>2017-03-13T11:41:53Z</time>
      </trkpt>
      <trkpt lat="44.50913" lon="6.86393">
        <ele>2738.815</ele>
        <time>2017-03-13T11:42:04Z</time>
      </trkpt>
      <trkpt lat="44.50907" lon="6.86392">
        <ele>2740.691</ele>
        <time>2017-03-13T11:42:16Z</time>
      </trkpt>
      <trkpt lat="44.50899" lon="6.86389">
        <ele>2742.115</ele>
        <time>2017-03-13T11:42:32Z</time>
      </trkpt>
      <trkpt lat="44.50896" lon="6.86388">
        <ele>2742.771</ele>
        <time>2017-03-13T11:42:40Z</time>
      </trkpt>
      <trkpt lat="44.5089" lon="6.86386">
        <ele>2744.546</ele>
        <time>2017-03-13T11:43:24Z</time>
      </trkpt>
      <trkpt lat="44.50885" lon="6.86384">
        <ele>2746.005</ele>
        <time>2017-03-13T11:43:34Z</time>
      </trkpt>
      <trkpt lat="44.5088" lon="6.86383">
        <ele>2747.892</ele>
        <time>2017-03-13T11:43:46Z</time>
      </trkpt>
      <trkpt lat="44.50876" lon="6.86379">
        <ele>2749.503</ele>
        <time>2017-03-13T11:43:57Z</time>
      </trkpt>
      <trkpt lat="44.50871" lon="6.86373">
        <ele>2751.409</ele>
        <time>2017-03-13T11:44:09Z</time>
      </trkpt>
      <trkpt lat="44.50867" lon="6.86368">
        <ele>2753.135</ele>
        <time>2017-03-13T11:44:22Z</time>
      </trkpt>
      <trkpt lat="44.50864" lon="6.86362">
        <ele>2754.987</ele>
        <time>2017-03-13T11:44:35Z</time>
      </trkpt>
      <trkpt lat="44.50861" lon="6.86352">
        <ele>2756.73</ele>
        <time>2017-03-13T11:44:50Z</time>
      </trkpt>
      <trkpt lat="44.50857" lon="6.86344">
        <ele>2758.035</ele>
        <time>2017-03-13T11:45:04Z</time>
      </trkpt>
      <trkpt lat="44.50851" lon="6.86336">
        <ele>2759.763</ele>
        <time>2017-03-13T11:45:22Z</time>
      </trkpt>
      <trkpt lat="44.50848" lon="6.8633">
        <ele>2759.471</ele>
        <time>2017-03-13T11:46:43Z</time>
      </trkpt>
      <trkpt lat="44.50834" lon="6.86315">
        <ele>2758.328</ele>
        <time>2017-03-13T11:46:56Z</time>
      </trkpt>
      <trkpt lat="44.50828" lon="6.86304">
        <ele>2759.186</ele>
        <time>2017-03-13T11:47:09Z</time>
      </trkpt>
      <trkpt lat="44.50821" lon="6.86293">
        <ele>2759.76</ele>
        <time>2017-03-13T11:47:23Z</time>
      </trkpt>
      <trkpt lat="44.50814" lon="6.86281">
        <ele>2760.344</ele>
        <time>2017-03-13T11:47:39Z</time>
      </trkpt>
      <trkpt lat="44.50808" lon="6.86268">
        <ele>2761.922</ele>
        <time>2017-03-13T11:47:57Z</time>
      </trkpt>
      <trkpt lat="44.50804" lon="6.86258">
        <ele>2764.052</ele>
        <time>2017-03-13T11:48:16Z</time>
      </trkpt>
      <trkpt lat="44.50801" lon="6.86241">
        <ele>2765.632</ele>
        <time>2017-03-13T11:48:41Z</time>
      </trkpt>
      <trkpt lat="44.50802" lon="6.86231">
        <ele>2767.217</ele>
        <time>2017-03-13T11:48:59Z</time>
      </trkpt>
      <trkpt lat="44.50802" lon="6.86227">
        <ele>2767.791</ele>
        <time>2017-03-13T11:49:07Z</time>
      </trkpt>
      <trkpt lat="44.508" lon="6.86218">
        <ele>2769.562</ele>
        <time>2017-03-13T11:49:21Z</time>
      </trkpt>
      <trkpt lat="44.50796" lon="6.86209">
        <ele>2771.206</ele>
        <time>2017-03-13T11:49:36Z</time>
      </trkpt>
      <trkpt lat="44.50792" lon="6.86197">
        <ele>2772.665</ele>
        <time>2017-03-13T11:49:56Z</time>
      </trkpt>
      <trkpt lat="44.50785" lon="6.86186">
        <ele>2774.315</ele>
        <time>2017-03-13T11:50:16Z</time>
      </trkpt>
      <trkpt lat="44.5078" lon="6.86177">
        <ele>2775.784</ele>
        <time>2017-03-13T11:50:33Z</time>
      </trkpt>
      <trkpt lat="44.50777" lon="6.86173">
        <ele>2777.076</ele>
        <time>2017-03-13T11:50:44Z</time>
      </trkpt>
      <trkpt lat="44.50774" lon="6.8617">
        <ele>2778.028</ele>
        <time>2017-03-13T11:50:52Z</time>
      </trkpt>
      <trkpt lat="44.50772" lon="6.86166">
        <ele>2779.005</ele>
        <time>2017-03-13T11:50:59Z</time>
      </trkpt>
      <trkpt lat="44.5077" lon="6.86164">
        <ele>2778.662</ele>
        <time>2017-03-13T11:51:05Z</time>
      </trkpt>
      <trkpt lat="44.5077" lon="6.86162">
        <ele>2779.984</ele>
        <time>2017-03-13T11:51:12Z</time>
      </trkpt>
      <trkpt lat="44.50771" lon="6.86157">
        <ele>2780.223</ele>
        <time>2017-03-13T11:51:19Z</time>
      </trkpt>
      <trkpt lat="44.50771" lon="6.86153">
        <ele>2781.789</ele>
        <time>2017-03-13T11:51:27Z</time>
      </trkpt>
      <trkpt lat="44.5077" lon="6.86151">
        <ele>2782.74</ele>
        <time>2017-03-13T11:51:36Z</time>
      </trkpt>
      <trkpt lat="44.5077" lon="6.86148">
        <ele>2782.866</ele>
        <time>2017-03-13T11:51:43Z</time>
      </trkpt>
      <trkpt lat="44.5077" lon="6.86145">
        <ele>2783.979</ele>
        <time>2017-03-13T11:51:49Z</time>
      </trkpt>
      <trkpt lat="44.50772" lon="6.86142">
        <ele>2784.576</ele>
        <time>2017-03-13T11:51:56Z</time>
      </trkpt>
      <trkpt lat="44.50773" lon="6.8614">
        <ele>2785.382</ele>
        <time>2017-03-13T11:52:03Z</time>
      </trkpt>
      <trkpt lat="44.50776" lon="6.86138">
        <ele>2787.053</ele>
        <time>2017-03-13T11:52:11Z</time>
      </trkpt>
      <trkpt lat="44.50779" lon="6.86137">
        <ele>2787.45</ele>
        <time>2017-03-13T11:52:19Z</time>
      </trkpt>
      <trkpt lat="44.50778" lon="6.86133">
        <ele>2789.394</ele>
        <time>2017-03-13T11:52:34Z</time>
      </trkpt>
      <trkpt lat="44.50775" lon="6.86129">
        <ele>2790.15</ele>
        <time>2017-03-13T11:52:44Z</time>
      </trkpt>
      <trkpt lat="44.50772" lon="6.86124">
        <ele>2791.21</ele>
        <time>2017-03-13T11:52:56Z</time>
      </trkpt>
      <trkpt lat="44.50769" lon="6.86121">
        <ele>2792.469</ele>
        <time>2017-03-13T11:53:05Z</time>
      </trkpt>
      <trkpt lat="44.50772" lon="6.86119">
        <ele>2793.974</ele>
        <time>2017-03-13T11:53:27Z</time>
      </trkpt>
      <trkpt lat="44.50776" lon="6.86117">
        <ele>2795.617</ele>
        <time>2017-03-13T11:53:41Z</time>
      </trkpt>
      <trkpt lat="44.50779" lon="6.86116">
        <ele>2796.996</ele>
        <time>2017-03-13T11:53:48Z</time>
      </trkpt>
      <trkpt lat="44.50781" lon="6.86117">
        <ele>2797.716</ele>
        <time>2017-03-13T11:53:55Z</time>
      </trkpt>
      <trkpt lat="44.50783" lon="6.86115">
        <ele>2798.586</ele>
        <time>2017-03-13T11:54:02Z</time>
      </trkpt>
      <trkpt lat="44.50785" lon="6.86113">
        <ele>2799.591</ele>
        <time>2017-03-13T11:54:09Z</time>
      </trkpt>
      <trkpt lat="44.50788" lon="6.8611">
        <ele>2800.15</ele>
        <time>2017-03-13T11:54:17Z</time>
      </trkpt>
      <trkpt lat="44.5079" lon="6.86108">
        <ele>2801.301</ele>
        <time>2017-03-13T11:54:23Z</time>
      </trkpt>
      <trkpt lat="44.50792" lon="6.86106">
        <ele>2801.991</ele>
        <time>2017-03-13T11:54:30Z</time>
      </trkpt>
      <trkpt lat="44.50788" lon="6.86102">
        <ele>2803.151</ele>
        <time>2017-03-13T11:54:49Z</time>
      </trkpt>
      <trkpt lat="44.50782" lon="6.86098">
        <ele>2804.49</ele>
        <time>2017-03-13T11:55:02Z</time>
      </trkpt>
      <trkpt lat="44.50781" lon="6.86095">
        <ele>2805.805</ele>
        <time>2017-03-13T11:55:11Z</time>
      </trkpt>
      <trkpt lat="44.50778" lon="6.86093">
        <ele>2806.847</ele>
        <time>2017-03-13T11:55:19Z</time>
      </trkpt>
      <trkpt lat="44.50775" lon="6.86091">
        <ele>2807.649</ele>
        <time>2017-03-13T11:55:28Z</time>
      </trkpt>
      <trkpt lat="44.50773" lon="6.8609">
        <ele>2808.776</ele>
        <time>2017-03-13T11:55:35Z</time>
      </trkpt>
      <trkpt lat="44.50768" lon="6.86089">
        <ele>2809.388</ele>
        <time>2017-03-13T11:55:45Z</time>
      </trkpt>
      <trkpt lat="44.50771" lon="6.86083">
        <ele>2811.906</ele>
        <time>2017-03-13T11:56:20Z</time>
      </trkpt>
      <trkpt lat="44.50774" lon="6.86075">
        <ele>2814.007</ele>
        <time>2017-03-13T11:56:35Z</time>
      </trkpt>
      <trkpt lat="44.50772" lon="6.86074">
        <ele>2814.96</ele>
        <time>2017-03-13T11:56:43Z</time>
      </trkpt>
      <trkpt lat="44.50764" lon="6.8607">
        <ele>2816.828</ele>
        <time>2017-03-13T11:57:00Z</time>
      </trkpt>
      <trkpt lat="44.50761" lon="6.86067">
        <ele>2819.578</ele>
        <time>2017-03-13T11:57:34Z</time>
      </trkpt>
      <trkpt lat="44.50761" lon="6.8606">
        <ele>2821.532</ele>
        <time>2017-03-13T11:57:48Z</time>
      </trkpt>
      <trkpt lat="44.50756" lon="6.86059">
        <ele>2822.409</ele>
        <time>2017-03-13T11:57:58Z</time>
      </trkpt>
      <trkpt lat="44.50746" lon="6.86055">
        <ele>2824.361</ele>
        <time>2017-03-13T11:58:14Z</time>
      </trkpt>
      <trkpt lat="44.50739" lon="6.86055">
        <ele>2826.027</ele>
        <time>2017-03-13T11:58:29Z</time>
      </trkpt>
      <trkpt lat="44.50736" lon="6.86054">
        <ele>2826.688</ele>
        <time>2017-03-13T11:58:37Z</time>
      </trkpt>
      <trkpt lat="44.50732" lon="6.86052">
        <ele>2828.241</ele>
        <time>2017-03-13T11:58:45Z</time>
      </trkpt>
      <trkpt lat="44.50729" lon="6.86052">
        <ele>2828.04</ele>
        <time>2017-03-13T11:59:52Z</time>
      </trkpt>
      <trkpt lat="44.50722" lon="6.86043">
        <ele>2830.765</ele>
        <time>2017-03-13T12:00:10Z</time>
      </trkpt>
      <trkpt lat="44.50719" lon="6.86034">
        <ele>2832.729</ele>
        <time>2017-03-13T12:00:26Z</time>
      </trkpt>
      <trkpt lat="44.50715" lon="6.86027">
        <ele>2834.469</ele>
        <time>2017-03-13T12:00:47Z</time>
      </trkpt>
      <trkpt lat="44.50713" lon="6.86026">
        <ele>2834.685</ele>
        <time>2017-03-13T12:01:37Z</time>
      </trkpt>
      <trkpt lat="44.50706" lon="6.8602">
        <ele>2836.28</ele>
        <time>2017-03-13T12:01:52Z</time>
      </trkpt>
      <trkpt lat="44.50701" lon="6.86016">
        <ele>2837.72</ele>
        <time>2017-03-13T12:02:04Z</time>
      </trkpt>
      <trkpt lat="44.50697" lon="6.86008">
        <ele>2839.51</ele>
        <time>2017-03-13T12:02:22Z</time>
      </trkpt>
      <trkpt lat="44.50695" lon="6.86002">
        <ele>2840.498</ele>
        <time>2017-03-13T12:02:32Z</time>
      </trkpt>
      <trkpt lat="44.50692" lon="6.85999">
        <ele>2841.907</ele>
        <time>2017-03-13T12:02:41Z</time>
      </trkpt>
      <trkpt lat="44.50688" lon="6.85997">
        <ele>2842.305</ele>
        <time>2017-03-13T12:02:59Z</time>
      </trkpt>
      <trkpt lat="44.50685" lon="6.85991">
        <ele>2843.715</ele>
        <time>2017-03-13T12:03:14Z</time>
      </trkpt>
      <trkpt lat="44.5068" lon="6.85985">
        <ele>2845.683</ele>
        <time>2017-03-13T12:03:31Z</time>
      </trkpt>
      <trkpt lat="44.50674" lon="6.85978">
        <ele>2847.23</ele>
        <time>2017-03-13T12:03:46Z</time>
      </trkpt>
      <trkpt lat="44.50672" lon="6.8597">
        <ele>2848.746</ele>
        <time>2017-03-13T12:04:02Z</time>
      </trkpt>
      <trkpt lat="44.50672" lon="6.85967">
        <ele>2850.159</ele>
        <time>2017-03-13T12:04:09Z</time>
      </trkpt>
      <trkpt lat="44.50671" lon="6.85963">
        <ele>2851.423</ele>
        <time>2017-03-13T12:04:16Z</time>
      </trkpt>
      <trkpt lat="44.50668" lon="6.8596">
        <ele>2852.079</ele>
        <time>2017-03-13T12:04:23Z</time>
      </trkpt>
      <trkpt lat="44.50665" lon="6.85958">
        <ele>2852.936</ele>
        <time>2017-03-13T12:04:30Z</time>
      </trkpt>
      <trkpt lat="44.50663" lon="6.85956">
        <ele>2853.098</ele>
        <time>2017-03-13T12:04:38Z</time>
      </trkpt>
      <trkpt lat="44.5066" lon="6.85953">
        <ele>2854.287</ele>
        <time>2017-03-13T12:04:45Z</time>
      </trkpt>
      <trkpt lat="44.50659" lon="6.85949">
        <ele>2856.022</ele>
        <time>2017-03-13T12:05:17Z</time>
      </trkpt>
      <trkpt lat="44.5066" lon="6.85945">
        <ele>2856.568</ele>
        <time>2017-03-13T12:05:24Z</time>
      </trkpt>
      <trkpt lat="44.50657" lon="6.85942">
        <ele>2857.696</ele>
        <time>2017-03-13T12:05:31Z</time>
      </trkpt>
      <trkpt lat="44.50653" lon="6.85941">
        <ele>2859.01</ele>
        <time>2017-03-13T12:05:42Z</time>
      </trkpt>
      <trkpt lat="44.50649" lon="6.85938">
        <ele>2860.737</ele>
        <time>2017-03-13T12:05:52Z</time>
      </trkpt>
      <trkpt lat="44.50646" lon="6.85934">
        <ele>2861.841</ele>
        <time>2017-03-13T12:06:04Z</time>
      </trkpt>
      <trkpt lat="44.50641" lon="6.8593">
        <ele>2864.017</ele>
        <time>2017-03-13T12:06:19Z</time>
      </trkpt>
      <trkpt lat="44.50638" lon="6.85927">
        <ele>2864.733</ele>
        <time>2017-03-13T12:06:28Z</time>
      </trkpt>
      <trkpt lat="44.5063" lon="6.85924">
        <ele>2866.15</ele>
        <time>2017-03-13T12:06:45Z</time>
      </trkpt>
      <trkpt lat="44.50625" lon="6.85924">
        <ele>2867.997</ele>
        <time>2017-03-13T12:06:58Z</time>
      </trkpt>
      <trkpt lat="44.5062" lon="6.85923">
        <ele>2868.304</ele>
        <time>2017-03-13T12:07:20Z</time>
      </trkpt>
      <trkpt lat="44.50616" lon="6.85924">
        <ele>2868.335</ele>
        <time>2017-03-13T12:07:56Z</time>
      </trkpt>
      <trkpt lat="44.50613" lon="6.85925">
        <ele>2868.714</ele>
        <time>2017-03-13T12:08:03Z</time>
      </trkpt>
      <trkpt lat="44.50606" lon="6.85914">
        <ele>2867.231</ele>
        <time>2017-03-13T12:22:20Z</time>
      </trkpt>
      <trkpt lat="44.50603" lon="6.85912">
        <ele>2865.772</ele>
        <time>2017-03-13T12:22:46Z</time>
      </trkpt>
      <trkpt lat="44.506" lon="6.85911">
        <ele>2865.056</ele>
        <time>2017-03-13T12:23:15Z</time>
      </trkpt>
      <trkpt lat="44.50597" lon="6.85901">
        <ele>2862.327</ele>
        <time>2017-03-13T12:23:19Z</time>
      </trkpt>
      <trkpt lat="44.506" lon="6.85893">
        <ele>2861.134</ele>
        <time>2017-03-13T12:23:21Z</time>
      </trkpt>
      <trkpt lat="44.50603" lon="6.85881">
        <ele>2859.692</ele>
        <time>2017-03-13T12:23:25Z</time>
      </trkpt>
      <trkpt lat="44.50591" lon="6.85892">
        <ele>2858.557</ele>
        <time>2017-03-13T12:23:28Z</time>
      </trkpt>
      <trkpt lat="44.50591" lon="6.85884">
        <ele>2855.351</ele>
        <time>2017-03-13T12:23:29Z</time>
      </trkpt>
      <trkpt lat="44.50588" lon="6.85887">
        <ele>2855.354</ele>
        <time>2017-03-13T12:23:30Z</time>
      </trkpt>
      <trkpt lat="44.50585" lon="6.85886">
        <ele>2853.526</ele>
        <time>2017-03-13T12:23:32Z</time>
      </trkpt>
      <trkpt lat="44.50588" lon="6.85876">
        <ele>2850.633</ele>
        <time>2017-03-13T12:23:35Z</time>
      </trkpt>
      <trkpt lat="44.50589" lon="6.85867">
        <ele>2848.825</ele>
        <time>2017-03-13T12:23:39Z</time>
      </trkpt>
      <trkpt lat="44.50583" lon="6.8587">
        <ele>2847.444</ele>
        <time>2017-03-13T12:23:41Z</time>
      </trkpt>
      <trkpt lat="44.5058" lon="6.85873">
        <ele>2845.022</ele>
        <time>2017-03-13T12:23:42Z</time>
      </trkpt>
      <trkpt lat="44.50576" lon="6.85875">
        <ele>2843.979</ele>
        <time>2017-03-13T12:23:44Z</time>
      </trkpt>
      <trkpt lat="44.50572" lon="6.85877">
        <ele>2842.56</ele>
        <time>2017-03-13T12:23:46Z</time>
      </trkpt>
      <trkpt lat="44.50568" lon="6.85878">
        <ele>2841.555</ele>
        <time>2017-03-13T12:23:48Z</time>
      </trkpt>
      <trkpt lat="44.50566" lon="6.85871">
        <ele>2839.5</ele>
        <time>2017-03-13T12:23:51Z</time>
      </trkpt>
      <trkpt lat="44.5057" lon="6.85867">
        <ele>2836.609</ele>
        <time>2017-03-13T12:23:53Z</time>
      </trkpt>
      <trkpt lat="44.50563" lon="6.85863">
        <ele>2833.457</ele>
        <time>2017-03-13T12:23:56Z</time>
      </trkpt>
      <trkpt lat="44.50558" lon="6.85861">
        <ele>2831.038</ele>
        <time>2017-03-13T12:23:58Z</time>
      </trkpt>
      <trkpt lat="44.50559" lon="6.85852">
        <ele>2828.758</ele>
        <time>2017-03-13T12:24:00Z</time>
      </trkpt>
      <trkpt lat="44.50562" lon="6.85847">
        <ele>2826.835</ele>
        <time>2017-03-13T12:24:02Z</time>
      </trkpt>
      <trkpt lat="44.50554" lon="6.85858">
        <ele>2824.081</ele>
        <time>2017-03-13T12:24:05Z</time>
      </trkpt>
      <trkpt lat="44.50548" lon="6.85857">
        <ele>2821.769</ele>
        <time>2017-03-13T12:24:07Z</time>
      </trkpt>
      <trkpt lat="44.50545" lon="6.85838">
        <ele>2816.634</ele>
        <time>2017-03-13T12:24:12Z</time>
      </trkpt>
      <trkpt lat="44.50547" lon="6.85831">
        <ele>2814.67</ele>
        <time>2017-03-13T12:24:21Z</time>
      </trkpt>
      <trkpt lat="44.50538" lon="6.85829">
        <ele>2811.942</ele>
        <time>2017-03-13T12:24:25Z</time>
      </trkpt>
      <trkpt lat="44.50533" lon="6.85827">
        <ele>2808.134</ele>
        <time>2017-03-13T12:24:28Z</time>
      </trkpt>
      <trkpt lat="44.50536" lon="6.85817">
        <ele>2803.763</ele>
        <time>2017-03-13T12:24:31Z</time>
      </trkpt>
      <trkpt lat="44.50534" lon="6.85814">
        <ele>2803.769</ele>
        <time>2017-03-13T12:24:32Z</time>
      </trkpt>
      <trkpt lat="44.50519" lon="6.8584">
        <ele>2798.759</ele>
        <time>2017-03-13T12:24:34Z</time>
      </trkpt>
      <trkpt lat="44.50516" lon="6.85839">
        <ele>2798.766</ele>
        <time>2017-03-13T12:24:35Z</time>
      </trkpt>
      <trkpt lat="44.50515" lon="6.85814">
        <ele>2796.242</ele>
        <time>2017-03-13T12:24:37Z</time>
      </trkpt>
      <trkpt lat="44.50513" lon="6.85815">
        <ele>2795.252</ele>
        <time>2017-03-13T12:24:38Z</time>
      </trkpt>
      <trkpt lat="44.5051" lon="6.85807">
        <ele>2791.382</ele>
        <time>2017-03-13T12:24:41Z</time>
      </trkpt>
      <trkpt lat="44.50513" lon="6.85803">
        <ele>2791.388</ele>
        <time>2017-03-13T12:24:42Z</time>
      </trkpt>
      <trkpt lat="44.50511" lon="6.85792">
        <ele>2787.738</ele>
        <time>2017-03-13T12:24:46Z</time>
      </trkpt>
      <trkpt lat="44.50508" lon="6.8579">
        <ele>2784.463</ele>
        <time>2017-03-13T12:24:47Z</time>
      </trkpt>
      <trkpt lat="44.50509" lon="6.85782">
        <ele>2781.818</ele>
        <time>2017-03-13T12:24:49Z</time>
      </trkpt>
      <trkpt lat="44.5051" lon="6.85778">
        <ele>2778.551</ele>
        <time>2017-03-13T12:24:50Z</time>
      </trkpt>
      <trkpt lat="44.50509" lon="6.85775">
        <ele>2778.557</ele>
        <time>2017-03-13T12:24:51Z</time>
      </trkpt>
      <trkpt lat="44.50506" lon="6.85773">
        <ele>2776.363</ele>
        <time>2017-03-13T12:24:52Z</time>
      </trkpt>
      <trkpt lat="44.50495" lon="6.85765">
        <ele>2773.517</ele>
        <time>2017-03-13T12:24:55Z</time>
      </trkpt>
      <trkpt lat="44.50502" lon="6.85755">
        <ele>2767.146</ele>
        <time>2017-03-13T12:24:57Z</time>
      </trkpt>
      <trkpt lat="44.505" lon="6.85742">
        <ele>2762.38</ele>
        <time>2017-03-13T12:25:18Z</time>
      </trkpt>
      <trkpt lat="44.50501" lon="6.85737">
        <ele>2762.387</ele>
        <time>2017-03-13T12:25:19Z</time>
      </trkpt>
      <trkpt lat="44.50498" lon="6.85731">
        <ele>2759.494</ele>
        <time>2017-03-13T12:25:21Z</time>
      </trkpt>
      <trkpt lat="44.50497" lon="6.85721">
        <ele>2756.618</ele>
        <time>2017-03-13T12:25:23Z</time>
      </trkpt>
      <trkpt lat="44.50496" lon="6.85717">
        <ele>2753.032</ele>
        <time>2017-03-13T12:25:24Z</time>
      </trkpt>
      <trkpt lat="44.50491" lon="6.85711">
        <ele>2750.239</ele>
        <time>2017-03-13T12:25:26Z</time>
      </trkpt>
      <trkpt lat="44.50491" lon="6.85706">
        <ele>2746.484</ele>
        <time>2017-03-13T12:25:27Z</time>
      </trkpt>
      <trkpt lat="44.5049" lon="6.857">
        <ele>2746.49</ele>
        <time>2017-03-13T12:25:28Z</time>
      </trkpt>
      <trkpt lat="44.5049" lon="6.85695">
        <ele>2742.918</ele>
        <time>2017-03-13T12:25:29Z</time>
      </trkpt>
      <trkpt lat="44.50487" lon="6.85682">
        <ele>2737.537</ele>
        <time>2017-03-13T12:25:32Z</time>
      </trkpt>
      <trkpt lat="44.50485" lon="6.85668">
        <ele>2734.568</ele>
        <time>2017-03-13T12:25:35Z</time>
      </trkpt>
      <trkpt lat="44.50484" lon="6.85658">
        <ele>2732.314</ele>
        <time>2017-03-13T12:25:37Z</time>
      </trkpt>
      <trkpt lat="44.50483" lon="6.85653">
        <ele>2729.142</ele>
        <time>2017-03-13T12:25:38Z</time>
      </trkpt>
      <trkpt lat="44.50482" lon="6.85648">
        <ele>2729.148</ele>
        <time>2017-03-13T12:25:39Z</time>
      </trkpt>
      <trkpt lat="44.50481" lon="6.85638">
        <ele>2723.864</ele>
        <time>2017-03-13T12:25:41Z</time>
      </trkpt>
      <trkpt lat="44.5048" lon="6.85633">
        <ele>2723.87</ele>
        <time>2017-03-13T12:25:42Z</time>
      </trkpt>
      <trkpt lat="44.50479" lon="6.85623">
        <ele>2721.509</ele>
        <time>2017-03-13T12:25:44Z</time>
      </trkpt>
      <trkpt lat="44.50475" lon="6.8561">
        <ele>2718.972</ele>
        <time>2017-03-13T12:25:46Z</time>
      </trkpt>
      <trkpt lat="44.5046" lon="6.85615">
        <ele>2715.017</ele>
        <time>2017-03-13T12:25:47Z</time>
      </trkpt>
      <trkpt lat="44.50463" lon="6.85609">
        <ele>2712.749</ele>
        <time>2017-03-13T12:26:13Z</time>
      </trkpt>
      <trkpt lat="44.50466" lon="6.85584">
        <ele>2710.408</ele>
        <time>2017-03-13T12:26:17Z</time>
      </trkpt>
      <trkpt lat="44.50464" lon="6.85577">
        <ele>2707.168</ele>
        <time>2017-03-13T12:26:18Z</time>
      </trkpt>
      <trkpt lat="44.50456" lon="6.85577">
        <ele>2707.172</ele>
        <time>2017-03-13T12:26:19Z</time>
      </trkpt>
      <trkpt lat="44.50461" lon="6.85571">
        <ele>2703.947</ele>
        <time>2017-03-13T12:26:20Z</time>
      </trkpt>
      <trkpt lat="44.50457" lon="6.85564">
        <ele>2703.95</ele>
        <time>2017-03-13T12:26:21Z</time>
      </trkpt>
      <trkpt lat="44.50454" lon="6.8554">
        <ele>2702.197</ele>
        <time>2017-03-13T12:26:23Z</time>
      </trkpt>
      <trkpt lat="44.50453" lon="6.85517">
        <ele>2694.534</ele>
        <time>2017-03-13T12:26:26Z</time>
      </trkpt>
      <trkpt lat="44.50452" lon="6.8551">
        <ele>2689.625</ele>
        <time>2017-03-13T12:26:27Z</time>
      </trkpt>
      <trkpt lat="44.50448" lon="6.85487">
        <ele>2686.928</ele>
        <time>2017-03-13T12:26:30Z</time>
      </trkpt>
      <trkpt lat="44.50447" lon="6.85481">
        <ele>2683.591</ele>
        <time>2017-03-13T12:26:31Z</time>
      </trkpt>
      <trkpt lat="44.50445" lon="6.85472">
        <ele>2679.755</ele>
        <time>2017-03-13T12:26:32Z</time>
      </trkpt>
      <trkpt lat="44.50444" lon="6.85464">
        <ele>2679.756</ele>
        <time>2017-03-13T12:26:33Z</time>
      </trkpt>
      <trkpt lat="44.50439" lon="6.85461">
        <ele>2675.096</ele>
        <time>2017-03-13T12:26:34Z</time>
      </trkpt>
      <trkpt lat="44.50442" lon="6.85454">
        <ele>2675.096</ele>
        <time>2017-03-13T12:26:35Z</time>
      </trkpt>
      <trkpt lat="44.50439" lon="6.85441">
        <ele>2672.36</ele>
        <time>2017-03-13T12:26:37Z</time>
      </trkpt>
      <trkpt lat="44.50432" lon="6.85421">
        <ele>2665.666</ele>
        <time>2017-03-13T12:26:39Z</time>
      </trkpt>
      <trkpt lat="44.50429" lon="6.85412">
        <ele>2665.665</ele>
        <time>2017-03-13T12:26:40Z</time>
      </trkpt>
      <trkpt lat="44.50436" lon="6.854">
        <ele>2660.862</ele>
        <time>2017-03-13T12:26:41Z</time>
      </trkpt>
      <trkpt lat="44.50426" lon="6.85403">
        <ele>2660.86</ele>
        <time>2017-03-13T12:26:42Z</time>
      </trkpt>
      <trkpt lat="44.5042" lon="6.85387">
        <ele>2658.109</ele>
        <time>2017-03-13T12:26:44Z</time>
      </trkpt>
      <trkpt lat="44.50411" lon="6.85366">
        <ele>2653.482</ele>
        <time>2017-03-13T12:26:46Z</time>
      </trkpt>
      <trkpt lat="44.50406" lon="6.85357">
        <ele>2653.479</ele>
        <time>2017-03-13T12:26:47Z</time>
      </trkpt>
      <trkpt lat="44.50402" lon="6.85347">
        <ele>2650.032</ele>
        <time>2017-03-13T12:26:48Z</time>
      </trkpt>
      <trkpt lat="44.50398" lon="6.85334">
        <ele>2650.029</ele>
        <time>2017-03-13T12:26:49Z</time>
      </trkpt>
      <trkpt lat="44.50397" lon="6.85326">
        <ele>2646.239</ele>
        <time>2017-03-13T12:26:50Z</time>
      </trkpt>
      <trkpt lat="44.50396" lon="6.85321">
        <ele>2646.236</ele>
        <time>2017-03-13T12:26:51Z</time>
      </trkpt>
      <trkpt lat="44.50394" lon="6.85308">
        <ele>2643.028</ele>
        <time>2017-03-13T12:26:53Z</time>
      </trkpt>
      <trkpt lat="44.50394" lon="6.85304">
        <ele>2643.027</ele>
        <time>2017-03-13T12:26:54Z</time>
      </trkpt>
      <trkpt lat="44.50397" lon="6.85299">
        <ele>2638.718</ele>
        <time>2017-03-13T12:30:57Z</time>
      </trkpt>
      <trkpt lat="44.50394" lon="6.85291">
        <ele>2635.803</ele>
        <time>2017-03-13T12:31:00Z</time>
      </trkpt>
      <trkpt lat="44.50394" lon="6.85277">
        <ele>2630.918</ele>
        <time>2017-03-13T12:31:04Z</time>
      </trkpt>
      <trkpt lat="44.50398" lon="6.85273">
        <ele>2627.675</ele>
        <time>2017-03-13T12:31:05Z</time>
      </trkpt>
      <trkpt lat="44.50403" lon="6.85267">
        <ele>2627.673</ele>
        <time>2017-03-13T12:31:06Z</time>
      </trkpt>
      <trkpt lat="44.50408" lon="6.85253">
        <ele>2625.832</ele>
        <time>2017-03-13T12:31:08Z</time>
      </trkpt>
      <trkpt lat="44.50409" lon="6.85244">
        <ele>2624.375</ele>
        <time>2017-03-13T12:31:10Z</time>
      </trkpt>
      <trkpt lat="44.50429" lon="6.85235">
        <ele>2623.707</ele>
        <time>2017-03-13T12:31:13Z</time>
      </trkpt>
      <trkpt lat="44.50404" lon="6.85225">
        <ele>2619.023</ele>
        <time>2017-03-13T12:31:17Z</time>
      </trkpt>
      <trkpt lat="44.50404" lon="6.85219">
        <ele>2619.022</ele>
        <time>2017-03-13T12:31:18Z</time>
      </trkpt>
      <trkpt lat="44.50432" lon="6.85206">
        <ele>2615.387</ele>
        <time>2017-03-13T12:31:19Z</time>
      </trkpt>
      <trkpt lat="44.50437" lon="6.85204">
        <ele>2615.385</ele>
        <time>2017-03-13T12:31:20Z</time>
      </trkpt>
      <trkpt lat="44.50448" lon="6.85198">
        <ele>2613.645</ele>
        <time>2017-03-13T12:31:22Z</time>
      </trkpt>
      <trkpt lat="44.5046" lon="6.85187">
        <ele>2612.037</ele>
        <time>2017-03-13T12:31:24Z</time>
      </trkpt>
      <trkpt lat="44.50473" lon="6.85174">
        <ele>2608.914</ele>
        <time>2017-03-13T12:31:26Z</time>
      </trkpt>
      <trkpt lat="44.50479" lon="6.85167">
        <ele>2608.912</ele>
        <time>2017-03-13T12:31:27Z</time>
      </trkpt>
      <trkpt lat="44.50488" lon="6.85161">
        <ele>2606.435</ele>
        <time>2017-03-13T12:31:29Z</time>
      </trkpt>
      <trkpt lat="44.50491" lon="6.85158">
        <ele>2605.151</ele>
        <time>2017-03-13T12:31:33Z</time>
      </trkpt>
      <trkpt lat="44.50496" lon="6.85148">
        <ele>2604.494</ele>
        <time>2017-03-13T12:31:45Z</time>
      </trkpt>
      <trkpt lat="44.50506" lon="6.85137">
        <ele>2603.623</ele>
        <time>2017-03-13T12:31:49Z</time>
      </trkpt>
      <trkpt lat="44.50516" lon="6.85107">
        <ele>2600.422</ele>
        <time>2017-03-13T12:31:53Z</time>
      </trkpt>
      <trkpt lat="44.5052" lon="6.85097">
        <ele>2596.768</ele>
        <time>2017-03-13T12:31:54Z</time>
      </trkpt>
      <trkpt lat="44.50524" lon="6.85088">
        <ele>2596.766</ele>
        <time>2017-03-13T12:31:55Z</time>
      </trkpt>
      <trkpt lat="44.50528" lon="6.8508">
        <ele>2593.39</ele>
        <time>2017-03-13T12:31:56Z</time>
      </trkpt>
      <trkpt lat="44.50532" lon="6.85072">
        <ele>2593.388</ele>
        <time>2017-03-13T12:31:57Z</time>
      </trkpt>
      <trkpt lat="44.5054" lon="6.85057">
        <ele>2591.604</ele>
        <time>2017-03-13T12:31:59Z</time>
      </trkpt>
      <trkpt lat="44.50544" lon="6.8505">
        <ele>2588.366</ele>
        <time>2017-03-13T12:32:00Z</time>
      </trkpt>
      <trkpt lat="44.50553" lon="6.85033">
        <ele>2585.768</ele>
        <time>2017-03-13T12:32:02Z</time>
      </trkpt>
      <trkpt lat="44.50564" lon="6.85017">
        <ele>2583.135</ele>
        <time>2017-03-13T12:32:04Z</time>
      </trkpt>
      <trkpt lat="44.50569" lon="6.85009">
        <ele>2580.486</ele>
        <time>2017-03-13T12:32:05Z</time>
      </trkpt>
      <trkpt lat="44.50577" lon="6.8498">
        <ele>2579.226</ele>
        <time>2017-03-13T12:32:08Z</time>
      </trkpt>
      <trkpt lat="44.5058" lon="6.84963">
        <ele>2573.81</ele>
        <time>2017-03-13T12:32:10Z</time>
      </trkpt>
      <trkpt lat="44.50581" lon="6.84958">
        <ele>2573.806</ele>
        <time>2017-03-13T12:32:11Z</time>
      </trkpt>
      <trkpt lat="44.50584" lon="6.8495">
        <ele>2572.073</ele>
        <time>2017-03-13T12:32:13Z</time>
      </trkpt>
      <trkpt lat="44.50585" lon="6.84946">
        <ele>2570.769</ele>
        <time>2017-03-13T12:32:17Z</time>
      </trkpt>
      <trkpt lat="44.50587" lon="6.84937">
        <ele>2570.262</ele>
        <time>2017-03-13T12:32:29Z</time>
      </trkpt>
      <trkpt lat="44.50588" lon="6.84934">
        <ele>2569.277</ele>
        <time>2017-03-13T12:32:33Z</time>
      </trkpt>
      <trkpt lat="44.50581" lon="6.8493">
        <ele>2566.892</ele>
        <time>2017-03-13T12:32:37Z</time>
      </trkpt>
      <trkpt lat="44.50578" lon="6.84927">
        <ele>2563.786</ele>
        <time>2017-03-13T12:32:38Z</time>
      </trkpt>
      <trkpt lat="44.50577" lon="6.84921">
        <ele>2563.782</ele>
        <time>2017-03-13T12:32:39Z</time>
      </trkpt>
      <trkpt lat="44.50577" lon="6.84915">
        <ele>2559.496</ele>
        <time>2017-03-13T12:32:40Z</time>
      </trkpt>
      <trkpt lat="44.50578" lon="6.84907">
        <ele>2557.362</ele>
        <time>2017-03-13T12:32:43Z</time>
      </trkpt>
      <trkpt lat="44.5057" lon="6.8491">
        <ele>2552.613</ele>
        <time>2017-03-13T12:32:46Z</time>
      </trkpt>
      <trkpt lat="44.50566" lon="6.849">
        <ele>2550.585</ele>
        <time>2017-03-13T12:32:48Z</time>
      </trkpt>
      <trkpt lat="44.50568" lon="6.84894">
        <ele>2547.111</ele>
        <time>2017-03-13T12:32:49Z</time>
      </trkpt>
      <trkpt lat="44.5057" lon="6.84889">
        <ele>2547.108</ele>
        <time>2017-03-13T12:32:50Z</time>
      </trkpt>
      <trkpt lat="44.50576" lon="6.84872">
        <ele>2543.987</ele>
        <time>2017-03-13T12:32:55Z</time>
      </trkpt>
      <trkpt lat="44.50579" lon="6.84865">
        <ele>2541.849</ele>
        <time>2017-03-13T12:32:57Z</time>
      </trkpt>
      <trkpt lat="44.50582" lon="6.8486">
        <ele>2540.464</ele>
        <time>2017-03-13T12:32:59Z</time>
      </trkpt>
      <trkpt lat="44.50585" lon="6.84854">
        <ele>2539.519</ele>
        <time>2017-03-13T12:33:02Z</time>
      </trkpt>
      <trkpt lat="44.50587" lon="6.84851">
        <ele>2538.443</ele>
        <time>2017-03-13T12:33:10Z</time>
      </trkpt>
      <trkpt lat="44.50591" lon="6.84846">
        <ele>2537.816</ele>
        <time>2017-03-13T12:34:20Z</time>
      </trkpt>
      <trkpt lat="44.506" lon="6.84835">
        <ele>2535.448</ele>
        <time>2017-03-13T12:34:23Z</time>
      </trkpt>
      <trkpt lat="44.50628" lon="6.84825">
        <ele>2530.805</ele>
        <time>2017-03-13T12:34:29Z</time>
      </trkpt>
      <trkpt lat="44.50634" lon="6.84823">
        <ele>2530.8</ele>
        <time>2017-03-13T12:34:30Z</time>
      </trkpt>
      <trkpt lat="44.50646" lon="6.84819">
        <ele>2528.741</ele>
        <time>2017-03-13T12:34:32Z</time>
      </trkpt>
      <trkpt lat="44.50657" lon="6.84816">
        <ele>2527.487</ele>
        <time>2017-03-13T12:34:34Z</time>
      </trkpt>
      <trkpt lat="44.50668" lon="6.84812">
        <ele>2523.879</ele>
        <time>2017-03-13T12:34:36Z</time>
      </trkpt>
      <trkpt lat="44.50673" lon="6.84811">
        <ele>2523.874</ele>
        <time>2017-03-13T12:34:37Z</time>
      </trkpt>
      <trkpt lat="44.50694" lon="6.84802">
        <ele>2521.356</ele>
        <time>2017-03-13T12:34:41Z</time>
      </trkpt>
      <trkpt lat="44.50706" lon="6.84794">
        <ele>2519.268</ele>
        <time>2017-03-13T12:34:44Z</time>
      </trkpt>
      <trkpt lat="44.50724" lon="6.84785">
        <ele>2516.284</ele>
        <time>2017-03-13T12:34:49Z</time>
      </trkpt>
      <trkpt lat="44.50735" lon="6.84778">
        <ele>2514.923</ele>
        <time>2017-03-13T12:34:51Z</time>
      </trkpt>
      <trkpt lat="44.50745" lon="6.8477">
        <ele>2513.684</ele>
        <time>2017-03-13T12:34:53Z</time>
      </trkpt>
      <trkpt lat="44.50753" lon="6.84763">
        <ele>2511.882</ele>
        <time>2017-03-13T12:34:55Z</time>
      </trkpt>
      <trkpt lat="44.50751" lon="6.84746">
        <ele>2509.897</ele>
        <time>2017-03-13T12:34:58Z</time>
      </trkpt>
      <trkpt lat="44.50749" lon="6.84739">
        <ele>2505.4</ele>
        <time>2017-03-13T12:34:59Z</time>
      </trkpt>
      <trkpt lat="44.5075" lon="6.84731">
        <ele>2505.394</ele>
        <time>2017-03-13T12:35:00Z</time>
      </trkpt>
      <trkpt lat="44.50753" lon="6.84725">
        <ele>2500.89</ele>
        <time>2017-03-13T12:35:01Z</time>
      </trkpt>
      <trkpt lat="44.50756" lon="6.84719">
        <ele>2500.885</ele>
        <time>2017-03-13T12:35:02Z</time>
      </trkpt>
      <trkpt lat="44.50754" lon="6.84703">
        <ele>2499.39</ele>
        <time>2017-03-13T12:35:04Z</time>
      </trkpt>
      <trkpt lat="44.50755" lon="6.84685">
        <ele>2492.31</ele>
        <time>2017-03-13T12:35:06Z</time>
      </trkpt>
      <trkpt lat="44.50759" lon="6.84661">
        <ele>2489.346</ele>
        <time>2017-03-13T12:35:09Z</time>
      </trkpt>
      <trkpt lat="44.50763" lon="6.84645">
        <ele>2486.906</ele>
        <time>2017-03-13T12:35:11Z</time>
      </trkpt>
      <trkpt lat="44.50768" lon="6.8464">
        <ele>2481.851</ele>
        <time>2017-03-13T12:35:12Z</time>
      </trkpt>
      <trkpt lat="44.50778" lon="6.84634">
        <ele>2480.561</ele>
        <time>2017-03-13T12:35:14Z</time>
      </trkpt>
      <trkpt lat="44.50785" lon="6.84626">
        <ele>2480.437</ele>
        <time>2017-03-13T12:35:16Z</time>
      </trkpt>
      <trkpt lat="44.50786" lon="6.8461">
        <ele>2478.087</ele>
        <time>2017-03-13T12:35:19Z</time>
      </trkpt>
      <trkpt lat="44.50785" lon="6.84594">
        <ele>2474.398</ele>
        <time>2017-03-13T12:35:21Z</time>
      </trkpt>
      <trkpt lat="44.50784" lon="6.84586">
        <ele>2471.865</ele>
        <time>2017-03-13T12:35:22Z</time>
      </trkpt>
      <trkpt lat="44.50789" lon="6.84573">
        <ele>2467.442</ele>
        <time>2017-03-13T12:35:24Z</time>
      </trkpt>
      <trkpt lat="44.50791" lon="6.84547">
        <ele>2461.263</ele>
        <time>2017-03-13T12:35:27Z</time>
      </trkpt>
      <trkpt lat="44.50795" lon="6.84539">
        <ele>2461.26</ele>
        <time>2017-03-13T12:35:28Z</time>
      </trkpt>
      <trkpt lat="44.508" lon="6.84533">
        <ele>2459.092</ele>
        <time>2017-03-13T12:35:29Z</time>
      </trkpt>
      <trkpt lat="44.50821" lon="6.84504">
        <ele>2456.863</ele>
        <time>2017-03-13T12:35:34Z</time>
      </trkpt>
      <trkpt lat="44.50839" lon="6.84473">
        <ele>2454.595</ele>
        <time>2017-03-13T12:35:39Z</time>
      </trkpt>
      <trkpt lat="44.50845" lon="6.84455">
        <ele>2452.472</ele>
        <time>2017-03-13T12:35:41Z</time>
      </trkpt>
      <trkpt lat="44.50853" lon="6.84431">
        <ele>2451.721</ele>
        <time>2017-03-13T12:35:44Z</time>
      </trkpt>
      <trkpt lat="44.50852" lon="6.84417">
        <ele>2450.358</ele>
        <time>2017-03-13T12:35:46Z</time>
      </trkpt>
      <trkpt lat="44.50845" lon="6.84407">
        <ele>2447.745</ele>
        <time>2017-03-13T12:35:48Z</time>
      </trkpt>
      <trkpt lat="44.50845" lon="6.84399">
        <ele>2443.778</ele>
        <time>2017-03-13T12:35:49Z</time>
      </trkpt>
      <trkpt lat="44.50842" lon="6.84392">
        <ele>2439.903</ele>
        <time>2017-03-13T12:35:50Z</time>
      </trkpt>
      <trkpt lat="44.50837" lon="6.84388">
        <ele>2439.899</ele>
        <time>2017-03-13T12:35:51Z</time>
      </trkpt>
      <trkpt lat="44.50831" lon="6.84376">
        <ele>2437.218</ele>
        <time>2017-03-13T12:35:53Z</time>
      </trkpt>
      <trkpt lat="44.50832" lon="6.84368">
        <ele>2432.901</ele>
        <time>2017-03-13T12:35:54Z</time>
      </trkpt>
      <trkpt lat="44.50834" lon="6.8436">
        <ele>2432.896</ele>
        <time>2017-03-13T12:35:55Z</time>
      </trkpt>
      <trkpt lat="44.50832" lon="6.84353">
        <ele>2429.797</ele>
        <time>2017-03-13T12:35:56Z</time>
      </trkpt>
      <trkpt lat="44.50828" lon="6.84346">
        <ele>2426.361</ele>
        <time>2017-03-13T12:35:57Z</time>
      </trkpt>
      <trkpt lat="44.50827" lon="6.84339">
        <ele>2426.355</ele>
        <time>2017-03-13T12:35:58Z</time>
      </trkpt>
      <trkpt lat="44.50829" lon="6.84332">
        <ele>2422.633</ele>
        <time>2017-03-13T12:35:59Z</time>
      </trkpt>
      <trkpt lat="44.50831" lon="6.84325">
        <ele>2422.626</ele>
        <time>2017-03-13T12:36:00Z</time>
      </trkpt>
      <trkpt lat="44.50825" lon="6.8431">
        <ele>2420.372</ele>
        <time>2017-03-13T12:36:02Z</time>
      </trkpt>
      <trkpt lat="44.50816" lon="6.84302">
        <ele>2414.972</ele>
        <time>2017-03-13T12:36:04Z</time>
      </trkpt>
      <trkpt lat="44.50816" lon="6.84296">
        <ele>2414.964</ele>
        <time>2017-03-13T12:36:05Z</time>
      </trkpt>
      <trkpt lat="44.50819" lon="6.84291">
        <ele>2411.968</ele>
        <time>2017-03-13T12:36:07Z</time>
      </trkpt>
      <trkpt lat="44.50823" lon="6.84288">
        <ele>2410.107</ele>
        <time>2017-03-13T12:37:14Z</time>
      </trkpt>
      <trkpt lat="44.5084" lon="6.84272">
        <ele>2408.349</ele>
        <time>2017-03-13T12:37:19Z</time>
      </trkpt>
      <trkpt lat="44.50837" lon="6.84258">
        <ele>2406.178</ele>
        <time>2017-03-13T12:37:21Z</time>
      </trkpt>
      <trkpt lat="44.50841" lon="6.84243">
        <ele>2403.954</ele>
        <time>2017-03-13T12:37:23Z</time>
      </trkpt>
      <trkpt lat="44.50842" lon="6.84234">
        <ele>2400.878</ele>
        <time>2017-03-13T12:37:24Z</time>
      </trkpt>
      <trkpt lat="44.50847" lon="6.84196">
        <ele>2394.543</ele>
        <time>2017-03-13T12:37:28Z</time>
      </trkpt>
      <trkpt lat="44.50845" lon="6.84186">
        <ele>2391.432</ele>
        <time>2017-03-13T12:37:29Z</time>
      </trkpt>
      <trkpt lat="44.50847" lon="6.84144">
        <ele>2387.088</ele>
        <time>2017-03-13T12:37:31Z</time>
      </trkpt>
      <trkpt lat="44.50857" lon="6.84141">
        <ele>2386</ele>
        <time>2017-03-13T12:37:33Z</time>
      </trkpt>
      <trkpt lat="44.50867" lon="6.84147">
        <ele>2383.92</ele>
        <time>2017-03-13T12:37:35Z</time>
      </trkpt>
      <trkpt lat="44.50872" lon="6.84133">
        <ele>2381.358</ele>
        <time>2017-03-13T12:37:37Z</time>
      </trkpt>
      <trkpt lat="44.50885" lon="6.84121">
        <ele>2378.009</ele>
        <time>2017-03-13T12:37:39Z</time>
      </trkpt>
      <trkpt lat="44.50901" lon="6.84114">
        <ele>2377.335</ele>
        <time>2017-03-13T12:37:45Z</time>
      </trkpt>
      <trkpt lat="44.50918" lon="6.84114">
        <ele>2376.259</ele>
        <time>2017-03-13T12:37:49Z</time>
      </trkpt>
      <trkpt lat="44.50942" lon="6.84101">
        <ele>2373.902</ele>
        <time>2017-03-13T12:37:54Z</time>
      </trkpt>
      <trkpt lat="44.50962" lon="6.84075">
        <ele>2371.958</ele>
        <time>2017-03-13T12:37:58Z</time>
      </trkpt>
      <trkpt lat="44.50974" lon="6.84064">
        <ele>2370.168</ele>
        <time>2017-03-13T12:38:00Z</time>
      </trkpt>
      <trkpt lat="44.5099" lon="6.84045">
        <ele>2368.278</ele>
        <time>2017-03-13T12:38:03Z</time>
      </trkpt>
      <trkpt lat="44.51006" lon="6.84025">
        <ele>2367.72</ele>
        <time>2017-03-13T12:38:07Z</time>
      </trkpt>
      <trkpt lat="44.51019" lon="6.84007">
        <ele>2366.407</ele>
        <time>2017-03-13T12:38:10Z</time>
      </trkpt>
      <trkpt lat="44.51022" lon="6.83997">
        <ele>2364.676</ele>
        <time>2017-03-13T12:38:11Z</time>
      </trkpt>
      <trkpt lat="44.51031" lon="6.83964">
        <ele>2361.641</ele>
        <time>2017-03-13T12:38:16Z</time>
      </trkpt>
      <trkpt lat="44.51033" lon="6.8396">
        <ele>2361.635</ele>
        <time>2017-03-13T12:38:17Z</time>
      </trkpt>
      <trkpt lat="44.51035" lon="6.83956">
        <ele>2361.575</ele>
        <time>2017-03-13T12:38:18Z</time>
      </trkpt>
      <trkpt lat="44.51042" lon="6.83938">
        <ele>2360.705</ele>
        <time>2017-03-13T12:38:22Z</time>
      </trkpt>
      <trkpt lat="44.51051" lon="6.83922">
        <ele>2360.08</ele>
        <time>2017-03-13T12:38:26Z</time>
      </trkpt>
      <trkpt lat="44.51077" lon="6.83886">
        <ele>2357.485</ele>
        <time>2017-03-13T12:38:33Z</time>
      </trkpt>
      <trkpt lat="44.51086" lon="6.83874">
        <ele>2356.211</ele>
        <time>2017-03-13T12:38:35Z</time>
      </trkpt>
      <trkpt lat="44.51101" lon="6.83845">
        <ele>2354.538</ele>
        <time>2017-03-13T12:38:41Z</time>
      </trkpt>
      <trkpt lat="44.51108" lon="6.83828">
        <ele>2354.776</ele>
        <time>2017-03-13T12:38:44Z</time>
      </trkpt>
      <trkpt lat="44.51113" lon="6.83804">
        <ele>2353.345</ele>
        <time>2017-03-13T12:38:47Z</time>
      </trkpt>
      <trkpt lat="44.51113" lon="6.83799">
        <ele>2352.915</ele>
        <time>2017-03-13T12:38:48Z</time>
      </trkpt>
      <trkpt lat="44.51115" lon="6.83764">
        <ele>2351.948</ele>
        <time>2017-03-13T12:38:56Z</time>
      </trkpt>
      <trkpt lat="44.51119" lon="6.83753">
        <ele>2350.492</ele>
        <time>2017-03-13T12:39:01Z</time>
      </trkpt>
      <trkpt lat="44.51127" lon="6.83744">
        <ele>2348.998</ele>
        <time>2017-03-13T12:40:22Z</time>
      </trkpt>
      <trkpt lat="44.51136" lon="6.83728">
        <ele>2347.368</ele>
        <time>2017-03-13T12:40:31Z</time>
      </trkpt>
      <trkpt lat="44.51121" lon="6.83684">
        <ele>2346.135</ele>
        <time>2017-03-13T12:40:37Z</time>
      </trkpt>
      <trkpt lat="44.51095" lon="6.83673">
        <ele>2343.992</ele>
        <time>2017-03-13T12:40:41Z</time>
      </trkpt>
      <trkpt lat="44.51117" lon="6.83665">
        <ele>2341.248</ele>
        <time>2017-03-13T12:40:43Z</time>
      </trkpt>
      <trkpt lat="44.51117" lon="6.83657">
        <ele>2338.698</ele>
        <time>2017-03-13T12:40:45Z</time>
      </trkpt>
      <trkpt lat="44.51124" lon="6.83635">
        <ele>2336.792</ele>
        <time>2017-03-13T12:40:50Z</time>
      </trkpt>
      <trkpt lat="44.5113" lon="6.83615">
        <ele>2335.767</ele>
        <time>2017-03-13T12:40:56Z</time>
      </trkpt>
      <trkpt lat="44.51132" lon="6.83597">
        <ele>2334.183</ele>
        <time>2017-03-13T12:40:59Z</time>
      </trkpt>
      <trkpt lat="44.51135" lon="6.83583">
        <ele>2332.84</ele>
        <time>2017-03-13T12:41:01Z</time>
      </trkpt>
      <trkpt lat="44.51143" lon="6.83549">
        <ele>2330.263</ele>
        <time>2017-03-13T12:41:08Z</time>
      </trkpt>
      <trkpt lat="44.51152" lon="6.8353">
        <ele>2327.262</ele>
        <time>2017-03-13T12:41:12Z</time>
      </trkpt>
      <trkpt lat="44.51153" lon="6.83526">
        <ele>2327.258</ele>
        <time>2017-03-13T12:41:13Z</time>
      </trkpt>
      <trkpt lat="44.51168" lon="6.83494">
        <ele>2324.247</ele>
        <time>2017-03-13T12:41:21Z</time>
      </trkpt>
      <trkpt lat="44.51186" lon="6.83472">
        <ele>2321.677</ele>
        <time>2017-03-13T12:41:27Z</time>
      </trkpt>
      <trkpt lat="44.51197" lon="6.83454">
        <ele>2319.927</ele>
        <time>2017-03-13T12:41:32Z</time>
      </trkpt>
      <trkpt lat="44.51206" lon="6.83436">
        <ele>2319.347</ele>
        <time>2017-03-13T12:41:52Z</time>
      </trkpt>
      <trkpt lat="44.51211" lon="6.83424">
        <ele>2318.063</ele>
        <time>2017-03-13T12:41:54Z</time>
      </trkpt>
      <trkpt lat="44.5122" lon="6.83406">
        <ele>2316.125</ele>
        <time>2017-03-13T12:41:57Z</time>
      </trkpt>
      <trkpt lat="44.51237" lon="6.83357">
        <ele>2311.595</ele>
        <time>2017-03-13T12:42:05Z</time>
      </trkpt>
      <trkpt lat="44.51242" lon="6.83332">
        <ele>2309.282</ele>
        <time>2017-03-13T12:42:11Z</time>
      </trkpt>
      <trkpt lat="44.51242" lon="6.83318">
        <ele>2307.241</ele>
        <time>2017-03-13T12:42:14Z</time>
      </trkpt>
      <trkpt lat="44.51253" lon="6.83278">
        <ele>2305.806</ele>
        <time>2017-03-13T12:42:17Z</time>
      </trkpt>
      <trkpt lat="44.51256" lon="6.83269">
        <ele>2304.199</ele>
        <time>2017-03-13T12:42:18Z</time>
      </trkpt>
      <trkpt lat="44.51261" lon="6.8325">
        <ele>2303.289</ele>
        <time>2017-03-13T12:42:20Z</time>
      </trkpt>
      <trkpt lat="44.51265" lon="6.83232">
        <ele>2301.154</ele>
        <time>2017-03-13T12:42:22Z</time>
      </trkpt>
      <trkpt lat="44.51265" lon="6.83221">
        <ele>2299.1</ele>
        <time>2017-03-13T12:42:24Z</time>
      </trkpt>
      <trkpt lat="44.51268" lon="6.83191">
        <ele>2295.089</ele>
        <time>2017-03-13T12:42:26Z</time>
      </trkpt>
      <trkpt lat="44.51268" lon="6.83181">
        <ele>2295.082</ele>
        <time>2017-03-13T12:42:27Z</time>
      </trkpt>
      <trkpt lat="44.51288" lon="6.83105">
        <ele>2292.837</ele>
        <time>2017-03-13T12:42:31Z</time>
      </trkpt>
      <trkpt lat="44.513" lon="6.83083">
        <ele>2289.94</ele>
        <time>2017-03-13T12:42:34Z</time>
      </trkpt>
      <trkpt lat="44.51309" lon="6.83066">
        <ele>2288.617</ele>
        <time>2017-03-13T12:42:36Z</time>
      </trkpt>
      <trkpt lat="44.51318" lon="6.83048">
        <ele>2287.203</ele>
        <time>2017-03-13T12:42:38Z</time>
      </trkpt>
      <trkpt lat="44.51338" lon="6.83017">
        <ele>2285.263</ele>
        <time>2017-03-13T12:42:41Z</time>
      </trkpt>
      <trkpt lat="44.51348" lon="6.83005">
        <ele>2284.049</ele>
        <time>2017-03-13T12:42:43Z</time>
      </trkpt>
      <trkpt lat="44.51353" lon="6.82994">
        <ele>2282.812</ele>
        <time>2017-03-13T12:42:45Z</time>
      </trkpt>
      <trkpt lat="44.51372" lon="6.82973">
        <ele>2280.029</ele>
        <time>2017-03-13T12:42:47Z</time>
      </trkpt>
      <trkpt lat="44.51386" lon="6.82951">
        <ele>2278.402</ele>
        <time>2017-03-13T12:42:50Z</time>
      </trkpt>
      <trkpt lat="44.51391" lon="6.82932">
        <ele>2277.056</ele>
        <time>2017-03-13T12:42:52Z</time>
      </trkpt>
      <trkpt lat="44.51396" lon="6.82917">
        <ele>2273.808</ele>
        <time>2017-03-13T12:42:54Z</time>
      </trkpt>
      <trkpt lat="44.51402" lon="6.829">
        <ele>2272.188</ele>
        <time>2017-03-13T12:42:57Z</time>
      </trkpt>
      <trkpt lat="44.5141" lon="6.82885">
        <ele>2270.736</ele>
        <time>2017-03-13T12:42:59Z</time>
      </trkpt>
      <trkpt lat="44.51417" lon="6.82862">
        <ele>2267.615</ele>
        <time>2017-03-13T12:43:03Z</time>
      </trkpt>
      <trkpt lat="44.51418" lon="6.82849">
        <ele>2266.109</ele>
        <time>2017-03-13T12:43:24Z</time>
      </trkpt>
      <trkpt lat="44.51423" lon="6.82824">
        <ele>2264.291</ele>
        <time>2017-03-13T12:43:28Z</time>
      </trkpt>
      <trkpt lat="44.51427" lon="6.82804">
        <ele>2262.923</ele>
        <time>2017-03-13T12:43:30Z</time>
      </trkpt>
      <trkpt lat="44.51432" lon="6.82781">
        <ele>2261.355</ele>
        <time>2017-03-13T12:43:32Z</time>
      </trkpt>
      <trkpt lat="44.51434" lon="6.82769">
        <ele>2258.796</ele>
        <time>2017-03-13T12:43:33Z</time>
      </trkpt>
      <trkpt lat="44.51442" lon="6.82735">
        <ele>2257.01</ele>
        <time>2017-03-13T12:43:36Z</time>
      </trkpt>
      <trkpt lat="44.51446" lon="6.82715">
        <ele>2254.55</ele>
        <time>2017-03-13T12:43:39Z</time>
      </trkpt>
      <trkpt lat="44.51463" lon="6.82656">
        <ele>2252.089</ele>
        <time>2017-03-13T12:43:43Z</time>
      </trkpt>
      <trkpt lat="44.51538" lon="6.8267">
        <ele>2248.188</ele>
        <time>2017-03-13T12:43:47Z</time>
      </trkpt>
      <trkpt lat="44.51542" lon="6.82662">
        <ele>2248.182</ele>
        <time>2017-03-13T12:43:48Z</time>
      </trkpt>
      <trkpt lat="44.5155" lon="6.82646">
        <ele>2246.655</ele>
        <time>2017-03-13T12:43:50Z</time>
      </trkpt>
      <trkpt lat="44.51557" lon="6.82632">
        <ele>2245.285</ele>
        <time>2017-03-13T12:43:52Z</time>
      </trkpt>
      <trkpt lat="44.51579" lon="6.82593">
        <ele>2241.778</ele>
        <time>2017-03-13T12:43:58Z</time>
      </trkpt>
      <trkpt lat="44.51592" lon="6.82571">
        <ele>2239.914</ele>
        <time>2017-03-13T12:44:02Z</time>
      </trkpt>
      <trkpt lat="44.51608" lon="6.82546">
        <ele>2237.615</ele>
        <time>2017-03-13T12:44:06Z</time>
      </trkpt>
      <trkpt lat="44.51617" lon="6.8253">
        <ele>2235.999</ele>
        <time>2017-03-13T12:44:09Z</time>
      </trkpt>
      <trkpt lat="44.51631" lon="6.82513">
        <ele>2234.028</ele>
        <time>2017-03-13T12:44:13Z</time>
      </trkpt>
      <trkpt lat="44.51656" lon="6.82486">
        <ele>2231.996</ele>
        <time>2017-03-13T12:44:20Z</time>
      </trkpt>
      <trkpt lat="44.51667" lon="6.82472">
        <ele>2230.244</ele>
        <time>2017-03-13T12:44:23Z</time>
      </trkpt>
      <trkpt lat="44.51698" lon="6.82441">
        <ele>2226.753</ele>
        <time>2017-03-13T12:44:31Z</time>
      </trkpt>
      <trkpt lat="44.51702" lon="6.82437">
        <ele>2226.747</ele>
        <time>2017-03-13T12:44:32Z</time>
      </trkpt>
      <trkpt lat="44.51715" lon="6.82424">
        <ele>2224.988</ele>
        <time>2017-03-13T12:44:35Z</time>
      </trkpt>
      <trkpt lat="44.51725" lon="6.82411">
        <ele>2223.643</ele>
        <time>2017-03-13T12:44:38Z</time>
      </trkpt>
      <trkpt lat="44.51737" lon="6.82396">
        <ele>2222.964</ele>
        <time>2017-03-13T12:44:44Z</time>
      </trkpt>
      <trkpt lat="44.51726" lon="6.82388">
        <ele>2220.689</ele>
        <time>2017-03-13T12:45:51Z</time>
      </trkpt>
      <trkpt lat="44.51725" lon="6.82382">
        <ele>2217.613</ele>
        <time>2017-03-13T12:45:52Z</time>
      </trkpt>
      <trkpt lat="44.51727" lon="6.82376">
        <ele>2217.606</ele>
        <time>2017-03-13T12:45:53Z</time>
      </trkpt>
      <trkpt lat="44.51729" lon="6.82355">
        <ele>2212.831</ele>
        <time>2017-03-13T12:45:57Z</time>
      </trkpt>
      <trkpt lat="44.51732" lon="6.82349">
        <ele>2208.723</ele>
        <time>2017-03-13T12:45:58Z</time>
      </trkpt>
      <trkpt lat="44.51737" lon="6.8232">
        <ele>2202.332</ele>
        <time>2017-03-13T12:46:02Z</time>
      </trkpt>
      <trkpt lat="44.51737" lon="6.82312">
        <ele>2199.083</ele>
        <time>2017-03-13T12:46:03Z</time>
      </trkpt>
      <trkpt lat="44.51738" lon="6.82304">
        <ele>2199.077</ele>
        <time>2017-03-13T12:46:04Z</time>
      </trkpt>
      <trkpt lat="44.51744" lon="6.82278">
        <ele>2194.129</ele>
        <time>2017-03-13T12:46:07Z</time>
      </trkpt>
      <trkpt lat="44.51747" lon="6.82269">
        <ele>2191.099</ele>
        <time>2017-03-13T12:46:08Z</time>
      </trkpt>
      <trkpt lat="44.51752" lon="6.82246">
        <ele>2188.518</ele>
        <time>2017-03-13T12:46:11Z</time>
      </trkpt>
      <trkpt lat="44.51754" lon="6.82238">
        <ele>2186.416</ele>
        <time>2017-03-13T12:46:12Z</time>
      </trkpt>
      <trkpt lat="44.51763" lon="6.82228">
        <ele>2183.692</ele>
        <time>2017-03-13T12:46:14Z</time>
      </trkpt>
      <trkpt lat="44.51766" lon="6.82214">
        <ele>2181.654</ele>
        <time>2017-03-13T12:46:16Z</time>
      </trkpt>
      <trkpt lat="44.51768" lon="6.82207">
        <ele>2179.618</ele>
        <time>2017-03-13T12:46:17Z</time>
      </trkpt>
      <trkpt lat="44.51768" lon="6.82191">
        <ele>2176.612</ele>
        <time>2017-03-13T12:46:19Z</time>
      </trkpt>
      <trkpt lat="44.51769" lon="6.82183">
        <ele>2173.04</ele>
        <time>2017-03-13T12:46:20Z</time>
      </trkpt>
      <trkpt lat="44.5177" lon="6.82174">
        <ele>2173.033</ele>
        <time>2017-03-13T12:46:21Z</time>
      </trkpt>
      <trkpt lat="44.51777" lon="6.8216">
        <ele>2170.242</ele>
        <time>2017-03-13T12:46:23Z</time>
      </trkpt>
      <trkpt lat="44.51787" lon="6.82153">
        <ele>2168.093</ele>
        <time>2017-03-13T12:46:25Z</time>
      </trkpt>
      <trkpt lat="44.51793" lon="6.82151">
        <ele>2166.76</ele>
        <time>2017-03-13T12:46:26Z</time>
      </trkpt>
      <trkpt lat="44.51801" lon="6.82146">
        <ele>2166.19</ele>
        <time>2017-03-13T12:46:28Z</time>
      </trkpt>
      <trkpt lat="44.51803" lon="6.82138">
        <ele>2164.45</ele>
        <time>2017-03-13T12:46:30Z</time>
      </trkpt>
      <trkpt lat="44.51803" lon="6.82128">
        <ele>2162.881</ele>
        <time>2017-03-13T12:46:32Z</time>
      </trkpt>
      <trkpt lat="44.51805" lon="6.82124">
        <ele>2159.2</ele>
        <time>2017-03-13T12:46:33Z</time>
      </trkpt>
      <trkpt lat="44.51805" lon="6.82119">
        <ele>2159.191</ele>
        <time>2017-03-13T12:46:34Z</time>
      </trkpt>
      <trkpt lat="44.51802" lon="6.8211">
        <ele>2153.925</ele>
        <time>2017-03-13T12:46:36Z</time>
      </trkpt>
      <trkpt lat="44.51803" lon="6.82105">
        <ele>2153.917</ele>
        <time>2017-03-13T12:46:37Z</time>
      </trkpt>
      <trkpt lat="44.51804" lon="6.821">
        <ele>2150.463</ele>
        <time>2017-03-13T12:46:38Z</time>
      </trkpt>
      <trkpt lat="44.51803" lon="6.82094">
        <ele>2150.455</ele>
        <time>2017-03-13T12:46:39Z</time>
      </trkpt>
      <trkpt lat="44.51802" lon="6.82076">
        <ele>2144.814</ele>
        <time>2017-03-13T12:46:42Z</time>
      </trkpt>
      <trkpt lat="44.51797" lon="6.82062">
        <ele>2142.355</ele>
        <time>2017-03-13T12:46:44Z</time>
      </trkpt>
      <trkpt lat="44.5179" lon="6.82049">
        <ele>2140.595</ele>
        <time>2017-03-13T12:46:46Z</time>
      </trkpt>
      <trkpt lat="44.51793" lon="6.82035">
        <ele>2138.813</ele>
        <time>2017-03-13T12:46:48Z</time>
      </trkpt>
      <trkpt lat="44.51798" lon="6.82031">
        <ele>2136.673</ele>
        <time>2017-03-13T12:46:49Z</time>
      </trkpt>
      <trkpt lat="44.51801" lon="6.82003">
        <ele>2133.606</ele>
        <time>2017-03-13T12:46:53Z</time>
      </trkpt>
      <trkpt lat="44.51755" lon="6.81955">
        <ele>2132.809</ele>
        <time>2017-03-13T12:46:55Z</time>
      </trkpt>
      <trkpt lat="44.51772" lon="6.81925">
        <ele>2128.969</ele>
        <time>2017-03-13T12:46:58Z</time>
      </trkpt>
      <trkpt lat="44.51774" lon="6.8192">
        <ele>2127.282</ele>
        <time>2017-03-13T12:47:00Z</time>
      </trkpt>
      <trkpt lat="44.51783" lon="6.819">
        <ele>2124.788</ele>
        <time>2017-03-13T12:47:04Z</time>
      </trkpt>
      <trkpt lat="44.5179" lon="6.81882">
        <ele>2122.867</ele>
        <time>2017-03-13T12:47:07Z</time>
      </trkpt>
      <trkpt lat="44.51792" lon="6.81877">
        <ele>2121.182</ele>
        <time>2017-03-13T12:47:08Z</time>
      </trkpt>
      <trkpt lat="44.518" lon="6.81857">
        <ele>2117.694</ele>
        <time>2017-03-13T12:47:11Z</time>
      </trkpt>
      <trkpt lat="44.51803" lon="6.8185">
        <ele>2117.686</ele>
        <time>2017-03-13T12:47:12Z</time>
      </trkpt>
      <trkpt lat="44.51811" lon="6.81835">
        <ele>2115.208</ele>
        <time>2017-03-13T12:47:14Z</time>
      </trkpt>
      <trkpt lat="44.51825" lon="6.81813">
        <ele>2113.567</ele>
        <time>2017-03-13T12:47:16Z</time>
      </trkpt>
      <trkpt lat="44.51824" lon="6.81816">
        <ele>2109.318</ele>
        <time>2017-03-13T12:47:22Z</time>
      </trkpt>
      <trkpt lat="44.5183" lon="6.81803">
        <ele>2105.706</ele>
        <time>2017-03-13T12:48:33Z</time>
      </trkpt>
      <trkpt lat="44.5183" lon="6.81799">
        <ele>2103.761</ele>
        <time>2017-03-13T12:48:35Z</time>
      </trkpt>
      <trkpt lat="44.51832" lon="6.81792">
        <ele>2097.888</ele>
        <time>2017-03-13T12:48:40Z</time>
      </trkpt>
      <trkpt lat="44.51868" lon="6.81758">
        <ele>2096.564</ele>
        <time>2017-03-13T12:48:44Z</time>
      </trkpt>
      <trkpt lat="44.51872" lon="6.81752">
        <ele>2093.759</ele>
        <time>2017-03-13T12:48:47Z</time>
      </trkpt>
      <trkpt lat="44.51873" lon="6.81738">
        <ele>2089.377</ele>
        <time>2017-03-13T12:48:53Z</time>
      </trkpt>
      <trkpt lat="44.51889" lon="6.81717">
        <ele>2087.683</ele>
        <time>2017-03-13T12:48:56Z</time>
      </trkpt>
      <trkpt lat="44.519" lon="6.81726">
        <ele>2086.051</ele>
        <time>2017-03-13T12:49:00Z</time>
      </trkpt>
      <trkpt lat="44.51902" lon="6.81717">
        <ele>2083.505</ele>
        <time>2017-03-13T12:49:02Z</time>
      </trkpt>
      <trkpt lat="44.51909" lon="6.81712">
        <ele>2081.022</ele>
        <time>2017-03-13T12:49:08Z</time>
      </trkpt>
      <trkpt lat="44.51912" lon="6.81705">
        <ele>2080.687</ele>
        <time>2017-03-13T12:50:14Z</time>
      </trkpt>
      <trkpt lat="44.51909" lon="6.81692">
        <ele>2078.986</ele>
        <time>2017-03-13T12:50:17Z</time>
      </trkpt>
      <trkpt lat="44.51902" lon="6.81674">
        <ele>2077.473</ele>
        <time>2017-03-13T12:50:22Z</time>
      </trkpt>
      <trkpt lat="44.51895" lon="6.81652">
        <ele>2075.917</ele>
        <time>2017-03-13T12:50:24Z</time>
      </trkpt>
      <trkpt lat="44.51907" lon="6.81642">
        <ele>2073.096</ele>
        <time>2017-03-13T12:50:28Z</time>
      </trkpt>
      <trkpt lat="44.51909" lon="6.81642">
        <ele>2070.377</ele>
        <time>2017-03-13T12:50:29Z</time>
      </trkpt>
      <trkpt lat="44.51929" lon="6.81638">
        <ele>2065.446</ele>
        <time>2017-03-13T12:50:34Z</time>
      </trkpt>
      <trkpt lat="44.51943" lon="6.81598">
        <ele>2061.367</ele>
        <time>2017-03-13T12:50:38Z</time>
      </trkpt>
      <trkpt lat="44.51948" lon="6.81594">
        <ele>2058.841</ele>
        <time>2017-03-13T12:50:40Z</time>
      </trkpt>
      <trkpt lat="44.51952" lon="6.81588">
        <ele>2057.827</ele>
        <time>2017-03-13T12:50:42Z</time>
      </trkpt>
      <trkpt lat="44.51955" lon="6.81576">
        <ele>2055.309</ele>
        <time>2017-03-13T12:50:45Z</time>
      </trkpt>
      <trkpt lat="44.51957" lon="6.81572">
        <ele>2054.038</ele>
        <time>2017-03-13T12:51:47Z</time>
      </trkpt>
      <trkpt lat="44.51962" lon="6.81561">
        <ele>2053.465</ele>
        <time>2017-03-13T12:51:50Z</time>
      </trkpt>
      <trkpt lat="44.51967" lon="6.81552">
        <ele>2052.047</ele>
        <time>2017-03-13T12:51:52Z</time>
      </trkpt>
      <trkpt lat="44.5197" lon="6.81547">
        <ele>2051.306</ele>
        <time>2017-03-13T12:51:54Z</time>
      </trkpt>
      <trkpt lat="44.51975" lon="6.8154">
        <ele>2049.811</ele>
        <time>2017-03-13T12:51:56Z</time>
      </trkpt>
      <trkpt lat="44.51981" lon="6.81531">
        <ele>2045.51</ele>
        <time>2017-03-13T12:51:58Z</time>
      </trkpt>
      <trkpt lat="44.51984" lon="6.81526">
        <ele>2045.503</ele>
        <time>2017-03-13T12:51:59Z</time>
      </trkpt>
      <trkpt lat="44.51989" lon="6.81518">
        <ele>2043.698</ele>
        <time>2017-03-13T12:52:01Z</time>
      </trkpt>
      <trkpt lat="44.51998" lon="6.81509">
        <ele>2041.11</ele>
        <time>2017-03-13T12:52:03Z</time>
      </trkpt>
      <trkpt lat="44.52008" lon="6.81501">
        <ele>2037.305</ele>
        <time>2017-03-13T12:52:05Z</time>
      </trkpt>
      <trkpt lat="44.52025" lon="6.81476">
        <ele>2035.272</ele>
        <time>2017-03-13T12:52:08Z</time>
      </trkpt>
      <trkpt lat="44.5203" lon="6.81467">
        <ele>2033.508</ele>
        <time>2017-03-13T12:52:10Z</time>
      </trkpt>
      <trkpt lat="44.52033" lon="6.81459">
        <ele>2033.005</ele>
        <time>2017-03-13T12:52:16Z</time>
      </trkpt>
      <trkpt lat="44.52039" lon="6.81442">
        <ele>2032.093</ele>
        <time>2017-03-13T12:52:28Z</time>
      </trkpt>
      <trkpt lat="44.5205" lon="6.81417">
        <ele>2030.179</ele>
        <time>2017-03-13T12:52:33Z</time>
      </trkpt>
      <trkpt lat="44.52069" lon="6.81395">
        <ele>2027.545</ele>
        <time>2017-03-13T12:52:39Z</time>
      </trkpt>
      <trkpt lat="44.52091" lon="6.81375">
        <ele>2025.475</ele>
        <time>2017-03-13T12:52:43Z</time>
      </trkpt>
      <trkpt lat="44.52101" lon="6.81367">
        <ele>2024.597</ele>
        <time>2017-03-13T12:52:48Z</time>
      </trkpt>
      <trkpt lat="44.52116" lon="6.81359">
        <ele>2022.866</ele>
        <time>2017-03-13T12:52:53Z</time>
      </trkpt>
      <trkpt lat="44.52136" lon="6.81349">
        <ele>2021.597</ele>
        <time>2017-03-13T12:53:02Z</time>
      </trkpt>
      <trkpt lat="44.52147" lon="6.81341">
        <ele>2021.345</ele>
        <time>2017-03-13T12:53:09Z</time>
      </trkpt>
      <trkpt lat="44.52167" lon="6.81322">
        <ele>2017.905</ele>
        <time>2017-03-13T12:53:16Z</time>
      </trkpt>
      <trkpt lat="44.52179" lon="6.81305">
        <ele>2016.381</ele>
        <time>2017-03-13T12:53:20Z</time>
      </trkpt>
      <trkpt lat="44.52191" lon="6.81281">
        <ele>2012.871</ele>
        <time>2017-03-13T12:53:25Z</time>
      </trkpt>
      <trkpt lat="44.522" lon="6.81269">
        <ele>2011.031</ele>
        <time>2017-03-13T12:53:27Z</time>
      </trkpt>
      <trkpt lat="44.52208" lon="6.81257">
        <ele>2008.737</ele>
        <time>2017-03-13T12:53:29Z</time>
      </trkpt>
      <trkpt lat="44.52222" lon="6.81236">
        <ele>2006.53</ele>
        <time>2017-03-13T12:53:34Z</time>
      </trkpt>
      <trkpt lat="44.52235" lon="6.81224">
        <ele>2004.23</ele>
        <time>2017-03-13T12:53:37Z</time>
      </trkpt>
      <trkpt lat="44.52246" lon="6.8121">
        <ele>2000.572</ele>
        <time>2017-03-13T12:53:40Z</time>
      </trkpt>
      <trkpt lat="44.5225" lon="6.81205">
        <ele>2000.566</ele>
        <time>2017-03-13T12:53:41Z</time>
      </trkpt>
      <trkpt lat="44.52257" lon="6.81196">
        <ele>1998.744</ele>
        <time>2017-03-13T12:53:43Z</time>
      </trkpt>
      <trkpt lat="44.52264" lon="6.81187">
        <ele>1997.459</ele>
        <time>2017-03-13T12:53:45Z</time>
      </trkpt>
      <trkpt lat="44.52269" lon="6.81179">
        <ele>1995.941</ele>
        <time>2017-03-13T12:53:47Z</time>
      </trkpt>
      <trkpt lat="44.52276" lon="6.81168">
        <ele>1993.931</ele>
        <time>2017-03-13T12:53:50Z</time>
      </trkpt>
      <trkpt lat="44.52279" lon="6.81164">
        <ele>1992.701</ele>
        <time>2017-03-13T12:53:52Z</time>
      </trkpt>
      <trkpt lat="44.5229" lon="6.81145">
        <ele>1990.735</ele>
        <time>2017-03-13T12:53:57Z</time>
      </trkpt>
      <trkpt lat="44.52294" lon="6.81138">
        <ele>1989.736</ele>
        <time>2017-03-13T12:53:59Z</time>
      </trkpt>
      <trkpt lat="44.52307" lon="6.81117">
        <ele>1985.82</ele>
        <time>2017-03-13T12:54:03Z</time>
      </trkpt>
      <trkpt lat="44.52315" lon="6.81102">
        <ele>1983.283</ele>
        <time>2017-03-13T12:54:06Z</time>
      </trkpt>
      <trkpt lat="44.5232" lon="6.81093">
        <ele>1981.904</ele>
        <time>2017-03-13T12:54:08Z</time>
      </trkpt>
      <trkpt lat="44.52325" lon="6.81084">
        <ele>1980.388</ele>
        <time>2017-03-13T12:54:10Z</time>
      </trkpt>
      <trkpt lat="44.5233" lon="6.81075">
        <ele>1978.371</ele>
        <time>2017-03-13T12:54:13Z</time>
      </trkpt>
      <trkpt lat="44.52335" lon="6.81067">
        <ele>1976.104</ele>
        <time>2017-03-13T12:54:15Z</time>
      </trkpt>
      <trkpt lat="44.52339" lon="6.8106">
        <ele>1973.136</ele>
        <time>2017-03-13T12:54:17Z</time>
      </trkpt>
      <trkpt lat="44.52348" lon="6.81032">
        <ele>1966.521</ele>
        <time>2017-03-13T12:54:45Z</time>
      </trkpt>
      <trkpt lat="44.5235" lon="6.81027">
        <ele>1965.534</ele>
        <time>2017-03-13T12:56:32Z</time>
      </trkpt>
      <trkpt lat="44.52357" lon="6.81003">
        <ele>1963.186</ele>
        <time>2017-03-13T12:56:36Z</time>
      </trkpt>
      <trkpt lat="44.524" lon="6.80989">
        <ele>1961.241</ele>
        <time>2017-03-13T12:56:39Z</time>
      </trkpt>
      <trkpt lat="44.52405" lon="6.80972">
        <ele>1958.474</ele>
        <time>2017-03-13T12:56:41Z</time>
      </trkpt>
      <trkpt lat="44.52412" lon="6.80957">
        <ele>1955.547</ele>
        <time>2017-03-13T12:56:43Z</time>
      </trkpt>
      <trkpt lat="44.5242" lon="6.80945">
        <ele>1952.498</ele>
        <time>2017-03-13T12:56:45Z</time>
      </trkpt>
      <trkpt lat="44.52423" lon="6.80941">
        <ele>1952.491</ele>
        <time>2017-03-13T12:56:46Z</time>
      </trkpt>
      <trkpt lat="44.52438" lon="6.80916">
        <ele>1950.133</ele>
        <time>2017-03-13T12:56:53Z</time>
      </trkpt>
      <trkpt lat="44.52443" lon="6.80894">
        <ele>1947.243</ele>
        <time>2017-03-13T12:57:00Z</time>
      </trkpt>
      <trkpt lat="44.5244" lon="6.80887">
        <ele>1946.266</ele>
        <time>2017-03-13T12:57:29Z</time>
      </trkpt>
      <trkpt lat="44.52394" lon="6.80869">
        <ele>1945.469</ele>
        <time>2017-03-13T12:57:31Z</time>
      </trkpt>
      <trkpt lat="44.52449" lon="6.80831">
        <ele>1940.742</ele>
        <time>2017-03-13T12:57:35Z</time>
      </trkpt>
      <trkpt lat="44.52461" lon="6.80819">
        <ele>1938.357</ele>
        <time>2017-03-13T12:57:37Z</time>
      </trkpt>
      <trkpt lat="44.52473" lon="6.80802">
        <ele>1936.827</ele>
        <time>2017-03-13T12:57:39Z</time>
      </trkpt>
      <trkpt lat="44.52478" lon="6.80793">
        <ele>1934.327</ele>
        <time>2017-03-13T12:57:40Z</time>
      </trkpt>
      <trkpt lat="44.52489" lon="6.8078">
        <ele>1931.099</ele>
        <time>2017-03-13T12:57:42Z</time>
      </trkpt>
      <trkpt lat="44.52503" lon="6.80771">
        <ele>1929.776</ele>
        <time>2017-03-13T12:57:44Z</time>
      </trkpt>
      <trkpt lat="44.52522" lon="6.80749">
        <ele>1928.534</ele>
        <time>2017-03-13T12:57:48Z</time>
      </trkpt>
      <trkpt lat="44.52528" lon="6.80737">
        <ele>1927.036</ele>
        <time>2017-03-13T12:57:50Z</time>
      </trkpt>
      <trkpt lat="44.52539" lon="6.80712">
        <ele>1926.423</ele>
        <time>2017-03-13T12:57:57Z</time>
      </trkpt>
      <trkpt lat="44.52547" lon="6.80688">
        <ele>1925.553</ele>
        <time>2017-03-13T12:58:08Z</time>
      </trkpt>
      <trkpt lat="44.52552" lon="6.80672">
        <ele>1925.084</ele>
        <time>2017-03-13T12:58:17Z</time>
      </trkpt>
      <trkpt lat="44.52555" lon="6.80656">
        <ele>1925.29</ele>
        <time>2017-03-13T12:58:28Z</time>
      </trkpt>
      <trkpt lat="44.52569" lon="6.80544">
        <ele>1921.333</ele>
        <time>2017-03-13T13:03:18Z</time>
      </trkpt>
      <trkpt lat="44.5259" lon="6.80482">
        <ele>1914.792</ele>
        <time>2017-03-13T13:04:05Z</time>
      </trkpt>
      <trkpt lat="44.526" lon="6.80441">
        <ele>1911.408</ele>
        <time>2017-03-13T13:04:31Z</time>
      </trkpt>
      <trkpt lat="44.52598" lon="6.80407">
        <ele>1909.575</ele>
        <time>2017-03-13T13:04:53Z</time>
      </trkpt>
      <trkpt lat="44.52598" lon="6.80396">
        <ele>1909.508</ele>
        <time>2017-03-13T13:05:02Z</time>
      </trkpt>
      <trkpt lat="44.52599" lon="6.80377">
        <ele>1909.864</ele>
        <time>2017-03-13T13:05:17Z</time>
      </trkpt>
      <trkpt lat="44.52585" lon="6.80251">
        <ele>1906.039</ele>
        <time>2017-03-13T13:07:37Z</time>
      </trkpt>
      <trkpt lat="44.52579" lon="6.80231">
        <ele>1905.819</ele>
        <time>2017-03-13T13:07:46Z</time>
      </trkpt>
      <trkpt lat="44.52569" lon="6.802">
        <ele>1904.647</ele>
        <time>2017-03-13T13:08:22Z</time>
      </trkpt>
      <trkpt lat="44.52551" lon="6.80142">
        <ele>1901.918</ele>
        <time>2017-03-13T13:09:04Z</time>
      </trkpt>
      <trkpt lat="44.5255" lon="6.80137">
        <ele>1901.408</ele>
        <time>2017-03-13T13:09:06Z</time>
      </trkpt>
      <trkpt lat="44.5255" lon="6.8013">
        <ele>1899.78</ele>
        <time>2017-03-13T13:09:14Z</time>
      </trkpt>
      <trkpt lat="44.52549" lon="6.80115">
        <ele>1899.044</ele>
        <time>2017-03-13T13:09:24Z</time>
      </trkpt>
      <trkpt lat="44.52549" lon="6.80074">
        <ele>1896.514</ele>
        <time>2017-03-13T13:10:49Z</time>
      </trkpt>
      <trkpt lat="44.5255" lon="6.80052">
        <ele>1896.482</ele>
        <time>2017-03-13T13:11:25Z</time>
      </trkpt>
      <trkpt lat="44.52551" lon="6.8003">
        <ele>1896.483</ele>
        <time>2017-03-13T13:11:37Z</time>
      </trkpt>
      <trkpt lat="44.52551" lon="6.8002">
        <ele>1896.169</ele>
        <time>2017-03-13T13:11:40Z</time>
      </trkpt>
      <trkpt lat="44.52547" lon="6.80003">
        <ele>1896.265</ele>
        <time>2017-03-13T13:11:54Z</time>
      </trkpt>
      <trkpt lat="44.5254" lon="6.79978">
        <ele>1895.954</ele>
        <time>2017-03-13T13:12:09Z</time>
      </trkpt>
      <trkpt lat="44.52535" lon="6.79956">
        <ele>1895.746</ele>
        <time>2017-03-13T13:12:21Z</time>
      </trkpt>
      <trkpt lat="44.52535" lon="6.79956">
        <ele>1891.524</ele>
        <time>2017-03-13T13:16:10Z</time>
      </trkpt>
    </trkseg>
  </trk>
</gpx>